<?xml version="1.0" encoding="UTF-8" standalone="no" ?>
<gpx xmlns="http://www.topografix.com/GPX/1/1" xmlns:xsi="http://www.w3.org/2001/XMLSchema-instance" xsi:schemaLocation="http://www.topografix.com/GPX/1/1 http://www.topografix.com/GPX/1/1/gpx.xsd" version="1.1" creator="VisuGPX - https://www.visugpx.com">
  <metadata>
    <name>Lauret_Lafoux</name>
    <desc><![CDATA[
]]></desc>
  </metadata>
  <trk>
    <name><![CDATA[Lauret_Lafoux]]></name>
    <trkseg>
      <trkpt lat="43.8425" lon="3.85686">
        <ele>440.4</ele>
        <time>2019-12-22T09:32:35.000Z</time>
      </trkpt>
      <trkpt lat="43.8425" lon="3.85686">
        <ele>436.6</ele>
        <time>2019-12-22T09:32:36.000Z</time>
      </trkpt>
      <trkpt lat="43.8425" lon="3.85686">
        <ele>428.9</ele>
        <time>2019-12-22T09:32:37.000Z</time>
      </trkpt>
      <trkpt lat="43.8425" lon="3.85686">
        <ele>425.5</ele>
        <time>2019-12-22T09:32:38.000Z</time>
      </trkpt>
      <trkpt lat="43.8425" lon="3.85686">
        <ele>425.5</ele>
        <time>2019-12-22T09:32:39.000Z</time>
      </trkpt>
      <trkpt lat="43.8425" lon="3.85685">
        <ele>422.2</ele>
        <time>2019-12-22T09:32:40.000Z</time>
      </trkpt>
      <trkpt lat="43.8425" lon="3.85685">
        <ele>418.8</ele>
        <time>2019-12-22T09:32:41.000Z</time>
      </trkpt>
      <trkpt lat="43.8425" lon="3.85685">
        <ele>415.4</ele>
        <time>2019-12-22T09:32:42.000Z</time>
      </trkpt>
      <trkpt lat="43.8425" lon="3.85684">
        <ele>412.5</ele>
        <time>2019-12-22T09:32:43.000Z</time>
      </trkpt>
      <trkpt lat="43.8425" lon="3.85684">
        <ele>406.8</ele>
        <time>2019-12-22T09:32:45.000Z</time>
      </trkpt>
      <trkpt lat="43.8425" lon="3.85684">
        <ele>401.5</ele>
        <time>2019-12-22T09:32:47.000Z</time>
      </trkpt>
      <trkpt lat="43.8425" lon="3.85685">
        <ele>396.2</ele>
        <time>2019-12-22T09:32:49.000Z</time>
      </trkpt>
      <trkpt lat="43.8425" lon="3.85684">
        <ele>391.4</ele>
        <time>2019-12-22T09:32:51.000Z</time>
      </trkpt>
      <trkpt lat="43.8425" lon="3.85684">
        <ele>387.1</ele>
        <time>2019-12-22T09:32:53.000Z</time>
      </trkpt>
      <trkpt lat="43.8425" lon="3.85684">
        <ele>383.2</ele>
        <time>2019-12-22T09:32:55.000Z</time>
      </trkpt>
      <trkpt lat="43.8425" lon="3.85685">
        <ele>379.4</ele>
        <time>2019-12-22T09:32:57.000Z</time>
      </trkpt>
      <trkpt lat="43.84249" lon="3.85685">
        <ele>375.5</ele>
        <time>2019-12-22T09:32:59.000Z</time>
      </trkpt>
      <trkpt lat="43.84249" lon="3.85684">
        <ele>372.2</ele>
        <time>2019-12-22T09:33:01.000Z</time>
      </trkpt>
      <trkpt lat="43.84249" lon="3.85684">
        <ele>367.8</ele>
        <time>2019-12-22T09:33:03.000Z</time>
      </trkpt>
      <trkpt lat="43.84249" lon="3.85684">
        <ele>367.8</ele>
        <time>2019-12-22T09:33:04.000Z</time>
      </trkpt>
      <trkpt lat="43.84249" lon="3.85684">
        <ele>363.5</ele>
        <time>2019-12-22T09:33:07.000Z</time>
      </trkpt>
      <trkpt lat="43.84249" lon="3.85684">
        <ele>360.1</ele>
        <time>2019-12-22T09:33:10.000Z</time>
      </trkpt>
      <trkpt lat="43.84249" lon="3.85684">
        <ele>356.8</ele>
        <time>2019-12-22T09:33:13.000Z</time>
      </trkpt>
      <trkpt lat="43.84249" lon="3.85684">
        <ele>353.4</ele>
        <time>2019-12-22T09:33:17.000Z</time>
      </trkpt>
      <trkpt lat="43.8425" lon="3.85685">
        <ele>350.1</ele>
        <time>2019-12-22T09:33:21.000Z</time>
      </trkpt>
      <trkpt lat="43.8425" lon="3.85685">
        <ele>346.2</ele>
        <time>2019-12-22T09:33:27.000Z</time>
      </trkpt>
      <trkpt lat="43.8425" lon="3.85685">
        <ele>346.2</ele>
        <time>2019-12-22T09:33:28.000Z</time>
      </trkpt>
      <trkpt lat="43.8425" lon="3.85684">
        <ele>342.4</ele>
        <time>2019-12-22T09:33:34.000Z</time>
      </trkpt>
      <trkpt lat="43.8425" lon="3.85683">
        <ele>339.5</ele>
        <time>2019-12-22T09:33:41.000Z</time>
      </trkpt>
      <trkpt lat="43.84248" lon="3.85683">
        <ele>336.1</ele>
        <time>2019-12-22T09:33:50.000Z</time>
      </trkpt>
      <trkpt lat="43.84247" lon="3.85682">
        <ele>333.2</ele>
        <time>2019-12-22T09:33:59.000Z</time>
      </trkpt>
      <trkpt lat="43.84247" lon="3.85684">
        <ele>334.7</ele>
        <time>2019-12-22T09:34:05.000Z</time>
      </trkpt>
      <trkpt lat="43.84247" lon="3.85684">
        <ele>331.3</ele>
        <time>2019-12-22T09:34:06.000Z</time>
      </trkpt>
      <trkpt lat="43.84247" lon="3.85685">
        <ele>328</ele>
        <time>2019-12-22T09:34:13.000Z</time>
      </trkpt>
      <trkpt lat="43.84247" lon="3.85685">
        <ele>328</ele>
        <time>2019-12-22T09:34:14.000Z</time>
      </trkpt>
      <trkpt lat="43.84247" lon="3.85684">
        <ele>327</ele>
        <time>2019-12-22T09:34:28.000Z</time>
      </trkpt>
      <trkpt lat="43.84249" lon="3.85686">
        <ele>328.4</ele>
        <time>2019-12-22T09:34:46.000Z</time>
      </trkpt>
      <trkpt lat="43.84248" lon="3.85686">
        <ele>325.5</ele>
        <time>2019-12-22T09:34:49.000Z</time>
      </trkpt>
      <trkpt lat="43.84248" lon="3.85685">
        <ele>329.9</ele>
        <time>2019-12-22T09:34:53.000Z</time>
      </trkpt>
      <trkpt lat="43.84248" lon="3.85686">
        <ele>326.5</ele>
        <time>2019-12-22T09:34:55.000Z</time>
      </trkpt>
      <trkpt lat="43.84248" lon="3.85686">
        <ele>325.5</ele>
        <time>2019-12-22T09:34:57.000Z</time>
      </trkpt>
      <trkpt lat="43.84248" lon="3.85684">
        <ele>326</ele>
        <time>2019-12-22T09:35:04.000Z</time>
      </trkpt>
      <trkpt lat="43.84248" lon="3.85682">
        <ele>324.6</ele>
        <time>2019-12-22T09:35:22.000Z</time>
      </trkpt>
      <trkpt lat="43.84248" lon="3.85682">
        <ele>328</ele>
        <time>2019-12-22T09:35:23.000Z</time>
      </trkpt>
      <trkpt lat="43.84248" lon="3.85682">
        <ele>326</ele>
        <time>2019-12-22T09:35:24.000Z</time>
      </trkpt>
      <trkpt lat="43.84247" lon="3.85687">
        <ele>327.5</ele>
        <time>2019-12-22T09:35:39.000Z</time>
      </trkpt>
      <trkpt lat="43.84243" lon="3.8569">
        <ele>325.5</ele>
        <time>2019-12-22T09:35:51.000Z</time>
      </trkpt>
      <trkpt lat="43.84242" lon="3.85691">
        <ele>325.5</ele>
        <time>2019-12-22T09:35:52.000Z</time>
      </trkpt>
      <trkpt lat="43.84239" lon="3.85693">
        <ele>327.5</ele>
        <time>2019-12-22T09:35:55.000Z</time>
      </trkpt>
      <trkpt lat="43.84232" lon="3.85698">
        <ele>327</ele>
        <time>2019-12-22T09:36:06.000Z</time>
      </trkpt>
      <trkpt lat="43.84231" lon="3.85699">
        <ele>328</ele>
        <time>2019-12-22T09:36:07.000Z</time>
      </trkpt>
      <trkpt lat="43.84227" lon="3.85709">
        <ele>328</ele>
        <time>2019-12-22T09:36:22.000Z</time>
      </trkpt>
      <trkpt lat="43.84225" lon="3.85715">
        <ele>329.9</ele>
        <time>2019-12-22T09:36:27.000Z</time>
      </trkpt>
      <trkpt lat="43.84226" lon="3.85716">
        <ele>328.4</ele>
        <time>2019-12-22T09:36:41.000Z</time>
      </trkpt>
      <trkpt lat="43.84225" lon="3.85723">
        <ele>328</ele>
        <time>2019-12-22T09:36:59.000Z</time>
      </trkpt>
      <trkpt lat="43.8422" lon="3.85736">
        <ele>329.4</ele>
        <time>2019-12-22T09:37:11.000Z</time>
      </trkpt>
      <trkpt lat="43.84217" lon="3.85748">
        <ele>330.4</ele>
        <time>2019-12-22T09:37:22.000Z</time>
      </trkpt>
      <trkpt lat="43.84216" lon="3.8575">
        <ele>333.7</ele>
        <time>2019-12-22T09:37:24.000Z</time>
      </trkpt>
      <trkpt lat="43.84216" lon="3.85754">
        <ele>330.4</ele>
        <time>2019-12-22T09:37:27.000Z</time>
      </trkpt>
      <trkpt lat="43.84214" lon="3.8576">
        <ele>329.4</ele>
        <time>2019-12-22T09:37:32.000Z</time>
      </trkpt>
      <trkpt lat="43.84213" lon="3.85782">
        <ele>329.9</ele>
        <time>2019-12-22T09:37:49.000Z</time>
      </trkpt>
      <trkpt lat="43.8421" lon="3.85802">
        <ele>327.5</ele>
        <time>2019-12-22T09:38:03.000Z</time>
      </trkpt>
      <trkpt lat="43.84205" lon="3.85823">
        <ele>327.5</ele>
        <time>2019-12-22T09:38:19.000Z</time>
      </trkpt>
      <trkpt lat="43.84202" lon="3.85833">
        <ele>330.8</ele>
        <time>2019-12-22T09:38:26.000Z</time>
      </trkpt>
      <trkpt lat="43.84201" lon="3.85834">
        <ele>330.4</ele>
        <time>2019-12-22T09:38:27.000Z</time>
      </trkpt>
      <trkpt lat="43.84199" lon="3.8584">
        <ele>328</ele>
        <time>2019-12-22T09:38:32.000Z</time>
      </trkpt>
      <trkpt lat="43.84198" lon="3.8585">
        <ele>330.4</ele>
        <time>2019-12-22T09:38:40.000Z</time>
      </trkpt>
      <trkpt lat="43.84199" lon="3.85869">
        <ele>331.3</ele>
        <time>2019-12-22T09:38:55.000Z</time>
      </trkpt>
      <trkpt lat="43.84202" lon="3.85883">
        <ele>333.2</ele>
        <time>2019-12-22T09:39:07.000Z</time>
      </trkpt>
      <trkpt lat="43.84199" lon="3.85897">
        <ele>333.7</ele>
        <time>2019-12-22T09:39:19.000Z</time>
      </trkpt>
      <trkpt lat="43.84192" lon="3.85914">
        <ele>333.2</ele>
        <time>2019-12-22T09:39:33.000Z</time>
      </trkpt>
      <trkpt lat="43.84191" lon="3.85916">
        <ele>334.2</ele>
        <time>2019-12-22T09:39:35.000Z</time>
      </trkpt>
      <trkpt lat="43.84186" lon="3.85925">
        <ele>335.2</ele>
        <time>2019-12-22T09:39:44.000Z</time>
      </trkpt>
      <trkpt lat="43.84181" lon="3.8593">
        <ele>334.7</ele>
        <time>2019-12-22T09:39:49.000Z</time>
      </trkpt>
      <trkpt lat="43.8418" lon="3.85933">
        <ele>335.6</ele>
        <time>2019-12-22T09:39:51.000Z</time>
      </trkpt>
      <trkpt lat="43.84177" lon="3.85949">
        <ele>337.1</ele>
        <time>2019-12-22T09:40:02.000Z</time>
      </trkpt>
      <trkpt lat="43.84176" lon="3.85955">
        <ele>337.6</ele>
        <time>2019-12-22T09:40:06.000Z</time>
      </trkpt>
      <trkpt lat="43.84175" lon="3.85971">
        <ele>334.7</ele>
        <time>2019-12-22T09:40:18.000Z</time>
      </trkpt>
      <trkpt lat="43.84174" lon="3.85976">
        <ele>336.1</ele>
        <time>2019-12-22T09:40:23.000Z</time>
      </trkpt>
      <trkpt lat="43.84174" lon="3.85993">
        <ele>337.1</ele>
        <time>2019-12-22T09:40:37.000Z</time>
      </trkpt>
      <trkpt lat="43.8418" lon="3.8601">
        <ele>335.6</ele>
        <time>2019-12-22T09:40:51.000Z</time>
      </trkpt>
      <trkpt lat="43.84185" lon="3.8602">
        <ele>332.3</ele>
        <time>2019-12-22T09:41:01.000Z</time>
      </trkpt>
      <trkpt lat="43.84186" lon="3.86024">
        <ele>335.6</ele>
        <time>2019-12-22T09:41:04.000Z</time>
      </trkpt>
      <trkpt lat="43.84192" lon="3.86031">
        <ele>332.8</ele>
        <time>2019-12-22T09:41:11.000Z</time>
      </trkpt>
      <trkpt lat="43.84194" lon="3.86031">
        <ele>334.2</ele>
        <time>2019-12-22T09:41:13.000Z</time>
      </trkpt>
      <trkpt lat="43.84198" lon="3.86039">
        <ele>337.6</ele>
        <time>2019-12-22T09:41:19.000Z</time>
      </trkpt>
      <trkpt lat="43.84199" lon="3.8604">
        <ele>336.1</ele>
        <time>2019-12-22T09:41:20.000Z</time>
      </trkpt>
      <trkpt lat="43.84201" lon="3.86051">
        <ele>335.6</ele>
        <time>2019-12-22T09:41:27.000Z</time>
      </trkpt>
      <trkpt lat="43.84199" lon="3.86065">
        <ele>335.2</ele>
        <time>2019-12-22T09:41:40.000Z</time>
      </trkpt>
      <trkpt lat="43.84196" lon="3.8607">
        <ele>334.7</ele>
        <time>2019-12-22T09:41:46.000Z</time>
      </trkpt>
      <trkpt lat="43.84192" lon="3.86083">
        <ele>335.2</ele>
        <time>2019-12-22T09:41:56.000Z</time>
      </trkpt>
      <trkpt lat="43.84191" lon="3.86089">
        <ele>334.7</ele>
        <time>2019-12-22T09:42:00.000Z</time>
      </trkpt>
      <trkpt lat="43.8419" lon="3.86091">
        <ele>334.2</ele>
        <time>2019-12-22T09:42:02.000Z</time>
      </trkpt>
      <trkpt lat="43.84188" lon="3.86106">
        <ele>334.2</ele>
        <time>2019-12-22T09:42:14.000Z</time>
      </trkpt>
      <trkpt lat="43.8419" lon="3.86124">
        <ele>335.2</ele>
        <time>2019-12-22T09:42:28.000Z</time>
      </trkpt>
      <trkpt lat="43.84194" lon="3.86141">
        <ele>336.1</ele>
        <time>2019-12-22T09:42:42.000Z</time>
      </trkpt>
      <trkpt lat="43.84192" lon="3.86162">
        <ele>336.1</ele>
        <time>2019-12-22T09:42:58.000Z</time>
      </trkpt>
      <trkpt lat="43.84196" lon="3.86178">
        <ele>334.7</ele>
        <time>2019-12-22T09:43:12.000Z</time>
      </trkpt>
      <trkpt lat="43.84196" lon="3.86179">
        <ele>334.7</ele>
        <time>2019-12-22T09:43:13.000Z</time>
      </trkpt>
      <trkpt lat="43.84196" lon="3.86182">
        <ele>336.1</ele>
        <time>2019-12-22T09:43:16.000Z</time>
      </trkpt>
      <trkpt lat="43.84203" lon="3.86197">
        <ele>336.1</ele>
        <time>2019-12-22T09:43:30.000Z</time>
      </trkpt>
      <trkpt lat="43.84205" lon="3.86201">
        <ele>337.1</ele>
        <time>2019-12-22T09:43:34.000Z</time>
      </trkpt>
      <trkpt lat="43.84209" lon="3.86207">
        <ele>338</ele>
        <time>2019-12-22T09:43:41.000Z</time>
      </trkpt>
      <trkpt lat="43.84219" lon="3.86216">
        <ele>337.6</ele>
        <time>2019-12-22T09:43:55.000Z</time>
      </trkpt>
      <trkpt lat="43.84222" lon="3.86221">
        <ele>337.6</ele>
        <time>2019-12-22T09:44:01.000Z</time>
      </trkpt>
      <trkpt lat="43.84224" lon="3.86224">
        <ele>338</ele>
        <time>2019-12-22T09:44:04.000Z</time>
      </trkpt>
      <trkpt lat="43.84227" lon="3.86232">
        <ele>338.5</ele>
        <time>2019-12-22T09:44:11.000Z</time>
      </trkpt>
      <trkpt lat="43.84231" lon="3.86234">
        <ele>336.1</ele>
        <time>2019-12-22T09:44:15.000Z</time>
      </trkpt>
      <trkpt lat="43.84237" lon="3.86241">
        <ele>344.3</ele>
        <time>2019-12-22T09:44:22.000Z</time>
      </trkpt>
      <trkpt lat="43.84237" lon="3.86242">
        <ele>340.9</ele>
        <time>2019-12-22T09:44:23.000Z</time>
      </trkpt>
      <trkpt lat="43.84238" lon="3.86243">
        <ele>337.6</ele>
        <time>2019-12-22T09:44:24.000Z</time>
      </trkpt>
      <trkpt lat="43.84238" lon="3.86245">
        <ele>337.6</ele>
        <time>2019-12-22T09:44:25.000Z</time>
      </trkpt>
      <trkpt lat="43.84239" lon="3.86246">
        <ele>339</ele>
        <time>2019-12-22T09:44:26.000Z</time>
      </trkpt>
      <trkpt lat="43.84242" lon="3.86248">
        <ele>335.2</ele>
        <time>2019-12-22T09:44:29.000Z</time>
      </trkpt>
      <trkpt lat="43.84243" lon="3.86248">
        <ele>335.2</ele>
        <time>2019-12-22T09:44:30.000Z</time>
      </trkpt>
      <trkpt lat="43.84245" lon="3.86249">
        <ele>339</ele>
        <time>2019-12-22T09:44:33.000Z</time>
      </trkpt>
      <trkpt lat="43.84246" lon="3.86249">
        <ele>338</ele>
        <time>2019-12-22T09:44:34.000Z</time>
      </trkpt>
      <trkpt lat="43.84256" lon="3.86254">
        <ele>338</ele>
        <time>2019-12-22T09:44:48.000Z</time>
      </trkpt>
      <trkpt lat="43.84257" lon="3.86254">
        <ele>338</ele>
        <time>2019-12-22T09:44:49.000Z</time>
      </trkpt>
      <trkpt lat="43.84256" lon="3.86254">
        <ele>340</ele>
        <time>2019-12-22T09:45:00.000Z</time>
      </trkpt>
      <trkpt lat="43.84256" lon="3.86254">
        <ele>336.1</ele>
        <time>2019-12-22T09:45:02.000Z</time>
      </trkpt>
      <trkpt lat="43.84256" lon="3.86254">
        <ele>333.7</ele>
        <time>2019-12-22T09:45:09.000Z</time>
      </trkpt>
      <trkpt lat="43.84256" lon="3.86254">
        <ele>337.6</ele>
        <time>2019-12-22T09:45:11.000Z</time>
      </trkpt>
      <trkpt lat="43.84256" lon="3.86254">
        <ele>337.1</ele>
        <time>2019-12-22T09:45:12.000Z</time>
      </trkpt>
      <trkpt lat="43.84263" lon="3.86256">
        <ele>335.2</ele>
        <time>2019-12-22T09:45:27.000Z</time>
      </trkpt>
      <trkpt lat="43.84265" lon="3.86258">
        <ele>337.1</ele>
        <time>2019-12-22T09:45:30.000Z</time>
      </trkpt>
      <trkpt lat="43.84277" lon="3.86267">
        <ele>338</ele>
        <time>2019-12-22T09:45:46.000Z</time>
      </trkpt>
      <trkpt lat="43.84286" lon="3.86278">
        <ele>339</ele>
        <time>2019-12-22T09:45:58.000Z</time>
      </trkpt>
      <trkpt lat="43.84287" lon="3.86289">
        <ele>339</ele>
        <time>2019-12-22T09:46:06.000Z</time>
      </trkpt>
      <trkpt lat="43.84289" lon="3.86299">
        <ele>340</ele>
        <time>2019-12-22T09:46:14.000Z</time>
      </trkpt>
      <trkpt lat="43.84296" lon="3.86315">
        <ele>338</ele>
        <time>2019-12-22T09:46:29.000Z</time>
      </trkpt>
      <trkpt lat="43.84304" lon="3.86332">
        <ele>339.5</ele>
        <time>2019-12-22T09:46:43.000Z</time>
      </trkpt>
      <trkpt lat="43.84306" lon="3.86339">
        <ele>338</ele>
        <time>2019-12-22T09:46:49.000Z</time>
      </trkpt>
      <trkpt lat="43.84308" lon="3.86348">
        <ele>340.4</ele>
        <time>2019-12-22T09:46:56.000Z</time>
      </trkpt>
      <trkpt lat="43.84307" lon="3.86355">
        <ele>345.3</ele>
        <time>2019-12-22T09:47:01.000Z</time>
      </trkpt>
      <trkpt lat="43.84307" lon="3.86356">
        <ele>341.4</ele>
        <time>2019-12-22T09:47:02.000Z</time>
      </trkpt>
      <trkpt lat="43.84306" lon="3.86359">
        <ele>339.5</ele>
        <time>2019-12-22T09:47:04.000Z</time>
      </trkpt>
      <trkpt lat="43.84301" lon="3.86376">
        <ele>340.4</ele>
        <time>2019-12-22T09:47:18.000Z</time>
      </trkpt>
      <trkpt lat="43.843" lon="3.86379">
        <ele>339</ele>
        <time>2019-12-22T09:47:20.000Z</time>
      </trkpt>
      <trkpt lat="43.84298" lon="3.86387">
        <ele>341.9</ele>
        <time>2019-12-22T09:47:25.000Z</time>
      </trkpt>
      <trkpt lat="43.84295" lon="3.86395">
        <ele>340</ele>
        <time>2019-12-22T09:47:31.000Z</time>
      </trkpt>
      <trkpt lat="43.84293" lon="3.86401">
        <ele>342.4</ele>
        <time>2019-12-22T09:47:35.000Z</time>
      </trkpt>
      <trkpt lat="43.84288" lon="3.86419">
        <ele>342.4</ele>
        <time>2019-12-22T09:47:49.000Z</time>
      </trkpt>
      <trkpt lat="43.84281" lon="3.86438">
        <ele>341.9</ele>
        <time>2019-12-22T09:48:04.000Z</time>
      </trkpt>
      <trkpt lat="43.84274" lon="3.86459">
        <ele>341.9</ele>
        <time>2019-12-22T09:48:20.000Z</time>
      </trkpt>
      <trkpt lat="43.84267" lon="3.86477">
        <ele>342.4</ele>
        <time>2019-12-22T09:48:34.000Z</time>
      </trkpt>
      <trkpt lat="43.84266" lon="3.86479">
        <ele>345.7</ele>
        <time>2019-12-22T09:48:36.000Z</time>
      </trkpt>
      <trkpt lat="43.84266" lon="3.865">
        <ele>347.6</ele>
        <time>2019-12-22T09:48:51.000Z</time>
      </trkpt>
      <trkpt lat="43.84269" lon="3.86513">
        <ele>347.2</ele>
        <time>2019-12-22T09:49:01.000Z</time>
      </trkpt>
      <trkpt lat="43.84273" lon="3.86523">
        <ele>348.6</ele>
        <time>2019-12-22T09:49:09.000Z</time>
      </trkpt>
      <trkpt lat="43.84276" lon="3.86545">
        <ele>350.5</ele>
        <time>2019-12-22T09:49:26.000Z</time>
      </trkpt>
      <trkpt lat="43.84279" lon="3.86553">
        <ele>348.6</ele>
        <time>2019-12-22T09:49:33.000Z</time>
      </trkpt>
      <trkpt lat="43.84279" lon="3.86555">
        <ele>349.6</ele>
        <time>2019-12-22T09:49:35.000Z</time>
      </trkpt>
      <trkpt lat="43.84279" lon="3.86558">
        <ele>347.2</ele>
        <time>2019-12-22T09:49:37.000Z</time>
      </trkpt>
      <trkpt lat="43.84279" lon="3.86562">
        <ele>349.6</ele>
        <time>2019-12-22T09:49:40.000Z</time>
      </trkpt>
      <trkpt lat="43.8428" lon="3.86564">
        <ele>350.1</ele>
        <time>2019-12-22T09:49:42.000Z</time>
      </trkpt>
      <trkpt lat="43.84281" lon="3.86581">
        <ele>350.5</ele>
        <time>2019-12-22T09:49:57.000Z</time>
      </trkpt>
      <trkpt lat="43.8428" lon="3.8659">
        <ele>353.4</ele>
        <time>2019-12-22T09:50:05.000Z</time>
      </trkpt>
      <trkpt lat="43.84282" lon="3.86595">
        <ele>353.4</ele>
        <time>2019-12-22T09:50:09.000Z</time>
      </trkpt>
      <trkpt lat="43.84285" lon="3.86599">
        <ele>351</ele>
        <time>2019-12-22T09:50:13.000Z</time>
      </trkpt>
      <trkpt lat="43.84286" lon="3.86599">
        <ele>351</ele>
        <time>2019-12-22T09:50:14.000Z</time>
      </trkpt>
      <trkpt lat="43.84289" lon="3.86597">
        <ele>354.9</ele>
        <time>2019-12-22T09:50:17.000Z</time>
      </trkpt>
      <trkpt lat="43.8429" lon="3.86596">
        <ele>352.5</ele>
        <time>2019-12-22T09:50:18.000Z</time>
      </trkpt>
      <trkpt lat="43.84295" lon="3.86596">
        <ele>353.9</ele>
        <time>2019-12-22T09:50:24.000Z</time>
      </trkpt>
      <trkpt lat="43.84297" lon="3.86597">
        <ele>352.9</ele>
        <time>2019-12-22T09:50:26.000Z</time>
      </trkpt>
      <trkpt lat="43.84298" lon="3.86602">
        <ele>353.9</ele>
        <time>2019-12-22T09:50:30.000Z</time>
      </trkpt>
      <trkpt lat="43.84298" lon="3.86603">
        <ele>352.9</ele>
        <time>2019-12-22T09:50:31.000Z</time>
      </trkpt>
      <trkpt lat="43.84298" lon="3.86618">
        <ele>349.6</ele>
        <time>2019-12-22T09:50:44.000Z</time>
      </trkpt>
      <trkpt lat="43.84298" lon="3.86619">
        <ele>349.6</ele>
        <time>2019-12-22T09:50:45.000Z</time>
      </trkpt>
      <trkpt lat="43.84298" lon="3.86621">
        <ele>352.9</ele>
        <time>2019-12-22T09:50:47.000Z</time>
      </trkpt>
      <trkpt lat="43.843" lon="3.86626">
        <ele>349.6</ele>
        <time>2019-12-22T09:50:54.000Z</time>
      </trkpt>
      <trkpt lat="43.84301" lon="3.86628">
        <ele>345.7</ele>
        <time>2019-12-22T09:50:55.000Z</time>
      </trkpt>
      <trkpt lat="43.84301" lon="3.86628">
        <ele>347.2</ele>
        <time>2019-12-22T09:50:56.000Z</time>
      </trkpt>
      <trkpt lat="43.84302" lon="3.86629">
        <ele>351</ele>
        <time>2019-12-22T09:50:57.000Z</time>
      </trkpt>
      <trkpt lat="43.84305" lon="3.86631">
        <ele>355.3</ele>
        <time>2019-12-22T09:51:02.000Z</time>
      </trkpt>
      <trkpt lat="43.84306" lon="3.8663">
        <ele>354.4</ele>
        <time>2019-12-22T09:51:03.000Z</time>
      </trkpt>
      <trkpt lat="43.84314" lon="3.86629">
        <ele>355.8</ele>
        <time>2019-12-22T09:51:12.000Z</time>
      </trkpt>
      <trkpt lat="43.84317" lon="3.86627">
        <ele>356.3</ele>
        <time>2019-12-22T09:51:16.000Z</time>
      </trkpt>
      <trkpt lat="43.84322" lon="3.86622">
        <ele>354.9</ele>
        <time>2019-12-22T09:51:23.000Z</time>
      </trkpt>
      <trkpt lat="43.84328" lon="3.86622">
        <ele>354.9</ele>
        <time>2019-12-22T09:51:27.000Z</time>
      </trkpt>
      <trkpt lat="43.84331" lon="3.86621">
        <ele>358.7</ele>
        <time>2019-12-22T09:51:29.000Z</time>
      </trkpt>
      <trkpt lat="43.84333" lon="3.8662">
        <ele>356.8</ele>
        <time>2019-12-22T09:51:31.000Z</time>
      </trkpt>
      <trkpt lat="43.84336" lon="3.86618">
        <ele>356.8</ele>
        <time>2019-12-22T09:51:36.000Z</time>
      </trkpt>
      <trkpt lat="43.84343" lon="3.86612">
        <ele>356.8</ele>
        <time>2019-12-22T09:51:45.000Z</time>
      </trkpt>
      <trkpt lat="43.84349" lon="3.86608">
        <ele>356.8</ele>
        <time>2019-12-22T09:51:52.000Z</time>
      </trkpt>
      <trkpt lat="43.84357" lon="3.86607">
        <ele>358.2</ele>
        <time>2019-12-22T09:51:58.000Z</time>
      </trkpt>
      <trkpt lat="43.84361" lon="3.86605">
        <ele>358.7</ele>
        <time>2019-12-22T09:52:03.000Z</time>
      </trkpt>
      <trkpt lat="43.84363" lon="3.86605">
        <ele>359.7</ele>
        <time>2019-12-22T09:52:05.000Z</time>
      </trkpt>
      <trkpt lat="43.84371" lon="3.86604">
        <ele>359.2</ele>
        <time>2019-12-22T09:52:14.000Z</time>
      </trkpt>
      <trkpt lat="43.84376" lon="3.86603">
        <ele>360.1</ele>
        <time>2019-12-22T09:52:19.000Z</time>
      </trkpt>
      <trkpt lat="43.84378" lon="3.86604">
        <ele>358.7</ele>
        <time>2019-12-22T09:52:21.000Z</time>
      </trkpt>
      <trkpt lat="43.84385" lon="3.86601">
        <ele>358.7</ele>
        <time>2019-12-22T09:52:27.000Z</time>
      </trkpt>
      <trkpt lat="43.84388" lon="3.86602">
        <ele>357.3</ele>
        <time>2019-12-22T09:52:29.000Z</time>
      </trkpt>
      <trkpt lat="43.84401" lon="3.86601">
        <ele>357.8</ele>
        <time>2019-12-22T09:52:41.000Z</time>
      </trkpt>
      <trkpt lat="43.8441" lon="3.86601">
        <ele>357.8</ele>
        <time>2019-12-22T09:52:52.000Z</time>
      </trkpt>
      <trkpt lat="43.84403" lon="3.86606">
        <ele>360.6</ele>
        <time>2019-12-22T09:53:04.000Z</time>
      </trkpt>
      <trkpt lat="43.84401" lon="3.86611">
        <ele>364.5</ele>
        <time>2019-12-22T09:53:10.000Z</time>
      </trkpt>
      <trkpt lat="43.84401" lon="3.86614">
        <ele>365.4</ele>
        <time>2019-12-22T09:53:12.000Z</time>
      </trkpt>
      <trkpt lat="43.84402" lon="3.86618">
        <ele>366.4</ele>
        <time>2019-12-22T09:53:16.000Z</time>
      </trkpt>
      <trkpt lat="43.84402" lon="3.86626">
        <ele>366.4</ele>
        <time>2019-12-22T09:53:25.000Z</time>
      </trkpt>
      <trkpt lat="43.84392" lon="3.86628">
        <ele>366.9</ele>
        <time>2019-12-22T09:53:37.000Z</time>
      </trkpt>
      <trkpt lat="43.84382" lon="3.86636">
        <ele>365.4</ele>
        <time>2019-12-22T09:53:52.000Z</time>
      </trkpt>
      <trkpt lat="43.8438" lon="3.86637">
        <ele>368.3</ele>
        <time>2019-12-22T09:53:54.000Z</time>
      </trkpt>
      <trkpt lat="43.84378" lon="3.86638">
        <ele>369.8</ele>
        <time>2019-12-22T09:53:55.000Z</time>
      </trkpt>
      <trkpt lat="43.84371" lon="3.86641">
        <ele>371.7</ele>
        <time>2019-12-22T09:54:03.000Z</time>
      </trkpt>
      <trkpt lat="43.8437" lon="3.86643">
        <ele>369.3</ele>
        <time>2019-12-22T09:54:06.000Z</time>
      </trkpt>
      <trkpt lat="43.84364" lon="3.86648">
        <ele>370.7</ele>
        <time>2019-12-22T09:54:14.000Z</time>
      </trkpt>
      <trkpt lat="43.84353" lon="3.86658">
        <ele>372.6</ele>
        <time>2019-12-22T09:54:27.000Z</time>
      </trkpt>
      <trkpt lat="43.84342" lon="3.86664">
        <ele>372.2</ele>
        <time>2019-12-22T09:54:40.000Z</time>
      </trkpt>
      <trkpt lat="43.84337" lon="3.86669">
        <ele>376</ele>
        <time>2019-12-22T09:54:47.000Z</time>
      </trkpt>
      <trkpt lat="43.84337" lon="3.8667">
        <ele>375.5</ele>
        <time>2019-12-22T09:54:48.000Z</time>
      </trkpt>
      <trkpt lat="43.84335" lon="3.86672">
        <ele>374.1</ele>
        <time>2019-12-22T09:54:52.000Z</time>
      </trkpt>
      <trkpt lat="43.8433" lon="3.86682">
        <ele>376.5</ele>
        <time>2019-12-22T09:55:03.000Z</time>
      </trkpt>
      <trkpt lat="43.84329" lon="3.86684">
        <ele>373.1</ele>
        <time>2019-12-22T09:55:05.000Z</time>
      </trkpt>
      <trkpt lat="43.84327" lon="3.86686">
        <ele>376.5</ele>
        <time>2019-12-22T09:55:08.000Z</time>
      </trkpt>
      <trkpt lat="43.84325" lon="3.86689">
        <ele>374.6</ele>
        <time>2019-12-22T09:55:13.000Z</time>
      </trkpt>
      <trkpt lat="43.84322" lon="3.86692">
        <ele>375.5</ele>
        <time>2019-12-22T09:55:17.000Z</time>
      </trkpt>
      <trkpt lat="43.84317" lon="3.86699">
        <ele>379.4</ele>
        <time>2019-12-22T09:55:25.000Z</time>
      </trkpt>
      <trkpt lat="43.84309" lon="3.86708">
        <ele>378.4</ele>
        <time>2019-12-22T09:55:37.000Z</time>
      </trkpt>
      <trkpt lat="43.84306" lon="3.86712">
        <ele>380.3</ele>
        <time>2019-12-22T09:55:41.000Z</time>
      </trkpt>
      <trkpt lat="43.84298" lon="3.86723">
        <ele>381.8</ele>
        <time>2019-12-22T09:55:55.000Z</time>
      </trkpt>
      <trkpt lat="43.84296" lon="3.86728">
        <ele>378.4</ele>
        <time>2019-12-22T09:56:00.000Z</time>
      </trkpt>
      <trkpt lat="43.84295" lon="3.8673">
        <ele>383.7</ele>
        <time>2019-12-22T09:56:02.000Z</time>
      </trkpt>
      <trkpt lat="43.84292" lon="3.8674">
        <ele>382.7</ele>
        <time>2019-12-22T09:56:11.000Z</time>
      </trkpt>
      <trkpt lat="43.84292" lon="3.86743">
        <ele>382.7</ele>
        <time>2019-12-22T09:56:13.000Z</time>
      </trkpt>
      <trkpt lat="43.84291" lon="3.86747">
        <ele>386.1</ele>
        <time>2019-12-22T09:56:16.000Z</time>
      </trkpt>
      <trkpt lat="43.84289" lon="3.86751">
        <ele>384.7</ele>
        <time>2019-12-22T09:56:19.000Z</time>
      </trkpt>
      <trkpt lat="43.84289" lon="3.86754">
        <ele>385.1</ele>
        <time>2019-12-22T09:56:21.000Z</time>
      </trkpt>
      <trkpt lat="43.84288" lon="3.86757">
        <ele>386.1</ele>
        <time>2019-12-22T09:56:23.000Z</time>
      </trkpt>
      <trkpt lat="43.84285" lon="3.86771">
        <ele>387.1</ele>
        <time>2019-12-22T09:56:36.000Z</time>
      </trkpt>
      <trkpt lat="43.84283" lon="3.86778">
        <ele>384.2</ele>
        <time>2019-12-22T09:56:42.000Z</time>
      </trkpt>
      <trkpt lat="43.84281" lon="3.8678">
        <ele>387.1</ele>
        <time>2019-12-22T09:56:44.000Z</time>
      </trkpt>
      <trkpt lat="43.8428" lon="3.86783">
        <ele>386.1</ele>
        <time>2019-12-22T09:56:47.000Z</time>
      </trkpt>
      <trkpt lat="43.84277" lon="3.86786">
        <ele>385.1</ele>
        <time>2019-12-22T09:56:52.000Z</time>
      </trkpt>
      <trkpt lat="43.84274" lon="3.86789">
        <ele>388</ele>
        <time>2019-12-22T09:56:57.000Z</time>
      </trkpt>
      <trkpt lat="43.8427" lon="3.86793">
        <ele>386.6</ele>
        <time>2019-12-22T09:57:02.000Z</time>
      </trkpt>
      <trkpt lat="43.84268" lon="3.86796">
        <ele>385.1</ele>
        <time>2019-12-22T09:57:04.000Z</time>
      </trkpt>
      <trkpt lat="43.84267" lon="3.86799">
        <ele>387.5</ele>
        <time>2019-12-22T09:57:07.000Z</time>
      </trkpt>
      <trkpt lat="43.84261" lon="3.86818">
        <ele>389.5</ele>
        <time>2019-12-22T09:57:22.000Z</time>
      </trkpt>
      <trkpt lat="43.84256" lon="3.86827">
        <ele>387.1</ele>
        <time>2019-12-22T09:57:31.000Z</time>
      </trkpt>
      <trkpt lat="43.84254" lon="3.86829">
        <ele>390.4</ele>
        <time>2019-12-22T09:57:33.000Z</time>
      </trkpt>
      <trkpt lat="43.84254" lon="3.86831">
        <ele>389.5</ele>
        <time>2019-12-22T09:57:34.000Z</time>
      </trkpt>
      <trkpt lat="43.84241" lon="3.86842">
        <ele>389.5</ele>
        <time>2019-12-22T09:57:49.000Z</time>
      </trkpt>
      <trkpt lat="43.84233" lon="3.86854">
        <ele>393.3</ele>
        <time>2019-12-22T09:58:02.000Z</time>
      </trkpt>
      <trkpt lat="43.84233" lon="3.86855">
        <ele>393.3</ele>
        <time>2019-12-22T09:58:03.000Z</time>
      </trkpt>
      <trkpt lat="43.84229" lon="3.86857">
        <ele>392.8</ele>
        <time>2019-12-22T09:58:07.000Z</time>
      </trkpt>
      <trkpt lat="43.84225" lon="3.8686">
        <ele>391.4</ele>
        <time>2019-12-22T09:58:11.000Z</time>
      </trkpt>
      <trkpt lat="43.84223" lon="3.86861">
        <ele>393.3</ele>
        <time>2019-12-22T09:58:13.000Z</time>
      </trkpt>
      <trkpt lat="43.84217" lon="3.86867">
        <ele>390.9</ele>
        <time>2019-12-22T09:58:20.000Z</time>
      </trkpt>
      <trkpt lat="43.84207" lon="3.86877">
        <ele>392.4</ele>
        <time>2019-12-22T09:58:33.000Z</time>
      </trkpt>
      <trkpt lat="43.84202" lon="3.8688">
        <ele>390.9</ele>
        <time>2019-12-22T09:58:38.000Z</time>
      </trkpt>
      <trkpt lat="43.84201" lon="3.86882">
        <ele>393.8</ele>
        <time>2019-12-22T09:58:40.000Z</time>
      </trkpt>
      <trkpt lat="43.84196" lon="3.86887">
        <ele>393.3</ele>
        <time>2019-12-22T09:58:46.000Z</time>
      </trkpt>
      <trkpt lat="43.84194" lon="3.86889">
        <ele>390</ele>
        <time>2019-12-22T09:58:48.000Z</time>
      </trkpt>
      <trkpt lat="43.84192" lon="3.86891">
        <ele>394.8</ele>
        <time>2019-12-22T09:58:50.000Z</time>
      </trkpt>
      <trkpt lat="43.84184" lon="3.86898">
        <ele>395.2</ele>
        <time>2019-12-22T09:59:03.000Z</time>
      </trkpt>
      <trkpt lat="43.84177" lon="3.86908">
        <ele>391.9</ele>
        <time>2019-12-22T09:59:12.000Z</time>
      </trkpt>
      <trkpt lat="43.84176" lon="3.86909">
        <ele>397.2</ele>
        <time>2019-12-22T09:59:14.000Z</time>
      </trkpt>
      <trkpt lat="43.84172" lon="3.86912">
        <ele>396.7</ele>
        <time>2019-12-22T09:59:18.000Z</time>
      </trkpt>
      <trkpt lat="43.84169" lon="3.86915">
        <ele>392.4</ele>
        <time>2019-12-22T09:59:21.000Z</time>
      </trkpt>
      <trkpt lat="43.84168" lon="3.86917">
        <ele>398.6</ele>
        <time>2019-12-22T09:59:23.000Z</time>
      </trkpt>
      <trkpt lat="43.84167" lon="3.86918">
        <ele>397.6</ele>
        <time>2019-12-22T09:59:24.000Z</time>
      </trkpt>
      <trkpt lat="43.84164" lon="3.86922">
        <ele>396.7</ele>
        <time>2019-12-22T09:59:29.000Z</time>
      </trkpt>
      <trkpt lat="43.84162" lon="3.86925">
        <ele>401.5</ele>
        <time>2019-12-22T09:59:32.000Z</time>
      </trkpt>
      <trkpt lat="43.84161" lon="3.86925">
        <ele>397.6</ele>
        <time>2019-12-22T09:59:33.000Z</time>
      </trkpt>
      <trkpt lat="43.84155" lon="3.86931">
        <ele>401</ele>
        <time>2019-12-22T09:59:41.000Z</time>
      </trkpt>
      <trkpt lat="43.84155" lon="3.86932">
        <ele>401</ele>
        <time>2019-12-22T09:59:42.000Z</time>
      </trkpt>
      <trkpt lat="43.84152" lon="3.86935">
        <ele>399.6</ele>
        <time>2019-12-22T09:59:45.000Z</time>
      </trkpt>
      <trkpt lat="43.84151" lon="3.86936">
        <ele>400</ele>
        <time>2019-12-22T09:59:47.000Z</time>
      </trkpt>
      <trkpt lat="43.84146" lon="3.86938">
        <ele>398.1</ele>
        <time>2019-12-22T09:59:52.000Z</time>
      </trkpt>
      <trkpt lat="43.84139" lon="3.8694">
        <ele>403.4</ele>
        <time>2019-12-22T10:00:02.000Z</time>
      </trkpt>
      <trkpt lat="43.84139" lon="3.8694">
        <ele>399.1</ele>
        <time>2019-12-22T10:00:03.000Z</time>
      </trkpt>
      <trkpt lat="43.84139" lon="3.8694">
        <ele>406.3</ele>
        <time>2019-12-22T10:00:04.000Z</time>
      </trkpt>
      <trkpt lat="43.84138" lon="3.8694">
        <ele>405.3</ele>
        <time>2019-12-22T10:00:05.000Z</time>
      </trkpt>
      <trkpt lat="43.84139" lon="3.8694">
        <ele>401.5</ele>
        <time>2019-12-22T10:00:07.000Z</time>
      </trkpt>
      <trkpt lat="43.84138" lon="3.86941">
        <ele>400.5</ele>
        <time>2019-12-22T10:00:09.000Z</time>
      </trkpt>
      <trkpt lat="43.84134" lon="3.86946">
        <ele>403.9</ele>
        <time>2019-12-22T10:00:19.000Z</time>
      </trkpt>
      <trkpt lat="43.84133" lon="3.86946">
        <ele>402.9</ele>
        <time>2019-12-22T10:00:20.000Z</time>
      </trkpt>
      <trkpt lat="43.84131" lon="3.86949">
        <ele>401.5</ele>
        <time>2019-12-22T10:00:23.000Z</time>
      </trkpt>
      <trkpt lat="43.84124" lon="3.86962">
        <ele>402</ele>
        <time>2019-12-22T10:00:37.000Z</time>
      </trkpt>
      <trkpt lat="43.84121" lon="3.86966">
        <ele>403.4</ele>
        <time>2019-12-22T10:00:41.000Z</time>
      </trkpt>
      <trkpt lat="43.84119" lon="3.8697">
        <ele>401</ele>
        <time>2019-12-22T10:00:46.000Z</time>
      </trkpt>
      <trkpt lat="43.84119" lon="3.8697">
        <ele>401.5</ele>
        <time>2019-12-22T10:00:47.000Z</time>
      </trkpt>
      <trkpt lat="43.84118" lon="3.86971">
        <ele>405.3</ele>
        <time>2019-12-22T10:00:48.000Z</time>
      </trkpt>
      <trkpt lat="43.84118" lon="3.86972">
        <ele>405.3</ele>
        <time>2019-12-22T10:00:49.000Z</time>
      </trkpt>
      <trkpt lat="43.84118" lon="3.86973">
        <ele>400.5</ele>
        <time>2019-12-22T10:00:50.000Z</time>
      </trkpt>
      <trkpt lat="43.84112" lon="3.86983">
        <ele>401</ele>
        <time>2019-12-22T10:00:59.000Z</time>
      </trkpt>
      <trkpt lat="43.84106" lon="3.86994">
        <ele>402</ele>
        <time>2019-12-22T10:01:08.000Z</time>
      </trkpt>
      <trkpt lat="43.84101" lon="3.87003">
        <ele>402.9</ele>
        <time>2019-12-22T10:01:18.000Z</time>
      </trkpt>
      <trkpt lat="43.84098" lon="3.87008">
        <ele>404.4</ele>
        <time>2019-12-22T10:01:24.000Z</time>
      </trkpt>
      <trkpt lat="43.84096" lon="3.87009">
        <ele>403.4</ele>
        <time>2019-12-22T10:01:26.000Z</time>
      </trkpt>
      <trkpt lat="43.84092" lon="3.87015">
        <ele>402.9</ele>
        <time>2019-12-22T10:01:31.000Z</time>
      </trkpt>
      <trkpt lat="43.8409" lon="3.87022">
        <ele>405.3</ele>
        <time>2019-12-22T10:01:36.000Z</time>
      </trkpt>
      <trkpt lat="43.84087" lon="3.87029">
        <ele>405.3</ele>
        <time>2019-12-22T10:01:43.000Z</time>
      </trkpt>
      <trkpt lat="43.84083" lon="3.87036">
        <ele>402.5</ele>
        <time>2019-12-22T10:01:50.000Z</time>
      </trkpt>
      <trkpt lat="43.84079" lon="3.87048">
        <ele>403.4</ele>
        <time>2019-12-22T10:01:59.000Z</time>
      </trkpt>
      <trkpt lat="43.84078" lon="3.87055">
        <ele>402.5</ele>
        <time>2019-12-22T10:02:04.000Z</time>
      </trkpt>
      <trkpt lat="43.84077" lon="3.87057">
        <ele>405.3</ele>
        <time>2019-12-22T10:02:05.000Z</time>
      </trkpt>
      <trkpt lat="43.84077" lon="3.87058">
        <ele>404.4</ele>
        <time>2019-12-22T10:02:06.000Z</time>
      </trkpt>
      <trkpt lat="43.84075" lon="3.87067">
        <ele>405.8</ele>
        <time>2019-12-22T10:02:13.000Z</time>
      </trkpt>
      <trkpt lat="43.84074" lon="3.87077">
        <ele>402.5</ele>
        <time>2019-12-22T10:02:20.000Z</time>
      </trkpt>
      <trkpt lat="43.84074" lon="3.87087">
        <ele>404.4</ele>
        <time>2019-12-22T10:02:27.000Z</time>
      </trkpt>
      <trkpt lat="43.84073" lon="3.87104">
        <ele>402.9</ele>
        <time>2019-12-22T10:02:41.000Z</time>
      </trkpt>
      <trkpt lat="43.84073" lon="3.87108">
        <ele>402</ele>
        <time>2019-12-22T10:02:43.000Z</time>
      </trkpt>
      <trkpt lat="43.84073" lon="3.87109">
        <ele>404.9</ele>
        <time>2019-12-22T10:02:44.000Z</time>
      </trkpt>
      <trkpt lat="43.84073" lon="3.8711">
        <ele>406.3</ele>
        <time>2019-12-22T10:02:45.000Z</time>
      </trkpt>
      <trkpt lat="43.84072" lon="3.87114">
        <ele>402.5</ele>
        <time>2019-12-22T10:02:48.000Z</time>
      </trkpt>
      <trkpt lat="43.84073" lon="3.87117">
        <ele>404.9</ele>
        <time>2019-12-22T10:02:50.000Z</time>
      </trkpt>
      <trkpt lat="43.84073" lon="3.87122">
        <ele>404.9</ele>
        <time>2019-12-22T10:02:54.000Z</time>
      </trkpt>
      <trkpt lat="43.84074" lon="3.87126">
        <ele>401</ele>
        <time>2019-12-22T10:02:57.000Z</time>
      </trkpt>
      <trkpt lat="43.84074" lon="3.87127">
        <ele>405.8</ele>
        <time>2019-12-22T10:02:58.000Z</time>
      </trkpt>
      <trkpt lat="43.84074" lon="3.87133">
        <ele>407.7</ele>
        <time>2019-12-22T10:03:03.000Z</time>
      </trkpt>
      <trkpt lat="43.84074" lon="3.87138">
        <ele>408.2</ele>
        <time>2019-12-22T10:03:07.000Z</time>
      </trkpt>
      <trkpt lat="43.84073" lon="3.87144">
        <ele>409.2</ele>
        <time>2019-12-22T10:03:11.000Z</time>
      </trkpt>
      <trkpt lat="43.84073" lon="3.87145">
        <ele>409.7</ele>
        <time>2019-12-22T10:03:12.000Z</time>
      </trkpt>
      <trkpt lat="43.84073" lon="3.87147">
        <ele>413</ele>
        <time>2019-12-22T10:03:13.000Z</time>
      </trkpt>
      <trkpt lat="43.84073" lon="3.8715">
        <ele>407.7</ele>
        <time>2019-12-22T10:03:16.000Z</time>
      </trkpt>
      <trkpt lat="43.84065" lon="3.87156">
        <ele>406.8</ele>
        <time>2019-12-22T10:03:26.000Z</time>
      </trkpt>
      <trkpt lat="43.84063" lon="3.8716">
        <ele>409.2</ele>
        <time>2019-12-22T10:03:31.000Z</time>
      </trkpt>
      <trkpt lat="43.84062" lon="3.87165">
        <ele>405.3</ele>
        <time>2019-12-22T10:03:35.000Z</time>
      </trkpt>
      <trkpt lat="43.84062" lon="3.87165">
        <ele>408.7</ele>
        <time>2019-12-22T10:03:36.000Z</time>
      </trkpt>
      <trkpt lat="43.84064" lon="3.87177">
        <ele>414</ele>
        <time>2019-12-22T10:03:47.000Z</time>
      </trkpt>
      <trkpt lat="43.84064" lon="3.87178">
        <ele>410.1</ele>
        <time>2019-12-22T10:03:48.000Z</time>
      </trkpt>
      <trkpt lat="43.84066" lon="3.8718">
        <ele>409.7</ele>
        <time>2019-12-22T10:03:50.000Z</time>
      </trkpt>
      <trkpt lat="43.84067" lon="3.87182">
        <ele>408.2</ele>
        <time>2019-12-22T10:03:52.000Z</time>
      </trkpt>
      <trkpt lat="43.84071" lon="3.87191">
        <ele>411.6</ele>
        <time>2019-12-22T10:04:03.000Z</time>
      </trkpt>
      <trkpt lat="43.84073" lon="3.87196">
        <ele>407.3</ele>
        <time>2019-12-22T10:04:08.000Z</time>
      </trkpt>
      <trkpt lat="43.84073" lon="3.87198">
        <ele>413</ele>
        <time>2019-12-22T10:04:09.000Z</time>
      </trkpt>
      <trkpt lat="43.84073" lon="3.87199">
        <ele>409.2</ele>
        <time>2019-12-22T10:04:10.000Z</time>
      </trkpt>
      <trkpt lat="43.84073" lon="3.872">
        <ele>412.5</ele>
        <time>2019-12-22T10:04:11.000Z</time>
      </trkpt>
      <trkpt lat="43.84074" lon="3.87203">
        <ele>408.2</ele>
        <time>2019-12-22T10:04:14.000Z</time>
      </trkpt>
      <trkpt lat="43.84074" lon="3.87204">
        <ele>410.6</ele>
        <time>2019-12-22T10:04:15.000Z</time>
      </trkpt>
      <trkpt lat="43.84074" lon="3.87205">
        <ele>406.8</ele>
        <time>2019-12-22T10:04:16.000Z</time>
      </trkpt>
      <trkpt lat="43.84074" lon="3.87206">
        <ele>410.6</ele>
        <time>2019-12-22T10:04:17.000Z</time>
      </trkpt>
      <trkpt lat="43.84074" lon="3.87206">
        <ele>416.9</ele>
        <time>2019-12-22T10:04:18.000Z</time>
      </trkpt>
      <trkpt lat="43.84074" lon="3.87207">
        <ele>414</ele>
        <time>2019-12-22T10:04:20.000Z</time>
      </trkpt>
      <trkpt lat="43.84075" lon="3.87207">
        <ele>414</ele>
        <time>2019-12-22T10:04:21.000Z</time>
      </trkpt>
      <trkpt lat="43.84073" lon="3.8721">
        <ele>410.6</ele>
        <time>2019-12-22T10:04:28.000Z</time>
      </trkpt>
      <trkpt lat="43.84072" lon="3.87211">
        <ele>412.5</ele>
        <time>2019-12-22T10:04:29.000Z</time>
      </trkpt>
      <trkpt lat="43.84072" lon="3.87211">
        <ele>416.4</ele>
        <time>2019-12-22T10:04:30.000Z</time>
      </trkpt>
      <trkpt lat="43.84072" lon="3.87212">
        <ele>416.4</ele>
        <time>2019-12-22T10:04:31.000Z</time>
      </trkpt>
      <trkpt lat="43.84072" lon="3.87214">
        <ele>412.1</ele>
        <time>2019-12-22T10:04:34.000Z</time>
      </trkpt>
      <trkpt lat="43.84073" lon="3.87215">
        <ele>413.5</ele>
        <time>2019-12-22T10:04:38.000Z</time>
      </trkpt>
      <trkpt lat="43.84073" lon="3.87215">
        <ele>412.1</ele>
        <time>2019-12-22T10:04:41.000Z</time>
      </trkpt>
      <trkpt lat="43.84073" lon="3.87215">
        <ele>411.6</ele>
        <time>2019-12-22T10:04:46.000Z</time>
      </trkpt>
      <trkpt lat="43.84074" lon="3.87216">
        <ele>412.1</ele>
        <time>2019-12-22T10:04:53.000Z</time>
      </trkpt>
      <trkpt lat="43.84075" lon="3.87217">
        <ele>408.2</ele>
        <time>2019-12-22T10:05:03.000Z</time>
      </trkpt>
      <trkpt lat="43.84076" lon="3.87217">
        <ele>415</ele>
        <time>2019-12-22T10:05:11.000Z</time>
      </trkpt>
      <trkpt lat="43.84077" lon="3.87217">
        <ele>410.1</ele>
        <time>2019-12-22T10:05:15.000Z</time>
      </trkpt>
      <trkpt lat="43.84078" lon="3.87217">
        <ele>410.6</ele>
        <time>2019-12-22T10:05:16.000Z</time>
      </trkpt>
      <trkpt lat="43.84079" lon="3.87217">
        <ele>411.6</ele>
        <time>2019-12-22T10:05:22.000Z</time>
      </trkpt>
      <trkpt lat="43.84078" lon="3.87214">
        <ele>410.1</ele>
        <time>2019-12-22T10:05:28.000Z</time>
      </trkpt>
      <trkpt lat="43.84074" lon="3.87209">
        <ele>413.5</ele>
        <time>2019-12-22T10:05:38.000Z</time>
      </trkpt>
      <trkpt lat="43.84074" lon="3.87208">
        <ele>412.5</ele>
        <time>2019-12-22T10:05:43.000Z</time>
      </trkpt>
      <trkpt lat="43.84074" lon="3.87209">
        <ele>410.6</ele>
        <time>2019-12-22T10:05:47.000Z</time>
      </trkpt>
      <trkpt lat="43.84077" lon="3.87208">
        <ele>405.8</ele>
        <time>2019-12-22T10:05:52.000Z</time>
      </trkpt>
      <trkpt lat="43.84078" lon="3.87208">
        <ele>411.6</ele>
        <time>2019-12-22T10:05:53.000Z</time>
      </trkpt>
      <trkpt lat="43.84078" lon="3.87207">
        <ele>411.6</ele>
        <time>2019-12-22T10:05:54.000Z</time>
      </trkpt>
      <trkpt lat="43.84079" lon="3.87206">
        <ele>406.8</ele>
        <time>2019-12-22T10:05:56.000Z</time>
      </trkpt>
      <trkpt lat="43.8408" lon="3.87204">
        <ele>406.3</ele>
        <time>2019-12-22T10:05:58.000Z</time>
      </trkpt>
      <trkpt lat="43.84081" lon="3.87204">
        <ele>408.2</ele>
        <time>2019-12-22T10:06:00.000Z</time>
      </trkpt>
      <trkpt lat="43.84082" lon="3.87204">
        <ele>409.2</ele>
        <time>2019-12-22T10:06:01.000Z</time>
      </trkpt>
      <trkpt lat="43.84087" lon="3.87207">
        <ele>404.9</ele>
        <time>2019-12-22T10:06:07.000Z</time>
      </trkpt>
      <trkpt lat="43.84088" lon="3.87206">
        <ele>404.9</ele>
        <time>2019-12-22T10:06:08.000Z</time>
      </trkpt>
      <trkpt lat="43.8409" lon="3.87206">
        <ele>408.2</ele>
        <time>2019-12-22T10:06:11.000Z</time>
      </trkpt>
      <trkpt lat="43.84093" lon="3.87206">
        <ele>408.2</ele>
        <time>2019-12-22T10:06:14.000Z</time>
      </trkpt>
      <trkpt lat="43.84097" lon="3.87205">
        <ele>410.6</ele>
        <time>2019-12-22T10:06:18.000Z</time>
      </trkpt>
      <trkpt lat="43.84098" lon="3.87205">
        <ele>403.9</ele>
        <time>2019-12-22T10:06:19.000Z</time>
      </trkpt>
      <trkpt lat="43.841" lon="3.87204">
        <ele>408.2</ele>
        <time>2019-12-22T10:06:20.000Z</time>
      </trkpt>
      <trkpt lat="43.84103" lon="3.87202">
        <ele>410.1</ele>
        <time>2019-12-22T10:06:23.000Z</time>
      </trkpt>
      <trkpt lat="43.84106" lon="3.872">
        <ele>407.7</ele>
        <time>2019-12-22T10:06:25.000Z</time>
      </trkpt>
      <trkpt lat="43.84107" lon="3.87199">
        <ele>408.7</ele>
        <time>2019-12-22T10:06:26.000Z</time>
      </trkpt>
      <trkpt lat="43.8411" lon="3.87192">
        <ele>411.6</ele>
        <time>2019-12-22T10:06:30.000Z</time>
      </trkpt>
      <trkpt lat="43.84113" lon="3.87186">
        <ele>408.2</ele>
        <time>2019-12-22T10:06:33.000Z</time>
      </trkpt>
      <trkpt lat="43.84115" lon="3.87183">
        <ele>406.8</ele>
        <time>2019-12-22T10:06:35.000Z</time>
      </trkpt>
      <trkpt lat="43.84116" lon="3.87182">
        <ele>410.6</ele>
        <time>2019-12-22T10:06:36.000Z</time>
      </trkpt>
      <trkpt lat="43.84117" lon="3.87181">
        <ele>409.2</ele>
        <time>2019-12-22T10:06:37.000Z</time>
      </trkpt>
      <trkpt lat="43.84121" lon="3.8718">
        <ele>404.4</ele>
        <time>2019-12-22T10:06:43.000Z</time>
      </trkpt>
      <trkpt lat="43.84122" lon="3.8718">
        <ele>404.4</ele>
        <time>2019-12-22T10:06:44.000Z</time>
      </trkpt>
      <trkpt lat="43.84126" lon="3.87174">
        <ele>404.4</ele>
        <time>2019-12-22T10:06:49.000Z</time>
      </trkpt>
      <trkpt lat="43.84133" lon="3.8717">
        <ele>400</ele>
        <time>2019-12-22T10:06:57.000Z</time>
      </trkpt>
      <trkpt lat="43.84134" lon="3.87167">
        <ele>405.3</ele>
        <time>2019-12-22T10:06:59.000Z</time>
      </trkpt>
      <trkpt lat="43.84145" lon="3.8716">
        <ele>400.5</ele>
        <time>2019-12-22T10:07:13.000Z</time>
      </trkpt>
      <trkpt lat="43.84146" lon="3.8716">
        <ele>404.9</ele>
        <time>2019-12-22T10:07:14.000Z</time>
      </trkpt>
      <trkpt lat="43.84148" lon="3.87159">
        <ele>399.1</ele>
        <time>2019-12-22T10:07:17.000Z</time>
      </trkpt>
      <trkpt lat="43.84149" lon="3.87159">
        <ele>405.8</ele>
        <time>2019-12-22T10:07:18.000Z</time>
      </trkpt>
      <trkpt lat="43.84152" lon="3.87156">
        <ele>402</ele>
        <time>2019-12-22T10:07:21.000Z</time>
      </trkpt>
      <trkpt lat="43.84154" lon="3.87155">
        <ele>404.9</ele>
        <time>2019-12-22T10:07:24.000Z</time>
      </trkpt>
      <trkpt lat="43.84155" lon="3.87156">
        <ele>404.9</ele>
        <time>2019-12-22T10:07:25.000Z</time>
      </trkpt>
      <trkpt lat="43.84157" lon="3.87156">
        <ele>401</ele>
        <time>2019-12-22T10:07:28.000Z</time>
      </trkpt>
      <trkpt lat="43.84167" lon="3.87151">
        <ele>400</ele>
        <time>2019-12-22T10:07:41.000Z</time>
      </trkpt>
      <trkpt lat="43.84174" lon="3.8715">
        <ele>399.1</ele>
        <time>2019-12-22T10:07:48.000Z</time>
      </trkpt>
      <trkpt lat="43.84177" lon="3.8715">
        <ele>395.2</ele>
        <time>2019-12-22T10:07:51.000Z</time>
      </trkpt>
      <trkpt lat="43.84178" lon="3.87147">
        <ele>391.9</ele>
        <time>2019-12-22T10:07:53.000Z</time>
      </trkpt>
      <trkpt lat="43.84178" lon="3.87146">
        <ele>393.8</ele>
        <time>2019-12-22T10:07:54.000Z</time>
      </trkpt>
      <trkpt lat="43.8418" lon="3.87137">
        <ele>397.6</ele>
        <time>2019-12-22T10:08:01.000Z</time>
      </trkpt>
      <trkpt lat="43.84181" lon="3.87136">
        <ele>394.8</ele>
        <time>2019-12-22T10:08:03.000Z</time>
      </trkpt>
      <trkpt lat="43.84182" lon="3.87134">
        <ele>395.7</ele>
        <time>2019-12-22T10:08:04.000Z</time>
      </trkpt>
      <trkpt lat="43.84185" lon="3.87133">
        <ele>390.4</ele>
        <time>2019-12-22T10:08:09.000Z</time>
      </trkpt>
      <trkpt lat="43.84186" lon="3.87134">
        <ele>394.3</ele>
        <time>2019-12-22T10:08:10.000Z</time>
      </trkpt>
      <trkpt lat="43.84188" lon="3.87138">
        <ele>398.6</ele>
        <time>2019-12-22T10:08:14.000Z</time>
      </trkpt>
      <trkpt lat="43.84189" lon="3.87139">
        <ele>396.7</ele>
        <time>2019-12-22T10:08:15.000Z</time>
      </trkpt>
      <trkpt lat="43.84192" lon="3.87134">
        <ele>396.7</ele>
        <time>2019-12-22T10:08:21.000Z</time>
      </trkpt>
      <trkpt lat="43.84195" lon="3.87133">
        <ele>398.1</ele>
        <time>2019-12-22T10:08:26.000Z</time>
      </trkpt>
      <trkpt lat="43.84196" lon="3.87133">
        <ele>394.8</ele>
        <time>2019-12-22T10:08:27.000Z</time>
      </trkpt>
      <trkpt lat="43.84197" lon="3.87132">
        <ele>398.1</ele>
        <time>2019-12-22T10:08:29.000Z</time>
      </trkpt>
      <trkpt lat="43.84198" lon="3.87131">
        <ele>397.6</ele>
        <time>2019-12-22T10:08:30.000Z</time>
      </trkpt>
      <trkpt lat="43.84199" lon="3.8713">
        <ele>394.3</ele>
        <time>2019-12-22T10:08:32.000Z</time>
      </trkpt>
      <trkpt lat="43.84199" lon="3.87129">
        <ele>394.8</ele>
        <time>2019-12-22T10:08:33.000Z</time>
      </trkpt>
      <trkpt lat="43.84203" lon="3.87129">
        <ele>400</ele>
        <time>2019-12-22T10:08:37.000Z</time>
      </trkpt>
      <trkpt lat="43.84204" lon="3.87128">
        <ele>394.3</ele>
        <time>2019-12-22T10:08:38.000Z</time>
      </trkpt>
      <trkpt lat="43.84207" lon="3.87127">
        <ele>395.7</ele>
        <time>2019-12-22T10:08:42.000Z</time>
      </trkpt>
      <trkpt lat="43.8421" lon="3.87124">
        <ele>390.4</ele>
        <time>2019-12-22T10:08:46.000Z</time>
      </trkpt>
      <trkpt lat="43.84211" lon="3.87123">
        <ele>395.2</ele>
        <time>2019-12-22T10:08:48.000Z</time>
      </trkpt>
      <trkpt lat="43.84212" lon="3.87122">
        <ele>393.8</ele>
        <time>2019-12-22T10:08:49.000Z</time>
      </trkpt>
      <trkpt lat="43.84214" lon="3.8712">
        <ele>392.4</ele>
        <time>2019-12-22T10:08:51.000Z</time>
      </trkpt>
      <trkpt lat="43.84223" lon="3.87113">
        <ele>390</ele>
        <time>2019-12-22T10:09:05.000Z</time>
      </trkpt>
      <trkpt lat="43.84229" lon="3.87104">
        <ele>386.1</ele>
        <time>2019-12-22T10:09:19.000Z</time>
      </trkpt>
      <trkpt lat="43.84228" lon="3.87099">
        <ele>390.9</ele>
        <time>2019-12-22T10:09:28.000Z</time>
      </trkpt>
      <trkpt lat="43.84228" lon="3.87101">
        <ele>387.1</ele>
        <time>2019-12-22T10:09:30.000Z</time>
      </trkpt>
      <trkpt lat="43.84229" lon="3.87101">
        <ele>386.6</ele>
        <time>2019-12-22T10:09:31.000Z</time>
      </trkpt>
      <trkpt lat="43.84234" lon="3.87107">
        <ele>385.6</ele>
        <time>2019-12-22T10:09:41.000Z</time>
      </trkpt>
      <trkpt lat="43.84236" lon="3.87107">
        <ele>384.2</ele>
        <time>2019-12-22T10:09:44.000Z</time>
      </trkpt>
      <trkpt lat="43.84238" lon="3.87107">
        <ele>386.1</ele>
        <time>2019-12-22T10:09:47.000Z</time>
      </trkpt>
      <trkpt lat="43.84248" lon="3.87097">
        <ele>382.7</ele>
        <time>2019-12-22T10:10:01.000Z</time>
      </trkpt>
      <trkpt lat="43.84249" lon="3.87095">
        <ele>387.1</ele>
        <time>2019-12-22T10:10:04.000Z</time>
      </trkpt>
      <trkpt lat="43.84249" lon="3.87094">
        <ele>386.1</ele>
        <time>2019-12-22T10:10:05.000Z</time>
      </trkpt>
      <trkpt lat="43.84251" lon="3.87092">
        <ele>382.7</ele>
        <time>2019-12-22T10:10:07.000Z</time>
      </trkpt>
      <trkpt lat="43.84251" lon="3.87091">
        <ele>386.1</ele>
        <time>2019-12-22T10:10:08.000Z</time>
      </trkpt>
      <trkpt lat="43.84252" lon="3.87087">
        <ele>382.7</ele>
        <time>2019-12-22T10:10:11.000Z</time>
      </trkpt>
      <trkpt lat="43.84252" lon="3.87086">
        <ele>383.2</ele>
        <time>2019-12-22T10:10:12.000Z</time>
      </trkpt>
      <trkpt lat="43.84252" lon="3.87082">
        <ele>381.8</ele>
        <time>2019-12-22T10:10:16.000Z</time>
      </trkpt>
      <trkpt lat="43.84256" lon="3.87078">
        <ele>380.3</ele>
        <time>2019-12-22T10:10:21.000Z</time>
      </trkpt>
      <trkpt lat="43.84257" lon="3.87077">
        <ele>381.3</ele>
        <time>2019-12-22T10:10:23.000Z</time>
      </trkpt>
      <trkpt lat="43.84262" lon="3.87078">
        <ele>381.3</ele>
        <time>2019-12-22T10:10:30.000Z</time>
      </trkpt>
      <trkpt lat="43.84274" lon="3.87075">
        <ele>378.4</ele>
        <time>2019-12-22T10:10:43.000Z</time>
      </trkpt>
      <trkpt lat="43.84282" lon="3.87074">
        <ele>379.4</ele>
        <time>2019-12-22T10:10:53.000Z</time>
      </trkpt>
      <trkpt lat="43.84284" lon="3.87074">
        <ele>378.9</ele>
        <time>2019-12-22T10:10:55.000Z</time>
      </trkpt>
      <trkpt lat="43.8429" lon="3.8707">
        <ele>375.5</ele>
        <time>2019-12-22T10:11:03.000Z</time>
      </trkpt>
      <trkpt lat="43.84291" lon="3.8707">
        <ele>376</ele>
        <time>2019-12-22T10:11:04.000Z</time>
      </trkpt>
      <trkpt lat="43.84293" lon="3.8707">
        <ele>378.4</ele>
        <time>2019-12-22T10:11:07.000Z</time>
      </trkpt>
      <trkpt lat="43.84302" lon="3.87064">
        <ele>376</ele>
        <time>2019-12-22T10:11:18.000Z</time>
      </trkpt>
      <trkpt lat="43.84304" lon="3.87064">
        <ele>377.5</ele>
        <time>2019-12-22T10:11:21.000Z</time>
      </trkpt>
      <trkpt lat="43.84305" lon="3.87064">
        <ele>376.5</ele>
        <time>2019-12-22T10:11:34.000Z</time>
      </trkpt>
      <trkpt lat="43.84304" lon="3.87065">
        <ele>379.9</ele>
        <time>2019-12-22T10:11:41.000Z</time>
      </trkpt>
      <trkpt lat="43.84305" lon="3.87065">
        <ele>377.9</ele>
        <time>2019-12-22T10:11:53.000Z</time>
      </trkpt>
      <trkpt lat="43.84312" lon="3.87056">
        <ele>377</ele>
        <time>2019-12-22T10:12:09.000Z</time>
      </trkpt>
      <trkpt lat="43.84312" lon="3.87053">
        <ele>373.6</ele>
        <time>2019-12-22T10:12:11.000Z</time>
      </trkpt>
      <trkpt lat="43.84313" lon="3.87052">
        <ele>373.6</ele>
        <time>2019-12-22T10:12:12.000Z</time>
      </trkpt>
      <trkpt lat="43.84314" lon="3.8705">
        <ele>375.5</ele>
        <time>2019-12-22T10:12:14.000Z</time>
      </trkpt>
      <trkpt lat="43.84315" lon="3.87048">
        <ele>373.6</ele>
        <time>2019-12-22T10:12:16.000Z</time>
      </trkpt>
      <trkpt lat="43.84317" lon="3.87046">
        <ele>374.6</ele>
        <time>2019-12-22T10:12:19.000Z</time>
      </trkpt>
      <trkpt lat="43.84324" lon="3.87042">
        <ele>375.5</ele>
        <time>2019-12-22T10:12:27.000Z</time>
      </trkpt>
      <trkpt lat="43.84326" lon="3.87039">
        <ele>370.7</ele>
        <time>2019-12-22T10:12:30.000Z</time>
      </trkpt>
      <trkpt lat="43.84326" lon="3.87038">
        <ele>376</ele>
        <time>2019-12-22T10:12:31.000Z</time>
      </trkpt>
      <trkpt lat="43.84327" lon="3.87037">
        <ele>372.2</ele>
        <time>2019-12-22T10:12:32.000Z</time>
      </trkpt>
      <trkpt lat="43.84329" lon="3.87033">
        <ele>375.5</ele>
        <time>2019-12-22T10:12:35.000Z</time>
      </trkpt>
      <trkpt lat="43.84332" lon="3.87033">
        <ele>372.6</ele>
        <time>2019-12-22T10:12:39.000Z</time>
      </trkpt>
      <trkpt lat="43.84339" lon="3.87031">
        <ele>372.2</ele>
        <time>2019-12-22T10:12:48.000Z</time>
      </trkpt>
      <trkpt lat="43.84344" lon="3.8703">
        <ele>370.7</ele>
        <time>2019-12-22T10:12:54.000Z</time>
      </trkpt>
      <trkpt lat="43.84353" lon="3.87026">
        <ele>369.8</ele>
        <time>2019-12-22T10:13:06.000Z</time>
      </trkpt>
      <trkpt lat="43.8436" lon="3.87022">
        <ele>368.3</ele>
        <time>2019-12-22T10:13:14.000Z</time>
      </trkpt>
      <trkpt lat="43.84365" lon="3.87023">
        <ele>368.3</ele>
        <time>2019-12-22T10:13:19.000Z</time>
      </trkpt>
      <trkpt lat="43.84368" lon="3.87024">
        <ele>370.2</ele>
        <time>2019-12-22T10:13:24.000Z</time>
      </trkpt>
      <trkpt lat="43.84368" lon="3.87023">
        <ele>367.8</ele>
        <time>2019-12-22T10:13:26.000Z</time>
      </trkpt>
      <trkpt lat="43.84368" lon="3.87023">
        <ele>368.8</ele>
        <time>2019-12-22T10:13:31.000Z</time>
      </trkpt>
      <trkpt lat="43.8437" lon="3.87023">
        <ele>369.8</ele>
        <time>2019-12-22T10:13:47.000Z</time>
      </trkpt>
      <trkpt lat="43.84371" lon="3.87024">
        <ele>368.3</ele>
        <time>2019-12-22T10:13:53.000Z</time>
      </trkpt>
      <trkpt lat="43.84371" lon="3.87024">
        <ele>367.8</ele>
        <time>2019-12-22T10:14:07.000Z</time>
      </trkpt>
      <trkpt lat="43.84371" lon="3.87022">
        <ele>373.6</ele>
        <time>2019-12-22T10:14:12.000Z</time>
      </trkpt>
      <trkpt lat="43.84372" lon="3.87022">
        <ele>371.2</ele>
        <time>2019-12-22T10:14:13.000Z</time>
      </trkpt>
      <trkpt lat="43.84372" lon="3.87021">
        <ele>366.9</ele>
        <time>2019-12-22T10:14:15.000Z</time>
      </trkpt>
      <trkpt lat="43.84374" lon="3.87014">
        <ele>369.3</ele>
        <time>2019-12-22T10:14:23.000Z</time>
      </trkpt>
      <trkpt lat="43.84376" lon="3.8701">
        <ele>366.4</ele>
        <time>2019-12-22T10:14:26.000Z</time>
      </trkpt>
      <trkpt lat="43.84377" lon="3.87009">
        <ele>367.8</ele>
        <time>2019-12-22T10:14:28.000Z</time>
      </trkpt>
      <trkpt lat="43.84382" lon="3.87008">
        <ele>364</ele>
        <time>2019-12-22T10:14:33.000Z</time>
      </trkpt>
      <trkpt lat="43.84388" lon="3.87008">
        <ele>365</ele>
        <time>2019-12-22T10:14:39.000Z</time>
      </trkpt>
      <trkpt lat="43.84393" lon="3.87009">
        <ele>361.1</ele>
        <time>2019-12-22T10:14:47.000Z</time>
      </trkpt>
      <trkpt lat="43.84396" lon="3.87007">
        <ele>364.5</ele>
        <time>2019-12-22T10:14:52.000Z</time>
      </trkpt>
      <trkpt lat="43.84397" lon="3.87007">
        <ele>365</ele>
        <time>2019-12-22T10:14:53.000Z</time>
      </trkpt>
      <trkpt lat="43.84403" lon="3.87005">
        <ele>369.8</ele>
        <time>2019-12-22T10:15:00.000Z</time>
      </trkpt>
      <trkpt lat="43.84404" lon="3.87005">
        <ele>364</ele>
        <time>2019-12-22T10:15:01.000Z</time>
      </trkpt>
      <trkpt lat="43.84414" lon="3.87001">
        <ele>360.1</ele>
        <time>2019-12-22T10:15:13.000Z</time>
      </trkpt>
      <trkpt lat="43.84415" lon="3.87">
        <ele>360.1</ele>
        <time>2019-12-22T10:15:14.000Z</time>
      </trkpt>
      <trkpt lat="43.84418" lon="3.87002">
        <ele>362.1</ele>
        <time>2019-12-22T10:15:16.000Z</time>
      </trkpt>
      <trkpt lat="43.84421" lon="3.87002">
        <ele>363</ele>
        <time>2019-12-22T10:15:19.000Z</time>
      </trkpt>
      <trkpt lat="43.84422" lon="3.87">
        <ele>362.5</ele>
        <time>2019-12-22T10:15:21.000Z</time>
      </trkpt>
      <trkpt lat="43.84424" lon="3.86996">
        <ele>365</ele>
        <time>2019-12-22T10:15:25.000Z</time>
      </trkpt>
      <trkpt lat="43.84425" lon="3.86992">
        <ele>361.6</ele>
        <time>2019-12-22T10:15:28.000Z</time>
      </trkpt>
      <trkpt lat="43.84426" lon="3.86991">
        <ele>361.1</ele>
        <time>2019-12-22T10:15:29.000Z</time>
      </trkpt>
      <trkpt lat="43.84433" lon="3.86983">
        <ele>361.1</ele>
        <time>2019-12-22T10:15:38.000Z</time>
      </trkpt>
      <trkpt lat="43.84441" lon="3.8698">
        <ele>360.1</ele>
        <time>2019-12-22T10:15:46.000Z</time>
      </trkpt>
      <trkpt lat="43.8445" lon="3.86971">
        <ele>358.2</ele>
        <time>2019-12-22T10:15:59.000Z</time>
      </trkpt>
      <trkpt lat="43.8446" lon="3.86962">
        <ele>355.3</ele>
        <time>2019-12-22T10:16:12.000Z</time>
      </trkpt>
      <trkpt lat="43.84467" lon="3.86955">
        <ele>357.8</ele>
        <time>2019-12-22T10:16:23.000Z</time>
      </trkpt>
      <trkpt lat="43.84471" lon="3.86951">
        <ele>355.3</ele>
        <time>2019-12-22T10:16:29.000Z</time>
      </trkpt>
      <trkpt lat="43.84472" lon="3.86951">
        <ele>354.4</ele>
        <time>2019-12-22T10:16:31.000Z</time>
      </trkpt>
      <trkpt lat="43.84473" lon="3.86949">
        <ele>356.3</ele>
        <time>2019-12-22T10:16:33.000Z</time>
      </trkpt>
      <trkpt lat="43.84485" lon="3.86945">
        <ele>355.8</ele>
        <time>2019-12-22T10:16:47.000Z</time>
      </trkpt>
      <trkpt lat="43.84492" lon="3.86942">
        <ele>354.9</ele>
        <time>2019-12-22T10:16:53.000Z</time>
      </trkpt>
      <trkpt lat="43.84506" lon="3.86935">
        <ele>352.5</ele>
        <time>2019-12-22T10:17:08.000Z</time>
      </trkpt>
      <trkpt lat="43.84507" lon="3.86936">
        <ele>354.4</ele>
        <time>2019-12-22T10:17:11.000Z</time>
      </trkpt>
      <trkpt lat="43.84521" lon="3.86933">
        <ele>352.9</ele>
        <time>2019-12-22T10:17:24.000Z</time>
      </trkpt>
      <trkpt lat="43.84527" lon="3.86932">
        <ele>354.9</ele>
        <time>2019-12-22T10:17:28.000Z</time>
      </trkpt>
      <trkpt lat="43.8454" lon="3.86927">
        <ele>353.4</ele>
        <time>2019-12-22T10:17:43.000Z</time>
      </trkpt>
      <trkpt lat="43.84554" lon="3.86919">
        <ele>352</ele>
        <time>2019-12-22T10:17:59.000Z</time>
      </trkpt>
      <trkpt lat="43.84562" lon="3.86923">
        <ele>353.4</ele>
        <time>2019-12-22T10:18:11.000Z</time>
      </trkpt>
      <trkpt lat="43.84572" lon="3.86924">
        <ele>352</ele>
        <time>2019-12-22T10:18:27.000Z</time>
      </trkpt>
      <trkpt lat="43.84583" lon="3.86926">
        <ele>352</ele>
        <time>2019-12-22T10:18:42.000Z</time>
      </trkpt>
      <trkpt lat="43.84594" lon="3.8693">
        <ele>352</ele>
        <time>2019-12-22T10:18:56.000Z</time>
      </trkpt>
      <trkpt lat="43.84608" lon="3.86926">
        <ele>352</ele>
        <time>2019-12-22T10:19:12.000Z</time>
      </trkpt>
      <trkpt lat="43.84616" lon="3.86921">
        <ele>352</ele>
        <time>2019-12-22T10:19:25.000Z</time>
      </trkpt>
      <trkpt lat="43.84628" lon="3.86923">
        <ele>352.9</ele>
        <time>2019-12-22T10:19:40.000Z</time>
      </trkpt>
      <trkpt lat="43.84639" lon="3.8693">
        <ele>352.9</ele>
        <time>2019-12-22T10:19:55.000Z</time>
      </trkpt>
      <trkpt lat="43.84646" lon="3.86932">
        <ele>352.5</ele>
        <time>2019-12-22T10:20:04.000Z</time>
      </trkpt>
      <trkpt lat="43.84648" lon="3.86934">
        <ele>351.5</ele>
        <time>2019-12-22T10:20:06.000Z</time>
      </trkpt>
      <trkpt lat="43.84652" lon="3.86935">
        <ele>356.3</ele>
        <time>2019-12-22T10:20:10.000Z</time>
      </trkpt>
      <trkpt lat="43.84653" lon="3.86935">
        <ele>356.3</ele>
        <time>2019-12-22T10:20:11.000Z</time>
      </trkpt>
      <trkpt lat="43.84654" lon="3.86935">
        <ele>352.9</ele>
        <time>2019-12-22T10:20:12.000Z</time>
      </trkpt>
      <trkpt lat="43.84655" lon="3.86935">
        <ele>353.9</ele>
        <time>2019-12-22T10:20:13.000Z</time>
      </trkpt>
      <trkpt lat="43.84663" lon="3.86939">
        <ele>354.9</ele>
        <time>2019-12-22T10:20:21.000Z</time>
      </trkpt>
      <trkpt lat="43.84666" lon="3.86941">
        <ele>353.4</ele>
        <time>2019-12-22T10:20:24.000Z</time>
      </trkpt>
      <trkpt lat="43.84668" lon="3.86942">
        <ele>352.5</ele>
        <time>2019-12-22T10:20:26.000Z</time>
      </trkpt>
      <trkpt lat="43.84669" lon="3.86944">
        <ele>354.4</ele>
        <time>2019-12-22T10:20:28.000Z</time>
      </trkpt>
      <trkpt lat="43.84677" lon="3.86953">
        <ele>354.4</ele>
        <time>2019-12-22T10:20:37.000Z</time>
      </trkpt>
      <trkpt lat="43.84681" lon="3.8696">
        <ele>352.9</ele>
        <time>2019-12-22T10:20:45.000Z</time>
      </trkpt>
      <trkpt lat="43.84682" lon="3.86962">
        <ele>353.9</ele>
        <time>2019-12-22T10:20:47.000Z</time>
      </trkpt>
      <trkpt lat="43.84684" lon="3.86964">
        <ele>352</ele>
        <time>2019-12-22T10:20:49.000Z</time>
      </trkpt>
      <trkpt lat="43.84685" lon="3.86965">
        <ele>355.8</ele>
        <time>2019-12-22T10:20:50.000Z</time>
      </trkpt>
      <trkpt lat="43.84685" lon="3.86966">
        <ele>355.3</ele>
        <time>2019-12-22T10:20:51.000Z</time>
      </trkpt>
      <trkpt lat="43.84686" lon="3.86969">
        <ele>353.4</ele>
        <time>2019-12-22T10:20:53.000Z</time>
      </trkpt>
      <trkpt lat="43.84687" lon="3.86971">
        <ele>352</ele>
        <time>2019-12-22T10:20:57.000Z</time>
      </trkpt>
      <trkpt lat="43.84688" lon="3.86976">
        <ele>353.9</ele>
        <time>2019-12-22T10:21:06.000Z</time>
      </trkpt>
      <trkpt lat="43.8469" lon="3.8698">
        <ele>353.9</ele>
        <time>2019-12-22T10:21:09.000Z</time>
      </trkpt>
      <trkpt lat="43.84693" lon="3.86988">
        <ele>354.9</ele>
        <time>2019-12-22T10:21:16.000Z</time>
      </trkpt>
      <trkpt lat="43.84696" lon="3.87004">
        <ele>353.9</ele>
        <time>2019-12-22T10:21:31.000Z</time>
      </trkpt>
      <trkpt lat="43.84696" lon="3.87011">
        <ele>358.2</ele>
        <time>2019-12-22T10:21:36.000Z</time>
      </trkpt>
      <trkpt lat="43.84696" lon="3.87015">
        <ele>355.3</ele>
        <time>2019-12-22T10:21:39.000Z</time>
      </trkpt>
      <trkpt lat="43.84694" lon="3.87024">
        <ele>357.3</ele>
        <time>2019-12-22T10:21:46.000Z</time>
      </trkpt>
      <trkpt lat="43.84694" lon="3.87025">
        <ele>356.3</ele>
        <time>2019-12-22T10:21:47.000Z</time>
      </trkpt>
      <trkpt lat="43.84693" lon="3.87026">
        <ele>355.3</ele>
        <time>2019-12-22T10:21:48.000Z</time>
      </trkpt>
      <trkpt lat="43.84694" lon="3.87033">
        <ele>361.1</ele>
        <time>2019-12-22T10:21:54.000Z</time>
      </trkpt>
      <trkpt lat="43.84693" lon="3.87034">
        <ele>356.3</ele>
        <time>2019-12-22T10:21:55.000Z</time>
      </trkpt>
      <trkpt lat="43.84694" lon="3.87039">
        <ele>360.1</ele>
        <time>2019-12-22T10:21:59.000Z</time>
      </trkpt>
      <trkpt lat="43.84693" lon="3.87047">
        <ele>358.7</ele>
        <time>2019-12-22T10:22:07.000Z</time>
      </trkpt>
      <trkpt lat="43.84693" lon="3.8706">
        <ele>359.2</ele>
        <time>2019-12-22T10:22:16.000Z</time>
      </trkpt>
      <trkpt lat="43.84698" lon="3.87068">
        <ele>359.2</ele>
        <time>2019-12-22T10:22:23.000Z</time>
      </trkpt>
      <trkpt lat="43.84701" lon="3.87071">
        <ele>360.6</ele>
        <time>2019-12-22T10:22:28.000Z</time>
      </trkpt>
      <trkpt lat="43.84709" lon="3.87077">
        <ele>364.5</ele>
        <time>2019-12-22T10:22:37.000Z</time>
      </trkpt>
      <trkpt lat="43.84723" lon="3.87082">
        <ele>363.5</ele>
        <time>2019-12-22T10:22:53.000Z</time>
      </trkpt>
      <trkpt lat="43.84728" lon="3.87084">
        <ele>367.4</ele>
        <time>2019-12-22T10:22:58.000Z</time>
      </trkpt>
      <trkpt lat="43.84729" lon="3.87084">
        <ele>366.9</ele>
        <time>2019-12-22T10:22:59.000Z</time>
      </trkpt>
      <trkpt lat="43.8473" lon="3.87085">
        <ele>365</ele>
        <time>2019-12-22T10:23:01.000Z</time>
      </trkpt>
      <trkpt lat="43.84735" lon="3.87087">
        <ele>366.4</ele>
        <time>2019-12-22T10:23:06.000Z</time>
      </trkpt>
      <trkpt lat="43.84737" lon="3.8709">
        <ele>374.6</ele>
        <time>2019-12-22T10:23:09.000Z</time>
      </trkpt>
      <trkpt lat="43.84738" lon="3.8709">
        <ele>367.8</ele>
        <time>2019-12-22T10:23:10.000Z</time>
      </trkpt>
      <trkpt lat="43.84741" lon="3.87093">
        <ele>372.2</ele>
        <time>2019-12-22T10:23:13.000Z</time>
      </trkpt>
      <trkpt lat="43.84747" lon="3.87094">
        <ele>370.7</ele>
        <time>2019-12-22T10:23:19.000Z</time>
      </trkpt>
      <trkpt lat="43.84748" lon="3.87096">
        <ele>373.6</ele>
        <time>2019-12-22T10:23:21.000Z</time>
      </trkpt>
      <trkpt lat="43.84751" lon="3.87098">
        <ele>368.8</ele>
        <time>2019-12-22T10:23:24.000Z</time>
      </trkpt>
      <trkpt lat="43.84762" lon="3.87101">
        <ele>375.5</ele>
        <time>2019-12-22T10:23:37.000Z</time>
      </trkpt>
      <trkpt lat="43.84763" lon="3.87101">
        <ele>371.2</ele>
        <time>2019-12-22T10:23:38.000Z</time>
      </trkpt>
      <trkpt lat="43.8477" lon="3.87102">
        <ele>369.3</ele>
        <time>2019-12-22T10:23:46.000Z</time>
      </trkpt>
      <trkpt lat="43.84777" lon="3.87106">
        <ele>372.6</ele>
        <time>2019-12-22T10:23:55.000Z</time>
      </trkpt>
      <trkpt lat="43.84777" lon="3.87107">
        <ele>372.2</ele>
        <time>2019-12-22T10:23:56.000Z</time>
      </trkpt>
      <trkpt lat="43.84781" lon="3.8711">
        <ele>375.5</ele>
        <time>2019-12-22T10:24:03.000Z</time>
      </trkpt>
      <trkpt lat="43.84781" lon="3.87109">
        <ele>371.2</ele>
        <time>2019-12-22T10:24:04.000Z</time>
      </trkpt>
      <trkpt lat="43.84782" lon="3.87108">
        <ele>367.8</ele>
        <time>2019-12-22T10:24:06.000Z</time>
      </trkpt>
      <trkpt lat="43.84784" lon="3.87106">
        <ele>373.1</ele>
        <time>2019-12-22T10:24:12.000Z</time>
      </trkpt>
      <trkpt lat="43.84785" lon="3.87106">
        <ele>369.3</ele>
        <time>2019-12-22T10:24:17.000Z</time>
      </trkpt>
      <trkpt lat="43.84785" lon="3.87106">
        <ele>372.6</ele>
        <time>2019-12-22T10:24:21.000Z</time>
      </trkpt>
      <trkpt lat="43.84785" lon="3.87106">
        <ele>371.2</ele>
        <time>2019-12-22T10:24:25.000Z</time>
      </trkpt>
      <trkpt lat="43.84786" lon="3.87108">
        <ele>374.6</ele>
        <time>2019-12-22T10:24:34.000Z</time>
      </trkpt>
      <trkpt lat="43.84787" lon="3.87108">
        <ele>373.1</ele>
        <time>2019-12-22T10:24:35.000Z</time>
      </trkpt>
      <trkpt lat="43.84789" lon="3.87105">
        <ele>374.1</ele>
        <time>2019-12-22T10:24:46.000Z</time>
      </trkpt>
      <trkpt lat="43.84789" lon="3.87106">
        <ele>370.7</ele>
        <time>2019-12-22T10:24:49.000Z</time>
      </trkpt>
      <trkpt lat="43.84791" lon="3.87105">
        <ele>374.1</ele>
        <time>2019-12-22T10:24:51.000Z</time>
      </trkpt>
      <trkpt lat="43.84791" lon="3.87105">
        <ele>374.1</ele>
        <time>2019-12-22T10:24:52.000Z</time>
      </trkpt>
      <trkpt lat="43.84797" lon="3.87107">
        <ele>370.7</ele>
        <time>2019-12-22T10:25:00.000Z</time>
      </trkpt>
      <trkpt lat="43.848" lon="3.8711">
        <ele>371.2</ele>
        <time>2019-12-22T10:25:04.000Z</time>
      </trkpt>
      <trkpt lat="43.84809" lon="3.87114">
        <ele>372.6</ele>
        <time>2019-12-22T10:25:15.000Z</time>
      </trkpt>
      <trkpt lat="43.84811" lon="3.87114">
        <ele>369.3</ele>
        <time>2019-12-22T10:25:17.000Z</time>
      </trkpt>
      <trkpt lat="43.84826" lon="3.87113">
        <ele>372.6</ele>
        <time>2019-12-22T10:25:32.000Z</time>
      </trkpt>
      <trkpt lat="43.84831" lon="3.87112">
        <ele>372.2</ele>
        <time>2019-12-22T10:25:37.000Z</time>
      </trkpt>
      <trkpt lat="43.84836" lon="3.87108">
        <ele>369.3</ele>
        <time>2019-12-22T10:25:44.000Z</time>
      </trkpt>
      <trkpt lat="43.84837" lon="3.87105">
        <ele>369.8</ele>
        <time>2019-12-22T10:25:50.000Z</time>
      </trkpt>
      <trkpt lat="43.84843" lon="3.87096">
        <ele>370.2</ele>
        <time>2019-12-22T10:26:02.000Z</time>
      </trkpt>
      <trkpt lat="43.84846" lon="3.87086">
        <ele>371.2</ele>
        <time>2019-12-22T10:26:04.000Z</time>
      </trkpt>
      <trkpt lat="43.84847" lon="3.87083">
        <ele>369.8</ele>
        <time>2019-12-22T10:26:06.000Z</time>
      </trkpt>
      <trkpt lat="43.84851" lon="3.87083">
        <ele>368.8</ele>
        <time>2019-12-22T10:26:10.000Z</time>
      </trkpt>
      <trkpt lat="43.84855" lon="3.87083">
        <ele>366.4</ele>
        <time>2019-12-22T10:26:15.000Z</time>
      </trkpt>
      <trkpt lat="43.84864" lon="3.87085">
        <ele>362.1</ele>
        <time>2019-12-22T10:26:23.000Z</time>
      </trkpt>
      <trkpt lat="43.84865" lon="3.87085">
        <ele>365.9</ele>
        <time>2019-12-22T10:26:24.000Z</time>
      </trkpt>
      <trkpt lat="43.84867" lon="3.87085">
        <ele>369.3</ele>
        <time>2019-12-22T10:26:26.000Z</time>
      </trkpt>
      <trkpt lat="43.84868" lon="3.87085">
        <ele>367.8</ele>
        <time>2019-12-22T10:26:27.000Z</time>
      </trkpt>
      <trkpt lat="43.8487" lon="3.87085">
        <ele>366.4</ele>
        <time>2019-12-22T10:26:29.000Z</time>
      </trkpt>
      <trkpt lat="43.84878" lon="3.87085">
        <ele>362.5</ele>
        <time>2019-12-22T10:26:38.000Z</time>
      </trkpt>
      <trkpt lat="43.84878" lon="3.87084">
        <ele>358.2</ele>
        <time>2019-12-22T10:26:39.000Z</time>
      </trkpt>
      <trkpt lat="43.84879" lon="3.87084">
        <ele>364</ele>
        <time>2019-12-22T10:26:40.000Z</time>
      </trkpt>
      <trkpt lat="43.84883" lon="3.87082">
        <ele>363.5</ele>
        <time>2019-12-22T10:26:44.000Z</time>
      </trkpt>
      <trkpt lat="43.84884" lon="3.87082">
        <ele>365</ele>
        <time>2019-12-22T10:26:46.000Z</time>
      </trkpt>
      <trkpt lat="43.84886" lon="3.87083">
        <ele>363.5</ele>
        <time>2019-12-22T10:26:48.000Z</time>
      </trkpt>
      <trkpt lat="43.84888" lon="3.87084">
        <ele>365.9</ele>
        <time>2019-12-22T10:26:50.000Z</time>
      </trkpt>
      <trkpt lat="43.84889" lon="3.87084">
        <ele>362.1</ele>
        <time>2019-12-22T10:26:57.000Z</time>
      </trkpt>
      <trkpt lat="43.8489" lon="3.87084">
        <ele>371.7</ele>
        <time>2019-12-22T10:26:59.000Z</time>
      </trkpt>
      <trkpt lat="43.8489" lon="3.87084">
        <ele>369.3</ele>
        <time>2019-12-22T10:27:00.000Z</time>
      </trkpt>
      <trkpt lat="43.84892" lon="3.87084">
        <ele>366.4</ele>
        <time>2019-12-22T10:27:02.000Z</time>
      </trkpt>
      <trkpt lat="43.849" lon="3.87082">
        <ele>363.5</ele>
        <time>2019-12-22T10:27:11.000Z</time>
      </trkpt>
      <trkpt lat="43.84913" lon="3.87076">
        <ele>366.4</ele>
        <time>2019-12-22T10:27:24.000Z</time>
      </trkpt>
      <trkpt lat="43.84916" lon="3.87076">
        <ele>365.4</ele>
        <time>2019-12-22T10:27:40.000Z</time>
      </trkpt>
      <trkpt lat="43.84917" lon="3.8707">
        <ele>362.5</ele>
        <time>2019-12-22T10:27:51.000Z</time>
      </trkpt>
      <trkpt lat="43.8492" lon="3.87062">
        <ele>363</ele>
        <time>2019-12-22T10:27:59.000Z</time>
      </trkpt>
      <trkpt lat="43.84925" lon="3.87052">
        <ele>362.1</ele>
        <time>2019-12-22T10:28:09.000Z</time>
      </trkpt>
      <trkpt lat="43.84931" lon="3.87049">
        <ele>358.7</ele>
        <time>2019-12-22T10:28:16.000Z</time>
      </trkpt>
      <trkpt lat="43.84931" lon="3.87048">
        <ele>363.5</ele>
        <time>2019-12-22T10:28:17.000Z</time>
      </trkpt>
      <trkpt lat="43.84931" lon="3.87047">
        <ele>360.6</ele>
        <time>2019-12-22T10:28:18.000Z</time>
      </trkpt>
      <trkpt lat="43.84937" lon="3.87042">
        <ele>355.8</ele>
        <time>2019-12-22T10:28:27.000Z</time>
      </trkpt>
      <trkpt lat="43.84937" lon="3.8704">
        <ele>355.8</ele>
        <time>2019-12-22T10:28:28.000Z</time>
      </trkpt>
      <trkpt lat="43.84938" lon="3.87037">
        <ele>358.7</ele>
        <time>2019-12-22T10:28:30.000Z</time>
      </trkpt>
      <trkpt lat="43.84939" lon="3.87034">
        <ele>358.7</ele>
        <time>2019-12-22T10:28:32.000Z</time>
      </trkpt>
      <trkpt lat="43.84942" lon="3.87025">
        <ele>359.7</ele>
        <time>2019-12-22T10:28:38.000Z</time>
      </trkpt>
      <trkpt lat="43.84942" lon="3.87025">
        <ele>358.7</ele>
        <time>2019-12-22T10:28:39.000Z</time>
      </trkpt>
      <trkpt lat="43.84944" lon="3.87019">
        <ele>357.8</ele>
        <time>2019-12-22T10:28:43.000Z</time>
      </trkpt>
      <trkpt lat="43.84949" lon="3.87012">
        <ele>350.5</ele>
        <time>2019-12-22T10:28:49.000Z</time>
      </trkpt>
      <trkpt lat="43.8495" lon="3.8701">
        <ele>359.7</ele>
        <time>2019-12-22T10:28:50.000Z</time>
      </trkpt>
      <trkpt lat="43.84951" lon="3.87009">
        <ele>355.3</ele>
        <time>2019-12-22T10:28:51.000Z</time>
      </trkpt>
      <trkpt lat="43.84954" lon="3.86996">
        <ele>355.8</ele>
        <time>2019-12-22T10:29:01.000Z</time>
      </trkpt>
      <trkpt lat="43.84956" lon="3.86994">
        <ele>354.4</ele>
        <time>2019-12-22T10:29:03.000Z</time>
      </trkpt>
      <trkpt lat="43.84957" lon="3.86991">
        <ele>355.8</ele>
        <time>2019-12-22T10:29:05.000Z</time>
      </trkpt>
      <trkpt lat="43.84959" lon="3.86987">
        <ele>354.4</ele>
        <time>2019-12-22T10:29:08.000Z</time>
      </trkpt>
      <trkpt lat="43.84962" lon="3.86983">
        <ele>356.3</ele>
        <time>2019-12-22T10:29:13.000Z</time>
      </trkpt>
      <trkpt lat="43.84962" lon="3.86982">
        <ele>352.5</ele>
        <time>2019-12-22T10:29:14.000Z</time>
      </trkpt>
      <trkpt lat="43.84963" lon="3.86981">
        <ele>353.4</ele>
        <time>2019-12-22T10:29:15.000Z</time>
      </trkpt>
      <trkpt lat="43.84965" lon="3.86976">
        <ele>354.9</ele>
        <time>2019-12-22T10:29:20.000Z</time>
      </trkpt>
      <trkpt lat="43.84966" lon="3.86973">
        <ele>352</ele>
        <time>2019-12-22T10:29:22.000Z</time>
      </trkpt>
      <trkpt lat="43.84972" lon="3.8696">
        <ele>353.9</ele>
        <time>2019-12-22T10:29:36.000Z</time>
      </trkpt>
      <trkpt lat="43.84975" lon="3.86953">
        <ele>351.5</ele>
        <time>2019-12-22T10:29:41.000Z</time>
      </trkpt>
      <trkpt lat="43.84979" lon="3.86941">
        <ele>352.5</ele>
        <time>2019-12-22T10:29:49.000Z</time>
      </trkpt>
      <trkpt lat="43.84985" lon="3.86929">
        <ele>348.1</ele>
        <time>2019-12-22T10:29:59.000Z</time>
      </trkpt>
      <trkpt lat="43.84988" lon="3.8692">
        <ele>344.8</ele>
        <time>2019-12-22T10:30:07.000Z</time>
      </trkpt>
      <trkpt lat="43.84989" lon="3.86918">
        <ele>348.6</ele>
        <time>2019-12-22T10:30:10.000Z</time>
      </trkpt>
      <trkpt lat="43.8499" lon="3.86916">
        <ele>348.6</ele>
        <time>2019-12-22T10:30:11.000Z</time>
      </trkpt>
      <trkpt lat="43.84991" lon="3.86911">
        <ele>345.3</ele>
        <time>2019-12-22T10:30:15.000Z</time>
      </trkpt>
      <trkpt lat="43.84994" lon="3.86905">
        <ele>349.1</ele>
        <time>2019-12-22T10:30:19.000Z</time>
      </trkpt>
      <trkpt lat="43.84994" lon="3.86904">
        <ele>348.6</ele>
        <time>2019-12-22T10:30:20.000Z</time>
      </trkpt>
      <trkpt lat="43.84994" lon="3.86901">
        <ele>350.5</ele>
        <time>2019-12-22T10:30:22.000Z</time>
      </trkpt>
      <trkpt lat="43.84999" lon="3.86892">
        <ele>347.6</ele>
        <time>2019-12-22T10:30:30.000Z</time>
      </trkpt>
      <trkpt lat="43.84999" lon="3.86892">
        <ele>348.6</ele>
        <time>2019-12-22T10:30:46.000Z</time>
      </trkpt>
      <trkpt lat="43.85" lon="3.86892">
        <ele>345.3</ele>
        <time>2019-12-22T10:30:58.000Z</time>
      </trkpt>
      <trkpt lat="43.85" lon="3.86893">
        <ele>350.5</ele>
        <time>2019-12-22T10:31:01.000Z</time>
      </trkpt>
      <trkpt lat="43.85" lon="3.86892">
        <ele>349.6</ele>
        <time>2019-12-22T10:31:02.000Z</time>
      </trkpt>
      <trkpt lat="43.85" lon="3.86892">
        <ele>346.7</ele>
        <time>2019-12-22T10:31:05.000Z</time>
      </trkpt>
      <trkpt lat="43.85" lon="3.86892">
        <ele>346.7</ele>
        <time>2019-12-22T10:31:06.000Z</time>
      </trkpt>
      <trkpt lat="43.84999" lon="3.86892">
        <ele>350.1</ele>
        <time>2019-12-22T10:31:09.000Z</time>
      </trkpt>
      <trkpt lat="43.84999" lon="3.86892">
        <ele>345.3</ele>
        <time>2019-12-22T10:31:16.000Z</time>
      </trkpt>
      <trkpt lat="43.84999" lon="3.86891">
        <ele>348.6</ele>
        <time>2019-12-22T10:31:17.000Z</time>
      </trkpt>
      <trkpt lat="43.85" lon="3.86891">
        <ele>348.6</ele>
        <time>2019-12-22T10:31:48.000Z</time>
      </trkpt>
      <trkpt lat="43.85" lon="3.8689">
        <ele>344.8</ele>
        <time>2019-12-22T10:32:08.000Z</time>
      </trkpt>
      <trkpt lat="43.85001" lon="3.8689">
        <ele>347.6</ele>
        <time>2019-12-22T10:32:09.000Z</time>
      </trkpt>
      <trkpt lat="43.85001" lon="3.8689">
        <ele>343.8</ele>
        <time>2019-12-22T10:32:10.000Z</time>
      </trkpt>
      <trkpt lat="43.85" lon="3.8689">
        <ele>348.6</ele>
        <time>2019-12-22T10:32:12.000Z</time>
      </trkpt>
      <trkpt lat="43.85" lon="3.8689">
        <ele>348.6</ele>
        <time>2019-12-22T10:32:13.000Z</time>
      </trkpt>
      <trkpt lat="43.85" lon="3.86891">
        <ele>345.3</ele>
        <time>2019-12-22T10:32:14.000Z</time>
      </trkpt>
      <trkpt lat="43.85" lon="3.8689">
        <ele>348.6</ele>
        <time>2019-12-22T10:32:15.000Z</time>
      </trkpt>
      <trkpt lat="43.84999" lon="3.86891">
        <ele>350.1</ele>
        <time>2019-12-22T10:32:23.000Z</time>
      </trkpt>
      <trkpt lat="43.84998" lon="3.86891">
        <ele>346.2</ele>
        <time>2019-12-22T10:32:25.000Z</time>
      </trkpt>
      <trkpt lat="43.84998" lon="3.8689">
        <ele>349.6</ele>
        <time>2019-12-22T10:32:26.000Z</time>
      </trkpt>
      <trkpt lat="43.84997" lon="3.8689">
        <ele>346.2</ele>
        <time>2019-12-22T10:32:33.000Z</time>
      </trkpt>
      <trkpt lat="43.84997" lon="3.8689">
        <ele>347.2</ele>
        <time>2019-12-22T10:32:34.000Z</time>
      </trkpt>
      <trkpt lat="43.84996" lon="3.8689">
        <ele>348.6</ele>
        <time>2019-12-22T10:32:38.000Z</time>
      </trkpt>
      <trkpt lat="43.84996" lon="3.86891">
        <ele>347.2</ele>
        <time>2019-12-22T10:32:47.000Z</time>
      </trkpt>
      <trkpt lat="43.84999" lon="3.86888">
        <ele>348.6</ele>
        <time>2019-12-22T10:32:59.000Z</time>
      </trkpt>
      <trkpt lat="43.84999" lon="3.86889">
        <ele>351.5</ele>
        <time>2019-12-22T10:33:00.000Z</time>
      </trkpt>
      <trkpt lat="43.84999" lon="3.86889">
        <ele>350.5</ele>
        <time>2019-12-22T10:33:01.000Z</time>
      </trkpt>
      <trkpt lat="43.84998" lon="3.86893">
        <ele>346.7</ele>
        <time>2019-12-22T10:33:12.000Z</time>
      </trkpt>
      <trkpt lat="43.84996" lon="3.86893">
        <ele>349.6</ele>
        <time>2019-12-22T10:33:23.000Z</time>
      </trkpt>
      <trkpt lat="43.84996" lon="3.86892">
        <ele>348.6</ele>
        <time>2019-12-22T10:33:40.000Z</time>
      </trkpt>
      <trkpt lat="43.84996" lon="3.86892">
        <ele>350.1</ele>
        <time>2019-12-22T10:33:43.000Z</time>
      </trkpt>
      <trkpt lat="43.84997" lon="3.86893">
        <ele>351</ele>
        <time>2019-12-22T10:33:51.000Z</time>
      </trkpt>
      <trkpt lat="43.84996" lon="3.86893">
        <ele>347.2</ele>
        <time>2019-12-22T10:33:53.000Z</time>
      </trkpt>
      <trkpt lat="43.84998" lon="3.8689">
        <ele>351.5</ele>
        <time>2019-12-22T10:33:54.000Z</time>
      </trkpt>
      <trkpt lat="43.84998" lon="3.86891">
        <ele>348.1</ele>
        <time>2019-12-22T10:33:55.000Z</time>
      </trkpt>
      <trkpt lat="43.84999" lon="3.86893">
        <ele>348.1</ele>
        <time>2019-12-22T10:34:03.000Z</time>
      </trkpt>
      <trkpt lat="43.84998" lon="3.86893">
        <ele>347.6</ele>
        <time>2019-12-22T10:34:08.000Z</time>
      </trkpt>
      <trkpt lat="43.84999" lon="3.86893">
        <ele>349.6</ele>
        <time>2019-12-22T10:34:25.000Z</time>
      </trkpt>
      <trkpt lat="43.84999" lon="3.86893">
        <ele>349.6</ele>
        <time>2019-12-22T10:34:26.000Z</time>
      </trkpt>
      <trkpt lat="43.85" lon="3.86893">
        <ele>352.9</ele>
        <time>2019-12-22T10:34:33.000Z</time>
      </trkpt>
      <trkpt lat="43.85" lon="3.86892">
        <ele>350.1</ele>
        <time>2019-12-22T10:34:34.000Z</time>
      </trkpt>
      <trkpt lat="43.85" lon="3.86892">
        <ele>348.6</ele>
        <time>2019-12-22T10:34:36.000Z</time>
      </trkpt>
      <trkpt lat="43.85" lon="3.86891">
        <ele>346.7</ele>
        <time>2019-12-22T10:34:50.000Z</time>
      </trkpt>
      <trkpt lat="43.85001" lon="3.86892">
        <ele>347.6</ele>
        <time>2019-12-22T10:34:55.000Z</time>
      </trkpt>
      <trkpt lat="43.85004" lon="3.86891">
        <ele>346.2</ele>
        <time>2019-12-22T10:35:04.000Z</time>
      </trkpt>
      <trkpt lat="43.85006" lon="3.8689">
        <ele>349.1</ele>
        <time>2019-12-22T10:35:07.000Z</time>
      </trkpt>
      <trkpt lat="43.85007" lon="3.86889">
        <ele>347.2</ele>
        <time>2019-12-22T10:35:09.000Z</time>
      </trkpt>
      <trkpt lat="43.85008" lon="3.86885">
        <ele>343.8</ele>
        <time>2019-12-22T10:35:25.000Z</time>
      </trkpt>
      <trkpt lat="43.85008" lon="3.86885">
        <ele>343.3</ele>
        <time>2019-12-22T10:35:26.000Z</time>
      </trkpt>
      <trkpt lat="43.85006" lon="3.86885">
        <ele>345.3</ele>
        <time>2019-12-22T10:35:30.000Z</time>
      </trkpt>
      <trkpt lat="43.85006" lon="3.86885">
        <ele>342.9</ele>
        <time>2019-12-22T10:35:37.000Z</time>
      </trkpt>
      <trkpt lat="43.85007" lon="3.86885">
        <ele>347.6</ele>
        <time>2019-12-22T10:35:44.000Z</time>
      </trkpt>
      <trkpt lat="43.85008" lon="3.86885">
        <ele>347.2</ele>
        <time>2019-12-22T10:35:45.000Z</time>
      </trkpt>
      <trkpt lat="43.85008" lon="3.86886">
        <ele>343.8</ele>
        <time>2019-12-22T10:35:49.000Z</time>
      </trkpt>
      <trkpt lat="43.85009" lon="3.86885">
        <ele>343.3</ele>
        <time>2019-12-22T10:35:50.000Z</time>
      </trkpt>
      <trkpt lat="43.85008" lon="3.86886">
        <ele>347.6</ele>
        <time>2019-12-22T10:36:01.000Z</time>
      </trkpt>
      <trkpt lat="43.85009" lon="3.86885">
        <ele>344.3</ele>
        <time>2019-12-22T10:36:06.000Z</time>
      </trkpt>
      <trkpt lat="43.85008" lon="3.86882">
        <ele>342.9</ele>
        <time>2019-12-22T10:36:12.000Z</time>
      </trkpt>
      <trkpt lat="43.85011" lon="3.86877">
        <ele>339</ele>
        <time>2019-12-22T10:36:22.000Z</time>
      </trkpt>
      <trkpt lat="43.85012" lon="3.86878">
        <ele>340.4</ele>
        <time>2019-12-22T10:36:28.000Z</time>
      </trkpt>
      <trkpt lat="43.85012" lon="3.86878">
        <ele>337.6</ele>
        <time>2019-12-22T10:36:30.000Z</time>
      </trkpt>
      <trkpt lat="43.85015" lon="3.86881">
        <ele>337.6</ele>
        <time>2019-12-22T10:36:41.000Z</time>
      </trkpt>
      <trkpt lat="43.85015" lon="3.8688">
        <ele>336.1</ele>
        <time>2019-12-22T10:36:47.000Z</time>
      </trkpt>
      <trkpt lat="43.85016" lon="3.86881">
        <ele>334.2</ele>
        <time>2019-12-22T10:36:49.000Z</time>
      </trkpt>
      <trkpt lat="43.85016" lon="3.86881">
        <ele>337.6</ele>
        <time>2019-12-22T10:36:51.000Z</time>
      </trkpt>
      <trkpt lat="43.85017" lon="3.86881">
        <ele>334.2</ele>
        <time>2019-12-22T10:36:54.000Z</time>
      </trkpt>
      <trkpt lat="43.85019" lon="3.86884">
        <ele>334.7</ele>
        <time>2019-12-22T10:37:02.000Z</time>
      </trkpt>
      <trkpt lat="43.85017" lon="3.8688">
        <ele>336.1</ele>
        <time>2019-12-22T10:37:15.000Z</time>
      </trkpt>
      <trkpt lat="43.85016" lon="3.86881">
        <ele>332.8</ele>
        <time>2019-12-22T10:37:19.000Z</time>
      </trkpt>
      <trkpt lat="43.85016" lon="3.86883">
        <ele>334.2</ele>
        <time>2019-12-22T10:37:22.000Z</time>
      </trkpt>
      <trkpt lat="43.85016" lon="3.86882">
        <ele>332.3</ele>
        <time>2019-12-22T10:37:28.000Z</time>
      </trkpt>
      <trkpt lat="43.85016" lon="3.86882">
        <ele>336.1</ele>
        <time>2019-12-22T10:37:29.000Z</time>
      </trkpt>
      <trkpt lat="43.85016" lon="3.86882">
        <ele>336.1</ele>
        <time>2019-12-22T10:37:30.000Z</time>
      </trkpt>
      <trkpt lat="43.85017" lon="3.86883">
        <ele>332.3</ele>
        <time>2019-12-22T10:37:34.000Z</time>
      </trkpt>
      <trkpt lat="43.85017" lon="3.86883">
        <ele>332.3</ele>
        <time>2019-12-22T10:37:35.000Z</time>
      </trkpt>
      <trkpt lat="43.85019" lon="3.86887">
        <ele>333.2</ele>
        <time>2019-12-22T10:37:43.000Z</time>
      </trkpt>
      <trkpt lat="43.8502" lon="3.8689">
        <ele>330.4</ele>
        <time>2019-12-22T10:37:47.000Z</time>
      </trkpt>
      <trkpt lat="43.85021" lon="3.86896">
        <ele>329.9</ele>
        <time>2019-12-22T10:37:54.000Z</time>
      </trkpt>
      <trkpt lat="43.85023" lon="3.86902">
        <ele>328</ele>
        <time>2019-12-22T10:38:04.000Z</time>
      </trkpt>
      <trkpt lat="43.85029" lon="3.86912">
        <ele>324.6</ele>
        <time>2019-12-22T10:38:19.000Z</time>
      </trkpt>
      <trkpt lat="43.85029" lon="3.86912">
        <ele>323.6</ele>
        <time>2019-12-22T10:38:20.000Z</time>
      </trkpt>
      <trkpt lat="43.85029" lon="3.86913">
        <ele>323.1</ele>
        <time>2019-12-22T10:38:35.000Z</time>
      </trkpt>
      <trkpt lat="43.85031" lon="3.86912">
        <ele>322.2</ele>
        <time>2019-12-22T10:39:03.000Z</time>
      </trkpt>
      <trkpt lat="43.85033" lon="3.8692">
        <ele>319.8</ele>
        <time>2019-12-22T10:39:21.000Z</time>
      </trkpt>
      <trkpt lat="43.85033" lon="3.86922">
        <ele>319.3</ele>
        <time>2019-12-22T10:39:22.000Z</time>
      </trkpt>
      <trkpt lat="43.85036" lon="3.86931">
        <ele>316.9</ele>
        <time>2019-12-22T10:39:31.000Z</time>
      </trkpt>
      <trkpt lat="43.85039" lon="3.86932">
        <ele>315.5</ele>
        <time>2019-12-22T10:39:34.000Z</time>
      </trkpt>
      <trkpt lat="43.85042" lon="3.86939">
        <ele>312.1</ele>
        <time>2019-12-22T10:39:41.000Z</time>
      </trkpt>
      <trkpt lat="43.85047" lon="3.86949">
        <ele>311.6</ele>
        <time>2019-12-22T10:39:51.000Z</time>
      </trkpt>
      <trkpt lat="43.85053" lon="3.8696">
        <ele>309.2</ele>
        <time>2019-12-22T10:40:01.000Z</time>
      </trkpt>
      <trkpt lat="43.85057" lon="3.86967">
        <ele>310.2</ele>
        <time>2019-12-22T10:40:08.000Z</time>
      </trkpt>
      <trkpt lat="43.85058" lon="3.8697">
        <ele>307.3</ele>
        <time>2019-12-22T10:40:11.000Z</time>
      </trkpt>
      <trkpt lat="43.85066" lon="3.8698">
        <ele>306.3</ele>
        <time>2019-12-22T10:40:25.000Z</time>
      </trkpt>
      <trkpt lat="43.85069" lon="3.86983">
        <ele>303.4</ele>
        <time>2019-12-22T10:40:32.000Z</time>
      </trkpt>
      <trkpt lat="43.85074" lon="3.86986">
        <ele>306.8</ele>
        <time>2019-12-22T10:40:42.000Z</time>
      </trkpt>
      <trkpt lat="43.85077" lon="3.8699">
        <ele>309.7</ele>
        <time>2019-12-22T10:40:50.000Z</time>
      </trkpt>
      <trkpt lat="43.8508" lon="3.86991">
        <ele>306.3</ele>
        <time>2019-12-22T10:40:54.000Z</time>
      </trkpt>
      <trkpt lat="43.8508" lon="3.86992">
        <ele>306.8</ele>
        <time>2019-12-22T10:40:55.000Z</time>
      </trkpt>
      <trkpt lat="43.85081" lon="3.86994">
        <ele>308.2</ele>
        <time>2019-12-22T10:40:57.000Z</time>
      </trkpt>
      <trkpt lat="43.85082" lon="3.86997">
        <ele>305.4</ele>
        <time>2019-12-22T10:40:59.000Z</time>
      </trkpt>
      <trkpt lat="43.85083" lon="3.86998">
        <ele>303.9</ele>
        <time>2019-12-22T10:41:01.000Z</time>
      </trkpt>
      <trkpt lat="43.85086" lon="3.87002">
        <ele>301.5</ele>
        <time>2019-12-22T10:41:08.000Z</time>
      </trkpt>
      <trkpt lat="43.85088" lon="3.87003">
        <ele>299.6</ele>
        <time>2019-12-22T10:41:10.000Z</time>
      </trkpt>
      <trkpt lat="43.85099" lon="3.87001">
        <ele>297.7</ele>
        <time>2019-12-22T10:41:20.000Z</time>
      </trkpt>
      <trkpt lat="43.85101" lon="3.87003">
        <ele>295.7</ele>
        <time>2019-12-22T10:41:22.000Z</time>
      </trkpt>
      <trkpt lat="43.85104" lon="3.87003">
        <ele>295.7</ele>
        <time>2019-12-22T10:41:36.000Z</time>
      </trkpt>
      <trkpt lat="43.85103" lon="3.87005">
        <ele>294.8</ele>
        <time>2019-12-22T10:41:46.000Z</time>
      </trkpt>
      <trkpt lat="43.85104" lon="3.87006">
        <ele>295.3</ele>
        <time>2019-12-22T10:42:13.000Z</time>
      </trkpt>
      <trkpt lat="43.85103" lon="3.87007">
        <ele>294.3</ele>
        <time>2019-12-22T10:42:17.000Z</time>
      </trkpt>
      <trkpt lat="43.85103" lon="3.87007">
        <ele>297.7</ele>
        <time>2019-12-22T10:42:25.000Z</time>
      </trkpt>
      <trkpt lat="43.85103" lon="3.87007">
        <ele>295.3</ele>
        <time>2019-12-22T10:42:28.000Z</time>
      </trkpt>
      <trkpt lat="43.85103" lon="3.87007">
        <ele>296.2</ele>
        <time>2019-12-22T10:42:33.000Z</time>
      </trkpt>
      <trkpt lat="43.85103" lon="3.87007">
        <ele>294.3</ele>
        <time>2019-12-22T10:42:39.000Z</time>
      </trkpt>
      <trkpt lat="43.85103" lon="3.87003">
        <ele>295.3</ele>
        <time>2019-12-22T10:42:50.000Z</time>
      </trkpt>
      <trkpt lat="43.851" lon="3.87001">
        <ele>294.8</ele>
        <time>2019-12-22T10:42:57.000Z</time>
      </trkpt>
      <trkpt lat="43.85097" lon="3.86989">
        <ele>295.7</ele>
        <time>2019-12-22T10:43:08.000Z</time>
      </trkpt>
      <trkpt lat="43.85096" lon="3.86989">
        <ele>301</ele>
        <time>2019-12-22T10:43:09.000Z</time>
      </trkpt>
      <trkpt lat="43.85096" lon="3.86987">
        <ele>297.2</ele>
        <time>2019-12-22T10:43:10.000Z</time>
      </trkpt>
      <trkpt lat="43.85095" lon="3.86983">
        <ele>298.6</ele>
        <time>2019-12-22T10:43:16.000Z</time>
      </trkpt>
      <trkpt lat="43.85096" lon="3.86984">
        <ele>295.3</ele>
        <time>2019-12-22T10:43:17.000Z</time>
      </trkpt>
      <trkpt lat="43.85097" lon="3.86984">
        <ele>296.2</ele>
        <time>2019-12-22T10:43:18.000Z</time>
      </trkpt>
      <trkpt lat="43.85102" lon="3.86989">
        <ele>300.1</ele>
        <time>2019-12-22T10:43:22.000Z</time>
      </trkpt>
      <trkpt lat="43.85104" lon="3.86989">
        <ele>296.2</ele>
        <time>2019-12-22T10:43:26.000Z</time>
      </trkpt>
      <trkpt lat="43.85106" lon="3.86988">
        <ele>293.3</ele>
        <time>2019-12-22T10:43:29.000Z</time>
      </trkpt>
      <trkpt lat="43.85103" lon="3.86979">
        <ele>291.4</ele>
        <time>2019-12-22T10:43:37.000Z</time>
      </trkpt>
      <trkpt lat="43.85101" lon="3.86969">
        <ele>287.1</ele>
        <time>2019-12-22T10:43:45.000Z</time>
      </trkpt>
      <trkpt lat="43.85105" lon="3.86961">
        <ele>284.7</ele>
        <time>2019-12-22T10:43:51.000Z</time>
      </trkpt>
      <trkpt lat="43.8511" lon="3.86956">
        <ele>281.8</ele>
        <time>2019-12-22T10:43:58.000Z</time>
      </trkpt>
      <trkpt lat="43.8511" lon="3.86955">
        <ele>281.8</ele>
        <time>2019-12-22T10:43:59.000Z</time>
      </trkpt>
      <trkpt lat="43.85111" lon="3.86952">
        <ele>283.3</ele>
        <time>2019-12-22T10:44:02.000Z</time>
      </trkpt>
      <trkpt lat="43.85115" lon="3.86945">
        <ele>283.3</ele>
        <time>2019-12-22T10:44:07.000Z</time>
      </trkpt>
      <trkpt lat="43.85117" lon="3.86942">
        <ele>285.2</ele>
        <time>2019-12-22T10:44:09.000Z</time>
      </trkpt>
      <trkpt lat="43.85118" lon="3.86941">
        <ele>281.3</ele>
        <time>2019-12-22T10:44:10.000Z</time>
      </trkpt>
      <trkpt lat="43.85118" lon="3.86939">
        <ele>280.4</ele>
        <time>2019-12-22T10:44:12.000Z</time>
      </trkpt>
      <trkpt lat="43.85122" lon="3.86933">
        <ele>276.5</ele>
        <time>2019-12-22T10:44:16.000Z</time>
      </trkpt>
      <trkpt lat="43.85123" lon="3.86933">
        <ele>276.5</ele>
        <time>2019-12-22T10:44:17.000Z</time>
      </trkpt>
      <trkpt lat="43.85123" lon="3.86932">
        <ele>278.4</ele>
        <time>2019-12-22T10:44:18.000Z</time>
      </trkpt>
      <trkpt lat="43.85129" lon="3.8692">
        <ele>277.5</ele>
        <time>2019-12-22T10:44:31.000Z</time>
      </trkpt>
      <trkpt lat="43.85129" lon="3.86917">
        <ele>279.4</ele>
        <time>2019-12-22T10:44:34.000Z</time>
      </trkpt>
      <trkpt lat="43.85129" lon="3.86916">
        <ele>278.9</ele>
        <time>2019-12-22T10:44:36.000Z</time>
      </trkpt>
      <trkpt lat="43.85131" lon="3.86912">
        <ele>277.5</ele>
        <time>2019-12-22T10:44:41.000Z</time>
      </trkpt>
      <trkpt lat="43.85132" lon="3.8691">
        <ele>275.1</ele>
        <time>2019-12-22T10:44:45.000Z</time>
      </trkpt>
      <trkpt lat="43.85139" lon="3.86907">
        <ele>272.2</ele>
        <time>2019-12-22T10:44:58.000Z</time>
      </trkpt>
      <trkpt lat="43.8514" lon="3.86905">
        <ele>270.8</ele>
        <time>2019-12-22T10:45:00.000Z</time>
      </trkpt>
      <trkpt lat="43.85145" lon="3.86898">
        <ele>272.2</ele>
        <time>2019-12-22T10:45:11.000Z</time>
      </trkpt>
      <trkpt lat="43.85147" lon="3.86891">
        <ele>268.8</ele>
        <time>2019-12-22T10:45:21.000Z</time>
      </trkpt>
      <trkpt lat="43.85148" lon="3.86893">
        <ele>269.3</ele>
        <time>2019-12-22T10:45:39.000Z</time>
      </trkpt>
      <trkpt lat="43.85144" lon="3.86889">
        <ele>268.8</ele>
        <time>2019-12-22T10:45:58.000Z</time>
      </trkpt>
      <trkpt lat="43.85144" lon="3.86889">
        <ele>268.4</ele>
        <time>2019-12-22T10:46:00.000Z</time>
      </trkpt>
      <trkpt lat="43.85146" lon="3.8689">
        <ele>267.4</ele>
        <time>2019-12-22T10:46:15.000Z</time>
      </trkpt>
      <trkpt lat="43.85145" lon="3.8689">
        <ele>268.8</ele>
        <time>2019-12-22T10:46:18.000Z</time>
      </trkpt>
      <trkpt lat="43.85145" lon="3.8689">
        <ele>265.9</ele>
        <time>2019-12-22T10:46:25.000Z</time>
      </trkpt>
      <trkpt lat="43.85146" lon="3.86888">
        <ele>269.8</ele>
        <time>2019-12-22T10:46:40.000Z</time>
      </trkpt>
      <trkpt lat="43.85149" lon="3.86887">
        <ele>268.4</ele>
        <time>2019-12-22T10:46:48.000Z</time>
      </trkpt>
      <trkpt lat="43.85155" lon="3.86881">
        <ele>267.4</ele>
        <time>2019-12-22T10:46:58.000Z</time>
      </trkpt>
      <trkpt lat="43.85155" lon="3.8688">
        <ele>267.4</ele>
        <time>2019-12-22T10:46:59.000Z</time>
      </trkpt>
      <trkpt lat="43.85155" lon="3.86875">
        <ele>266.9</ele>
        <time>2019-12-22T10:47:03.000Z</time>
      </trkpt>
      <trkpt lat="43.85161" lon="3.86865">
        <ele>266.9</ele>
        <time>2019-12-22T10:47:15.000Z</time>
      </trkpt>
      <trkpt lat="43.85164" lon="3.8686">
        <ele>263.5</ele>
        <time>2019-12-22T10:47:21.000Z</time>
      </trkpt>
      <trkpt lat="43.85165" lon="3.86859">
        <ele>263.5</ele>
        <time>2019-12-22T10:47:22.000Z</time>
      </trkpt>
      <trkpt lat="43.85172" lon="3.86856">
        <ele>262.1</ele>
        <time>2019-12-22T10:47:34.000Z</time>
      </trkpt>
      <trkpt lat="43.85176" lon="3.86842">
        <ele>264</ele>
        <time>2019-12-22T10:47:47.000Z</time>
      </trkpt>
      <trkpt lat="43.85176" lon="3.8684">
        <ele>265</ele>
        <time>2019-12-22T10:47:49.000Z</time>
      </trkpt>
      <trkpt lat="43.85182" lon="3.86831">
        <ele>262.1</ele>
        <time>2019-12-22T10:47:58.000Z</time>
      </trkpt>
      <trkpt lat="43.85183" lon="3.8683">
        <ele>265.5</ele>
        <time>2019-12-22T10:48:03.000Z</time>
      </trkpt>
      <trkpt lat="43.85184" lon="3.86829">
        <ele>265</ele>
        <time>2019-12-22T10:48:04.000Z</time>
      </trkpt>
      <trkpt lat="43.85184" lon="3.86823">
        <ele>262.1</ele>
        <time>2019-12-22T10:48:09.000Z</time>
      </trkpt>
      <trkpt lat="43.85185" lon="3.86813">
        <ele>261.1</ele>
        <time>2019-12-22T10:48:17.000Z</time>
      </trkpt>
      <trkpt lat="43.85186" lon="3.86811">
        <ele>259.7</ele>
        <time>2019-12-22T10:48:19.000Z</time>
      </trkpt>
      <trkpt lat="43.85188" lon="3.86808">
        <ele>256.3</ele>
        <time>2019-12-22T10:48:21.000Z</time>
      </trkpt>
      <trkpt lat="43.8519" lon="3.86803">
        <ele>254.4</ele>
        <time>2019-12-22T10:48:26.000Z</time>
      </trkpt>
      <trkpt lat="43.85193" lon="3.868">
        <ele>257.8</ele>
        <time>2019-12-22T10:48:30.000Z</time>
      </trkpt>
      <trkpt lat="43.85196" lon="3.86797">
        <ele>256.3</ele>
        <time>2019-12-22T10:48:35.000Z</time>
      </trkpt>
      <trkpt lat="43.852" lon="3.86796">
        <ele>256.8</ele>
        <time>2019-12-22T10:48:39.000Z</time>
      </trkpt>
      <trkpt lat="43.85204" lon="3.86791">
        <ele>258.3</ele>
        <time>2019-12-22T10:48:47.000Z</time>
      </trkpt>
      <trkpt lat="43.85209" lon="3.86789">
        <ele>258.7</ele>
        <time>2019-12-22T10:48:58.000Z</time>
      </trkpt>
      <trkpt lat="43.85208" lon="3.86788">
        <ele>256.8</ele>
        <time>2019-12-22T10:49:15.000Z</time>
      </trkpt>
      <trkpt lat="43.85208" lon="3.86791">
        <ele>253.9</ele>
        <time>2019-12-22T10:49:33.000Z</time>
      </trkpt>
      <trkpt lat="43.85206" lon="3.86788">
        <ele>256.8</ele>
        <time>2019-12-22T10:49:47.000Z</time>
      </trkpt>
      <trkpt lat="43.85209" lon="3.86787">
        <ele>259.7</ele>
        <time>2019-12-22T10:49:52.000Z</time>
      </trkpt>
      <trkpt lat="43.8521" lon="3.86787">
        <ele>258.3</ele>
        <time>2019-12-22T10:49:58.000Z</time>
      </trkpt>
      <trkpt lat="43.85228" lon="3.86781">
        <ele>259.2</ele>
        <time>2019-12-22T10:50:18.000Z</time>
      </trkpt>
      <trkpt lat="43.85232" lon="3.86773">
        <ele>257.8</ele>
        <time>2019-12-22T10:50:23.000Z</time>
      </trkpt>
      <trkpt lat="43.85234" lon="3.86771">
        <ele>257.8</ele>
        <time>2019-12-22T10:50:25.000Z</time>
      </trkpt>
      <trkpt lat="43.85247" lon="3.86772">
        <ele>256.8</ele>
        <time>2019-12-22T10:50:38.000Z</time>
      </trkpt>
      <trkpt lat="43.8525" lon="3.86771">
        <ele>260.6</ele>
        <time>2019-12-22T10:50:42.000Z</time>
      </trkpt>
      <trkpt lat="43.85255" lon="3.8677">
        <ele>260.2</ele>
        <time>2019-12-22T10:50:46.000Z</time>
      </trkpt>
      <trkpt lat="43.8527" lon="3.8677">
        <ele>256.8</ele>
        <time>2019-12-22T10:51:01.000Z</time>
      </trkpt>
      <trkpt lat="43.85277" lon="3.86774">
        <ele>260.2</ele>
        <time>2019-12-22T10:51:11.000Z</time>
      </trkpt>
      <trkpt lat="43.85289" lon="3.86774">
        <ele>259.2</ele>
        <time>2019-12-22T10:51:24.000Z</time>
      </trkpt>
      <trkpt lat="43.85295" lon="3.86778">
        <ele>261.1</ele>
        <time>2019-12-22T10:51:33.000Z</time>
      </trkpt>
      <trkpt lat="43.853" lon="3.86779">
        <ele>258.7</ele>
        <time>2019-12-22T10:51:39.000Z</time>
      </trkpt>
      <trkpt lat="43.85312" lon="3.86786">
        <ele>258.3</ele>
        <time>2019-12-22T10:51:51.000Z</time>
      </trkpt>
      <trkpt lat="43.85313" lon="3.86789">
        <ele>257.8</ele>
        <time>2019-12-22T10:51:54.000Z</time>
      </trkpt>
      <trkpt lat="43.85317" lon="3.86794">
        <ele>257.8</ele>
        <time>2019-12-22T10:51:59.000Z</time>
      </trkpt>
      <trkpt lat="43.85322" lon="3.86798">
        <ele>258.3</ele>
        <time>2019-12-22T10:52:05.000Z</time>
      </trkpt>
      <trkpt lat="43.85323" lon="3.86799">
        <ele>260.2</ele>
        <time>2019-12-22T10:52:07.000Z</time>
      </trkpt>
      <trkpt lat="43.85328" lon="3.86805">
        <ele>258.7</ele>
        <time>2019-12-22T10:52:14.000Z</time>
      </trkpt>
      <trkpt lat="43.8533" lon="3.86807">
        <ele>256.8</ele>
        <time>2019-12-22T10:52:17.000Z</time>
      </trkpt>
      <trkpt lat="43.85334" lon="3.86808">
        <ele>253.4</ele>
        <time>2019-12-22T10:52:21.000Z</time>
      </trkpt>
      <trkpt lat="43.85335" lon="3.8681">
        <ele>252.5</ele>
        <time>2019-12-22T10:52:23.000Z</time>
      </trkpt>
      <trkpt lat="43.85336" lon="3.86811">
        <ele>256.3</ele>
        <time>2019-12-22T10:52:24.000Z</time>
      </trkpt>
      <trkpt lat="43.85339" lon="3.86812">
        <ele>257.8</ele>
        <time>2019-12-22T10:52:27.000Z</time>
      </trkpt>
      <trkpt lat="43.85341" lon="3.86813">
        <ele>253.4</ele>
        <time>2019-12-22T10:52:29.000Z</time>
      </trkpt>
      <trkpt lat="43.85343" lon="3.86815">
        <ele>255.9</ele>
        <time>2019-12-22T10:52:32.000Z</time>
      </trkpt>
      <trkpt lat="43.85349" lon="3.86817">
        <ele>256.8</ele>
        <time>2019-12-22T10:52:38.000Z</time>
      </trkpt>
      <trkpt lat="43.85353" lon="3.86818">
        <ele>260.6</ele>
        <time>2019-12-22T10:52:41.000Z</time>
      </trkpt>
      <trkpt lat="43.85362" lon="3.86822">
        <ele>257.3</ele>
        <time>2019-12-22T10:52:51.000Z</time>
      </trkpt>
      <trkpt lat="43.85366" lon="3.86822">
        <ele>258.3</ele>
        <time>2019-12-22T10:52:54.000Z</time>
      </trkpt>
      <trkpt lat="43.85373" lon="3.86821">
        <ele>261.6</ele>
        <time>2019-12-22T10:53:00.000Z</time>
      </trkpt>
      <trkpt lat="43.85387" lon="3.86823">
        <ele>261.1</ele>
        <time>2019-12-22T10:53:14.000Z</time>
      </trkpt>
      <trkpt lat="43.85389" lon="3.86822">
        <ele>260.2</ele>
        <time>2019-12-22T10:53:16.000Z</time>
      </trkpt>
      <trkpt lat="43.85393" lon="3.86818">
        <ele>261.1</ele>
        <time>2019-12-22T10:53:20.000Z</time>
      </trkpt>
      <trkpt lat="43.85396" lon="3.8682">
        <ele>255.4</ele>
        <time>2019-12-22T10:53:24.000Z</time>
      </trkpt>
      <trkpt lat="43.85397" lon="3.8682">
        <ele>255.4</ele>
        <time>2019-12-22T10:53:25.000Z</time>
      </trkpt>
      <trkpt lat="43.85402" lon="3.86819">
        <ele>258.7</ele>
        <time>2019-12-22T10:53:30.000Z</time>
      </trkpt>
      <trkpt lat="43.85408" lon="3.86824">
        <ele>256.3</ele>
        <time>2019-12-22T10:53:37.000Z</time>
      </trkpt>
      <trkpt lat="43.85411" lon="3.86827">
        <ele>254.4</ele>
        <time>2019-12-22T10:53:41.000Z</time>
      </trkpt>
      <trkpt lat="43.85414" lon="3.86828">
        <ele>255.9</ele>
        <time>2019-12-22T10:53:44.000Z</time>
      </trkpt>
      <trkpt lat="43.8542" lon="3.86829">
        <ele>261.6</ele>
        <time>2019-12-22T10:53:51.000Z</time>
      </trkpt>
      <trkpt lat="43.85422" lon="3.86829">
        <ele>262.1</ele>
        <time>2019-12-22T10:53:53.000Z</time>
      </trkpt>
      <trkpt lat="43.85427" lon="3.8683">
        <ele>255.9</ele>
        <time>2019-12-22T10:53:58.000Z</time>
      </trkpt>
      <trkpt lat="43.85428" lon="3.86831">
        <ele>255.4</ele>
        <time>2019-12-22T10:53:59.000Z</time>
      </trkpt>
      <trkpt lat="43.85432" lon="3.86833">
        <ele>254.4</ele>
        <time>2019-12-22T10:54:04.000Z</time>
      </trkpt>
      <trkpt lat="43.85437" lon="3.86838">
        <ele>258.7</ele>
        <time>2019-12-22T10:54:09.000Z</time>
      </trkpt>
      <trkpt lat="43.85441" lon="3.86841">
        <ele>261.1</ele>
        <time>2019-12-22T10:54:14.000Z</time>
      </trkpt>
      <trkpt lat="43.85445" lon="3.86846">
        <ele>257.3</ele>
        <time>2019-12-22T10:54:19.000Z</time>
      </trkpt>
      <trkpt lat="43.85445" lon="3.86846">
        <ele>255.9</ele>
        <time>2019-12-22T10:54:20.000Z</time>
      </trkpt>
      <trkpt lat="43.85449" lon="3.86846">
        <ele>251</ele>
        <time>2019-12-22T10:54:24.000Z</time>
      </trkpt>
      <trkpt lat="43.8545" lon="3.86845">
        <ele>251</ele>
        <time>2019-12-22T10:54:25.000Z</time>
      </trkpt>
      <trkpt lat="43.85453" lon="3.86844">
        <ele>254.4</ele>
        <time>2019-12-22T10:54:28.000Z</time>
      </trkpt>
      <trkpt lat="43.85455" lon="3.86845">
        <ele>256.3</ele>
        <time>2019-12-22T10:54:30.000Z</time>
      </trkpt>
      <trkpt lat="43.85464" lon="3.86848">
        <ele>256.8</ele>
        <time>2019-12-22T10:54:41.000Z</time>
      </trkpt>
      <trkpt lat="43.85465" lon="3.86849">
        <ele>255.4</ele>
        <time>2019-12-22T10:54:43.000Z</time>
      </trkpt>
      <trkpt lat="43.85468" lon="3.8685">
        <ele>257.3</ele>
        <time>2019-12-22T10:54:45.000Z</time>
      </trkpt>
      <trkpt lat="43.85471" lon="3.86852">
        <ele>253.9</ele>
        <time>2019-12-22T10:54:48.000Z</time>
      </trkpt>
      <trkpt lat="43.85477" lon="3.86856">
        <ele>254.4</ele>
        <time>2019-12-22T10:54:56.000Z</time>
      </trkpt>
      <trkpt lat="43.85482" lon="3.8686">
        <ele>252</ele>
        <time>2019-12-22T10:55:01.000Z</time>
      </trkpt>
      <trkpt lat="43.85485" lon="3.86861">
        <ele>256.3</ele>
        <time>2019-12-22T10:55:04.000Z</time>
      </trkpt>
      <trkpt lat="43.85495" lon="3.8687">
        <ele>260.2</ele>
        <time>2019-12-22T10:55:15.000Z</time>
      </trkpt>
      <trkpt lat="43.85497" lon="3.8687">
        <ele>260.2</ele>
        <time>2019-12-22T10:55:16.000Z</time>
      </trkpt>
      <trkpt lat="43.855" lon="3.86874">
        <ele>257.3</ele>
        <time>2019-12-22T10:55:20.000Z</time>
      </trkpt>
      <trkpt lat="43.85501" lon="3.86875">
        <ele>257.8</ele>
        <time>2019-12-22T10:55:21.000Z</time>
      </trkpt>
      <trkpt lat="43.85504" lon="3.86881">
        <ele>258.7</ele>
        <time>2019-12-22T10:55:26.000Z</time>
      </trkpt>
      <trkpt lat="43.85508" lon="3.86885">
        <ele>262.6</ele>
        <time>2019-12-22T10:55:31.000Z</time>
      </trkpt>
      <trkpt lat="43.85509" lon="3.86888">
        <ele>263.5</ele>
        <time>2019-12-22T10:55:33.000Z</time>
      </trkpt>
      <trkpt lat="43.85511" lon="3.86896">
        <ele>262.6</ele>
        <time>2019-12-22T10:55:40.000Z</time>
      </trkpt>
      <trkpt lat="43.85512" lon="3.86898">
        <ele>261.1</ele>
        <time>2019-12-22T10:55:42.000Z</time>
      </trkpt>
      <trkpt lat="43.85513" lon="3.86899">
        <ele>262.1</ele>
        <time>2019-12-22T10:55:43.000Z</time>
      </trkpt>
      <trkpt lat="43.85514" lon="3.86902">
        <ele>262.6</ele>
        <time>2019-12-22T10:55:45.000Z</time>
      </trkpt>
      <trkpt lat="43.8552" lon="3.86921">
        <ele>265</ele>
        <time>2019-12-22T10:56:00.000Z</time>
      </trkpt>
      <trkpt lat="43.85522" lon="3.86927">
        <ele>265.9</ele>
        <time>2019-12-22T10:56:04.000Z</time>
      </trkpt>
      <trkpt lat="43.85525" lon="3.86935">
        <ele>264</ele>
        <time>2019-12-22T10:56:09.000Z</time>
      </trkpt>
      <trkpt lat="43.85528" lon="3.86947">
        <ele>267.9</ele>
        <time>2019-12-22T10:56:18.000Z</time>
      </trkpt>
      <trkpt lat="43.85529" lon="3.8695">
        <ele>269.8</ele>
        <time>2019-12-22T10:56:20.000Z</time>
      </trkpt>
      <trkpt lat="43.8553" lon="3.86959">
        <ele>271.7</ele>
        <time>2019-12-22T10:56:27.000Z</time>
      </trkpt>
      <trkpt lat="43.85531" lon="3.86971">
        <ele>276</ele>
        <time>2019-12-22T10:56:35.000Z</time>
      </trkpt>
      <trkpt lat="43.8553" lon="3.86973">
        <ele>276.5</ele>
        <time>2019-12-22T10:56:36.000Z</time>
      </trkpt>
      <trkpt lat="43.8553" lon="3.86982">
        <ele>276.5</ele>
        <time>2019-12-22T10:56:42.000Z</time>
      </trkpt>
      <trkpt lat="43.85529" lon="3.86987">
        <ele>272.7</ele>
        <time>2019-12-22T10:56:45.000Z</time>
      </trkpt>
      <trkpt lat="43.85529" lon="3.86989">
        <ele>273.6</ele>
        <time>2019-12-22T10:56:46.000Z</time>
      </trkpt>
      <trkpt lat="43.85528" lon="3.86991">
        <ele>277</ele>
        <time>2019-12-22T10:56:48.000Z</time>
      </trkpt>
      <trkpt lat="43.85528" lon="3.86992">
        <ele>277</ele>
        <time>2019-12-22T10:56:49.000Z</time>
      </trkpt>
      <trkpt lat="43.85528" lon="3.86995">
        <ele>278.4</ele>
        <time>2019-12-22T10:56:51.000Z</time>
      </trkpt>
      <trkpt lat="43.85528" lon="3.86996">
        <ele>273.6</ele>
        <time>2019-12-22T10:56:52.000Z</time>
      </trkpt>
      <trkpt lat="43.85527" lon="3.86998">
        <ele>278.4</ele>
        <time>2019-12-22T10:56:54.000Z</time>
      </trkpt>
      <trkpt lat="43.85527" lon="3.87">
        <ele>277.5</ele>
        <time>2019-12-22T10:56:55.000Z</time>
      </trkpt>
      <trkpt lat="43.85527" lon="3.87003">
        <ele>275.6</ele>
        <time>2019-12-22T10:56:57.000Z</time>
      </trkpt>
      <trkpt lat="43.85527" lon="3.87008">
        <ele>274.1</ele>
        <time>2019-12-22T10:57:02.000Z</time>
      </trkpt>
      <trkpt lat="43.85529" lon="3.8701">
        <ele>275.1</ele>
        <time>2019-12-22T10:57:17.000Z</time>
      </trkpt>
      <trkpt lat="43.85529" lon="3.87009">
        <ele>278</ele>
        <time>2019-12-22T10:57:18.000Z</time>
      </trkpt>
      <trkpt lat="43.85529" lon="3.8701">
        <ele>276.5</ele>
        <time>2019-12-22T10:57:19.000Z</time>
      </trkpt>
      <trkpt lat="43.85529" lon="3.8701">
        <ele>276.5</ele>
        <time>2019-12-22T10:57:24.000Z</time>
      </trkpt>
      <trkpt lat="43.85528" lon="3.8701">
        <ele>275.6</ele>
        <time>2019-12-22T10:57:26.000Z</time>
      </trkpt>
      <trkpt lat="43.85528" lon="3.87009">
        <ele>271.7</ele>
        <time>2019-12-22T10:57:28.000Z</time>
      </trkpt>
      <trkpt lat="43.85528" lon="3.87008">
        <ele>272.2</ele>
        <time>2019-12-22T10:57:29.000Z</time>
      </trkpt>
      <trkpt lat="43.85528" lon="3.87007">
        <ele>275.6</ele>
        <time>2019-12-22T10:57:31.000Z</time>
      </trkpt>
      <trkpt lat="43.8553" lon="3.87008">
        <ele>276.5</ele>
        <time>2019-12-22T10:57:40.000Z</time>
      </trkpt>
      <trkpt lat="43.85529" lon="3.8701">
        <ele>275.6</ele>
        <time>2019-12-22T10:57:56.000Z</time>
      </trkpt>
      <trkpt lat="43.85527" lon="3.87025">
        <ele>277.5</ele>
        <time>2019-12-22T10:58:05.000Z</time>
      </trkpt>
      <trkpt lat="43.85524" lon="3.87038">
        <ele>279.9</ele>
        <time>2019-12-22T10:58:13.000Z</time>
      </trkpt>
      <trkpt lat="43.85523" lon="3.87041">
        <ele>278.9</ele>
        <time>2019-12-22T10:58:15.000Z</time>
      </trkpt>
      <trkpt lat="43.85522" lon="3.87049">
        <ele>278.9</ele>
        <time>2019-12-22T10:58:21.000Z</time>
      </trkpt>
      <trkpt lat="43.85517" lon="3.87055">
        <ele>279.9</ele>
        <time>2019-12-22T10:58:27.000Z</time>
      </trkpt>
      <trkpt lat="43.85512" lon="3.87071">
        <ele>279.4</ele>
        <time>2019-12-22T10:58:38.000Z</time>
      </trkpt>
      <trkpt lat="43.85511" lon="3.87073">
        <ele>282.8</ele>
        <time>2019-12-22T10:58:40.000Z</time>
      </trkpt>
      <trkpt lat="43.8551" lon="3.87074">
        <ele>279.4</ele>
        <time>2019-12-22T10:58:42.000Z</time>
      </trkpt>
      <trkpt lat="43.85509" lon="3.87074">
        <ele>279.4</ele>
        <time>2019-12-22T10:58:43.000Z</time>
      </trkpt>
      <trkpt lat="43.85507" lon="3.87075">
        <ele>282.3</ele>
        <time>2019-12-22T10:58:45.000Z</time>
      </trkpt>
      <trkpt lat="43.85505" lon="3.87074">
        <ele>279.4</ele>
        <time>2019-12-22T10:58:48.000Z</time>
      </trkpt>
      <trkpt lat="43.85503" lon="3.87076">
        <ele>283.7</ele>
        <time>2019-12-22T10:58:51.000Z</time>
      </trkpt>
      <trkpt lat="43.85503" lon="3.87076">
        <ele>284.2</ele>
        <time>2019-12-22T10:58:52.000Z</time>
      </trkpt>
      <trkpt lat="43.85497" lon="3.87086">
        <ele>285.2</ele>
        <time>2019-12-22T10:59:03.000Z</time>
      </trkpt>
      <trkpt lat="43.85496" lon="3.87089">
        <ele>285.6</ele>
        <time>2019-12-22T10:59:05.000Z</time>
      </trkpt>
      <trkpt lat="43.85496" lon="3.87092">
        <ele>284.2</ele>
        <time>2019-12-22T10:59:07.000Z</time>
      </trkpt>
      <trkpt lat="43.85494" lon="3.87103">
        <ele>285.2</ele>
        <time>2019-12-22T10:59:15.000Z</time>
      </trkpt>
      <trkpt lat="43.85493" lon="3.87105">
        <ele>284.2</ele>
        <time>2019-12-22T10:59:17.000Z</time>
      </trkpt>
      <trkpt lat="43.85493" lon="3.87111">
        <ele>282.3</ele>
        <time>2019-12-22T10:59:22.000Z</time>
      </trkpt>
      <trkpt lat="43.85494" lon="3.87116">
        <ele>279.9</ele>
        <time>2019-12-22T10:59:26.000Z</time>
      </trkpt>
      <trkpt lat="43.85493" lon="3.87119">
        <ele>280.4</ele>
        <time>2019-12-22T10:59:29.000Z</time>
      </trkpt>
      <trkpt lat="43.85486" lon="3.8713">
        <ele>277</ele>
        <time>2019-12-22T10:59:36.000Z</time>
      </trkpt>
      <trkpt lat="43.85486" lon="3.87144">
        <ele>277.5</ele>
        <time>2019-12-22T10:59:46.000Z</time>
      </trkpt>
      <trkpt lat="43.85485" lon="3.87145">
        <ele>277</ele>
        <time>2019-12-22T10:59:47.000Z</time>
      </trkpt>
      <trkpt lat="43.85485" lon="3.87152">
        <ele>275.6</ele>
        <time>2019-12-22T10:59:53.000Z</time>
      </trkpt>
      <trkpt lat="43.85485" lon="3.87156">
        <ele>273.6</ele>
        <time>2019-12-22T10:59:55.000Z</time>
      </trkpt>
      <trkpt lat="43.85486" lon="3.8717">
        <ele>270.3</ele>
        <time>2019-12-22T11:00:01.000Z</time>
      </trkpt>
      <trkpt lat="43.85488" lon="3.87177">
        <ele>267.9</ele>
        <time>2019-12-22T11:00:04.000Z</time>
      </trkpt>
      <trkpt lat="43.85492" lon="3.87186">
        <ele>264</ele>
        <time>2019-12-22T11:00:08.000Z</time>
      </trkpt>
      <trkpt lat="43.85497" lon="3.87195">
        <ele>261.1</ele>
        <time>2019-12-22T11:00:15.000Z</time>
      </trkpt>
      <trkpt lat="43.85506" lon="3.872">
        <ele>258.7</ele>
        <time>2019-12-22T11:00:23.000Z</time>
      </trkpt>
      <trkpt lat="43.85516" lon="3.87203">
        <ele>254.9</ele>
        <time>2019-12-22T11:00:31.000Z</time>
      </trkpt>
      <trkpt lat="43.85517" lon="3.87203">
        <ele>255.4</ele>
        <time>2019-12-22T11:00:32.000Z</time>
      </trkpt>
      <trkpt lat="43.85524" lon="3.87206">
        <ele>252.5</ele>
        <time>2019-12-22T11:00:40.000Z</time>
      </trkpt>
      <trkpt lat="43.85525" lon="3.87207">
        <ele>252.5</ele>
        <time>2019-12-22T11:00:41.000Z</time>
      </trkpt>
      <trkpt lat="43.85527" lon="3.87208">
        <ele>251</ele>
        <time>2019-12-22T11:00:45.000Z</time>
      </trkpt>
      <trkpt lat="43.85535" lon="3.87209">
        <ele>251.5</ele>
        <time>2019-12-22T11:00:57.000Z</time>
      </trkpt>
      <trkpt lat="43.85534" lon="3.87209">
        <ele>251.5</ele>
        <time>2019-12-22T11:01:02.000Z</time>
      </trkpt>
      <trkpt lat="43.85536" lon="3.87207">
        <ele>248.6</ele>
        <time>2019-12-22T11:01:14.000Z</time>
      </trkpt>
      <trkpt lat="43.85536" lon="3.87207">
        <ele>253</ele>
        <time>2019-12-22T11:01:16.000Z</time>
      </trkpt>
      <trkpt lat="43.85536" lon="3.87207">
        <ele>253</ele>
        <time>2019-12-22T11:01:17.000Z</time>
      </trkpt>
      <trkpt lat="43.85537" lon="3.87204">
        <ele>253</ele>
        <time>2019-12-22T11:01:22.000Z</time>
      </trkpt>
      <trkpt lat="43.85537" lon="3.87205">
        <ele>249.6</ele>
        <time>2019-12-22T11:01:32.000Z</time>
      </trkpt>
      <trkpt lat="43.85538" lon="3.87209">
        <ele>251.5</ele>
        <time>2019-12-22T11:01:57.000Z</time>
      </trkpt>
      <trkpt lat="43.85537" lon="3.87207">
        <ele>250.6</ele>
        <time>2019-12-22T11:02:22.000Z</time>
      </trkpt>
      <trkpt lat="43.85537" lon="3.87208">
        <ele>251</ele>
        <time>2019-12-22T11:02:47.000Z</time>
      </trkpt>
      <trkpt lat="43.85537" lon="3.87207">
        <ele>250.6</ele>
        <time>2019-12-22T11:02:48.000Z</time>
      </trkpt>
      <trkpt lat="43.85538" lon="3.87209">
        <ele>252.5</ele>
        <time>2019-12-22T11:03:00.000Z</time>
      </trkpt>
      <trkpt lat="43.85538" lon="3.87215">
        <ele>248.6</ele>
        <time>2019-12-22T11:03:09.000Z</time>
      </trkpt>
      <trkpt lat="43.85537" lon="3.87228">
        <ele>249.6</ele>
        <time>2019-12-22T11:03:23.000Z</time>
      </trkpt>
      <trkpt lat="43.85536" lon="3.87229">
        <ele>249.6</ele>
        <time>2019-12-22T11:03:24.000Z</time>
      </trkpt>
      <trkpt lat="43.85534" lon="3.87232">
        <ele>246.7</ele>
        <time>2019-12-22T11:03:27.000Z</time>
      </trkpt>
      <trkpt lat="43.85534" lon="3.87234">
        <ele>246.7</ele>
        <time>2019-12-22T11:03:28.000Z</time>
      </trkpt>
      <trkpt lat="43.85533" lon="3.87236">
        <ele>248.2</ele>
        <time>2019-12-22T11:03:30.000Z</time>
      </trkpt>
      <trkpt lat="43.85527" lon="3.87253">
        <ele>245.8</ele>
        <time>2019-12-22T11:03:45.000Z</time>
      </trkpt>
      <trkpt lat="43.85528" lon="3.87255">
        <ele>245.3</ele>
        <time>2019-12-22T11:03:47.000Z</time>
      </trkpt>
      <trkpt lat="43.8553" lon="3.87259">
        <ele>245.3</ele>
        <time>2019-12-22T11:03:51.000Z</time>
      </trkpt>
      <trkpt lat="43.8553" lon="3.87269">
        <ele>242.4</ele>
        <time>2019-12-22T11:03:57.000Z</time>
      </trkpt>
      <trkpt lat="43.85532" lon="3.87285">
        <ele>239.5</ele>
        <time>2019-12-22T11:04:09.000Z</time>
      </trkpt>
      <trkpt lat="43.85535" lon="3.87288">
        <ele>237.1</ele>
        <time>2019-12-22T11:04:12.000Z</time>
      </trkpt>
      <trkpt lat="43.85543" lon="3.87298">
        <ele>236.6</ele>
        <time>2019-12-22T11:04:21.000Z</time>
      </trkpt>
      <trkpt lat="43.85544" lon="3.87301">
        <ele>234.7</ele>
        <time>2019-12-22T11:04:23.000Z</time>
      </trkpt>
      <trkpt lat="43.85549" lon="3.87314">
        <ele>233.3</ele>
        <time>2019-12-22T11:04:35.000Z</time>
      </trkpt>
      <trkpt lat="43.85552" lon="3.8732">
        <ele>231.3</ele>
        <time>2019-12-22T11:04:40.000Z</time>
      </trkpt>
      <trkpt lat="43.85551" lon="3.87323">
        <ele>231.3</ele>
        <time>2019-12-22T11:04:45.000Z</time>
      </trkpt>
      <trkpt lat="43.85549" lon="3.87327">
        <ele>230.4</ele>
        <time>2019-12-22T11:04:58.000Z</time>
      </trkpt>
      <trkpt lat="43.85541" lon="3.87332">
        <ele>230.4</ele>
        <time>2019-12-22T11:05:07.000Z</time>
      </trkpt>
      <trkpt lat="43.85527" lon="3.87338">
        <ele>229.4</ele>
        <time>2019-12-22T11:05:22.000Z</time>
      </trkpt>
      <trkpt lat="43.85513" lon="3.87341">
        <ele>230.9</ele>
        <time>2019-12-22T11:05:36.000Z</time>
      </trkpt>
      <trkpt lat="43.85508" lon="3.87341">
        <ele>232.3</ele>
        <time>2019-12-22T11:05:41.000Z</time>
      </trkpt>
      <trkpt lat="43.855" lon="3.87346">
        <ele>231.8</ele>
        <time>2019-12-22T11:05:53.000Z</time>
      </trkpt>
      <trkpt lat="43.85499" lon="3.87348">
        <ele>231.8</ele>
        <time>2019-12-22T11:06:02.000Z</time>
      </trkpt>
      <trkpt lat="43.85494" lon="3.87349">
        <ele>227.5</ele>
        <time>2019-12-22T11:06:06.000Z</time>
      </trkpt>
      <trkpt lat="43.85493" lon="3.87349">
        <ele>227.5</ele>
        <time>2019-12-22T11:06:07.000Z</time>
      </trkpt>
      <trkpt lat="43.85479" lon="3.87356">
        <ele>228.4</ele>
        <time>2019-12-22T11:06:22.000Z</time>
      </trkpt>
      <trkpt lat="43.85459" lon="3.87351">
        <ele>228.9</ele>
        <time>2019-12-22T11:06:39.000Z</time>
      </trkpt>
      <trkpt lat="43.85457" lon="3.87352">
        <ele>228.4</ele>
        <time>2019-12-22T11:06:41.000Z</time>
      </trkpt>
      <trkpt lat="43.85456" lon="3.87353">
        <ele>228.4</ele>
        <time>2019-12-22T11:06:42.000Z</time>
      </trkpt>
      <trkpt lat="43.85449" lon="3.87363">
        <ele>228.4</ele>
        <time>2019-12-22T11:06:52.000Z</time>
      </trkpt>
      <trkpt lat="43.85445" lon="3.87366">
        <ele>230.9</ele>
        <time>2019-12-22T11:06:57.000Z</time>
      </trkpt>
      <trkpt lat="43.85436" lon="3.87364">
        <ele>229.9</ele>
        <time>2019-12-22T11:07:03.000Z</time>
      </trkpt>
      <trkpt lat="43.85434" lon="3.87366">
        <ele>231.3</ele>
        <time>2019-12-22T11:07:05.000Z</time>
      </trkpt>
      <trkpt lat="43.85431" lon="3.87368">
        <ele>229.4</ele>
        <time>2019-12-22T11:07:07.000Z</time>
      </trkpt>
      <trkpt lat="43.85427" lon="3.87374">
        <ele>228</ele>
        <time>2019-12-22T11:07:13.000Z</time>
      </trkpt>
      <trkpt lat="43.85427" lon="3.87384">
        <ele>229.4</ele>
        <time>2019-12-22T11:07:19.000Z</time>
      </trkpt>
      <trkpt lat="43.85427" lon="3.87389">
        <ele>227</ele>
        <time>2019-12-22T11:07:22.000Z</time>
      </trkpt>
      <trkpt lat="43.85426" lon="3.87393">
        <ele>226.1</ele>
        <time>2019-12-22T11:07:25.000Z</time>
      </trkpt>
      <trkpt lat="43.85426" lon="3.87395">
        <ele>225.1</ele>
        <time>2019-12-22T11:07:27.000Z</time>
      </trkpt>
      <trkpt lat="43.85422" lon="3.87417">
        <ele>224.6</ele>
        <time>2019-12-22T11:07:41.000Z</time>
      </trkpt>
      <trkpt lat="43.85415" lon="3.87438">
        <ele>222.2</ele>
        <time>2019-12-22T11:07:57.000Z</time>
      </trkpt>
      <trkpt lat="43.8541" lon="3.87454">
        <ele>220.8</ele>
        <time>2019-12-22T11:08:09.000Z</time>
      </trkpt>
      <trkpt lat="43.85404" lon="3.87462">
        <ele>218.4</ele>
        <time>2019-12-22T11:08:17.000Z</time>
      </trkpt>
      <trkpt lat="43.85402" lon="3.87471">
        <ele>217.4</ele>
        <time>2019-12-22T11:08:24.000Z</time>
      </trkpt>
      <trkpt lat="43.85404" lon="3.87485">
        <ele>216.9</ele>
        <time>2019-12-22T11:08:38.000Z</time>
      </trkpt>
      <trkpt lat="43.85405" lon="3.87486">
        <ele>214.5</ele>
        <time>2019-12-22T11:08:44.000Z</time>
      </trkpt>
      <trkpt lat="43.85394" lon="3.87484">
        <ele>215.9</ele>
        <time>2019-12-22T11:09:06.000Z</time>
      </trkpt>
      <trkpt lat="43.85392" lon="3.87479">
        <ele>219.8</ele>
        <time>2019-12-22T11:09:12.000Z</time>
      </trkpt>
      <trkpt lat="43.85391" lon="3.87477">
        <ele>221.2</ele>
        <time>2019-12-22T11:09:14.000Z</time>
      </trkpt>
      <trkpt lat="43.85387" lon="3.87472">
        <ele>217.9</ele>
        <time>2019-12-22T11:09:19.000Z</time>
      </trkpt>
      <trkpt lat="43.85384" lon="3.87467">
        <ele>221.2</ele>
        <time>2019-12-22T11:09:25.000Z</time>
      </trkpt>
      <trkpt lat="43.85383" lon="3.87466">
        <ele>220.8</ele>
        <time>2019-12-22T11:09:26.000Z</time>
      </trkpt>
      <trkpt lat="43.85378" lon="3.87459">
        <ele>223.6</ele>
        <time>2019-12-22T11:09:34.000Z</time>
      </trkpt>
      <trkpt lat="43.85375" lon="3.87458">
        <ele>220.3</ele>
        <time>2019-12-22T11:09:37.000Z</time>
      </trkpt>
      <trkpt lat="43.85374" lon="3.87457">
        <ele>220.3</ele>
        <time>2019-12-22T11:09:38.000Z</time>
      </trkpt>
      <trkpt lat="43.85372" lon="3.87454">
        <ele>225.1</ele>
        <time>2019-12-22T11:09:42.000Z</time>
      </trkpt>
      <trkpt lat="43.85365" lon="3.87452">
        <ele>225.1</ele>
        <time>2019-12-22T11:09:51.000Z</time>
      </trkpt>
      <trkpt lat="43.85362" lon="3.87451">
        <ele>223.6</ele>
        <time>2019-12-22T11:09:54.000Z</time>
      </trkpt>
      <trkpt lat="43.85359" lon="3.8745">
        <ele>226.1</ele>
        <time>2019-12-22T11:09:57.000Z</time>
      </trkpt>
      <trkpt lat="43.85355" lon="3.87449">
        <ele>224.1</ele>
        <time>2019-12-22T11:10:02.000Z</time>
      </trkpt>
      <trkpt lat="43.8535" lon="3.87447">
        <ele>226.1</ele>
        <time>2019-12-22T11:10:07.000Z</time>
      </trkpt>
      <trkpt lat="43.85349" lon="3.87446">
        <ele>229.4</ele>
        <time>2019-12-22T11:10:09.000Z</time>
      </trkpt>
      <trkpt lat="43.85347" lon="3.87444">
        <ele>227.5</ele>
        <time>2019-12-22T11:10:12.000Z</time>
      </trkpt>
      <trkpt lat="43.85344" lon="3.87441">
        <ele>228.4</ele>
        <time>2019-12-22T11:10:16.000Z</time>
      </trkpt>
      <trkpt lat="43.85334" lon="3.87436">
        <ele>228</ele>
        <time>2019-12-22T11:10:29.000Z</time>
      </trkpt>
      <trkpt lat="43.8533" lon="3.87432">
        <ele>227</ele>
        <time>2019-12-22T11:10:35.000Z</time>
      </trkpt>
      <trkpt lat="43.85329" lon="3.8743">
        <ele>229.9</ele>
        <time>2019-12-22T11:10:38.000Z</time>
      </trkpt>
      <trkpt lat="43.85325" lon="3.87427">
        <ele>227</ele>
        <time>2019-12-22T11:10:44.000Z</time>
      </trkpt>
      <trkpt lat="43.85325" lon="3.87428">
        <ele>227.5</ele>
        <time>2019-12-22T11:10:45.000Z</time>
      </trkpt>
      <trkpt lat="43.85323" lon="3.87426">
        <ele>228</ele>
        <time>2019-12-22T11:10:48.000Z</time>
      </trkpt>
      <trkpt lat="43.85316" lon="3.87419">
        <ele>231.8</ele>
        <time>2019-12-22T11:10:57.000Z</time>
      </trkpt>
      <trkpt lat="43.85311" lon="3.87414">
        <ele>232.3</ele>
        <time>2019-12-22T11:11:04.000Z</time>
      </trkpt>
      <trkpt lat="43.85309" lon="3.87412">
        <ele>236.6</ele>
        <time>2019-12-22T11:11:07.000Z</time>
      </trkpt>
      <trkpt lat="43.85307" lon="3.87409">
        <ele>234.7</ele>
        <time>2019-12-22T11:11:11.000Z</time>
      </trkpt>
      <trkpt lat="43.85303" lon="3.87402">
        <ele>235.7</ele>
        <time>2019-12-22T11:11:19.000Z</time>
      </trkpt>
      <trkpt lat="43.85302" lon="3.87397">
        <ele>233.7</ele>
        <time>2019-12-22T11:11:24.000Z</time>
      </trkpt>
      <trkpt lat="43.853" lon="3.87395">
        <ele>236.1</ele>
        <time>2019-12-22T11:11:28.000Z</time>
      </trkpt>
      <trkpt lat="43.85299" lon="3.87383">
        <ele>238.5</ele>
        <time>2019-12-22T11:11:39.000Z</time>
      </trkpt>
      <trkpt lat="43.85298" lon="3.87377">
        <ele>241.9</ele>
        <time>2019-12-22T11:11:44.000Z</time>
      </trkpt>
      <trkpt lat="43.85296" lon="3.87375">
        <ele>240.5</ele>
        <time>2019-12-22T11:11:47.000Z</time>
      </trkpt>
      <trkpt lat="43.85292" lon="3.87369">
        <ele>243.8</ele>
        <time>2019-12-22T11:11:57.000Z</time>
      </trkpt>
      <trkpt lat="43.85291" lon="3.87368">
        <ele>243.4</ele>
        <time>2019-12-22T11:11:58.000Z</time>
      </trkpt>
      <trkpt lat="43.85291" lon="3.87365">
        <ele>241.9</ele>
        <time>2019-12-22T11:12:11.000Z</time>
      </trkpt>
      <trkpt lat="43.85291" lon="3.87361">
        <ele>241.4</ele>
        <time>2019-12-22T11:12:23.000Z</time>
      </trkpt>
      <trkpt lat="43.85291" lon="3.87359">
        <ele>237.6</ele>
        <time>2019-12-22T11:12:28.000Z</time>
      </trkpt>
      <trkpt lat="43.85291" lon="3.87358">
        <ele>237.6</ele>
        <time>2019-12-22T11:12:33.000Z</time>
      </trkpt>
      <trkpt lat="43.85289" lon="3.87361">
        <ele>226.1</ele>
        <time>2019-12-22T12:18:48.000Z</time>
      </trkpt>
      <trkpt lat="43.85289" lon="3.87358">
        <ele>229.9</ele>
        <time>2019-12-22T12:19:03.000Z</time>
      </trkpt>
      <trkpt lat="43.85289" lon="3.87358">
        <ele>229.9</ele>
        <time>2019-12-22T12:19:04.000Z</time>
      </trkpt>
      <trkpt lat="43.85289" lon="3.87359">
        <ele>233.3</ele>
        <time>2019-12-22T12:19:10.000Z</time>
      </trkpt>
      <trkpt lat="43.85288" lon="3.87359">
        <ele>234.7</ele>
        <time>2019-12-22T12:19:14.000Z</time>
      </trkpt>
      <trkpt lat="43.85285" lon="3.87351">
        <ele>237.6</ele>
        <time>2019-12-22T12:19:22.000Z</time>
      </trkpt>
      <trkpt lat="43.85285" lon="3.87349">
        <ele>238.1</ele>
        <time>2019-12-22T12:19:23.000Z</time>
      </trkpt>
      <trkpt lat="43.85283" lon="3.87341">
        <ele>240.9</ele>
        <time>2019-12-22T12:19:29.000Z</time>
      </trkpt>
      <trkpt lat="43.85281" lon="3.87339">
        <ele>241.4</ele>
        <time>2019-12-22T12:19:31.000Z</time>
      </trkpt>
      <trkpt lat="43.8528" lon="3.87329">
        <ele>243.4</ele>
        <time>2019-12-22T12:19:38.000Z</time>
      </trkpt>
      <trkpt lat="43.85277" lon="3.87301">
        <ele>244.8</ele>
        <time>2019-12-22T12:19:54.000Z</time>
      </trkpt>
      <trkpt lat="43.85271" lon="3.87282">
        <ele>246.7</ele>
        <time>2019-12-22T12:20:09.000Z</time>
      </trkpt>
      <trkpt lat="43.85264" lon="3.87272">
        <ele>250.6</ele>
        <time>2019-12-22T12:20:20.000Z</time>
      </trkpt>
      <trkpt lat="43.85263" lon="3.87271">
        <ele>251</ele>
        <time>2019-12-22T12:20:21.000Z</time>
      </trkpt>
      <trkpt lat="43.85254" lon="3.87264">
        <ele>253.4</ele>
        <time>2019-12-22T12:20:35.000Z</time>
      </trkpt>
      <trkpt lat="43.85244" lon="3.87255">
        <ele>254.4</ele>
        <time>2019-12-22T12:20:48.000Z</time>
      </trkpt>
      <trkpt lat="43.85242" lon="3.87254">
        <ele>254.9</ele>
        <time>2019-12-22T12:20:50.000Z</time>
      </trkpt>
      <trkpt lat="43.85228" lon="3.87242">
        <ele>256.3</ele>
        <time>2019-12-22T12:21:05.000Z</time>
      </trkpt>
      <trkpt lat="43.85218" lon="3.87228">
        <ele>256.8</ele>
        <time>2019-12-22T12:21:22.000Z</time>
      </trkpt>
      <trkpt lat="43.85208" lon="3.87219">
        <ele>259.2</ele>
        <time>2019-12-22T12:21:37.000Z</time>
      </trkpt>
      <trkpt lat="43.85201" lon="3.87208">
        <ele>260.2</ele>
        <time>2019-12-22T12:21:53.000Z</time>
      </trkpt>
      <trkpt lat="43.85193" lon="3.87199">
        <ele>262.6</ele>
        <time>2019-12-22T12:22:10.000Z</time>
      </trkpt>
      <trkpt lat="43.85187" lon="3.87191">
        <ele>265.5</ele>
        <time>2019-12-22T12:22:25.000Z</time>
      </trkpt>
      <trkpt lat="43.85179" lon="3.87185">
        <ele>266.9</ele>
        <time>2019-12-22T12:22:39.000Z</time>
      </trkpt>
      <trkpt lat="43.85173" lon="3.87176">
        <ele>268.8</ele>
        <time>2019-12-22T12:22:54.000Z</time>
      </trkpt>
      <trkpt lat="43.85165" lon="3.87167">
        <ele>270.8</ele>
        <time>2019-12-22T12:23:07.000Z</time>
      </trkpt>
      <trkpt lat="43.85159" lon="3.87152">
        <ele>271.2</ele>
        <time>2019-12-22T12:23:25.000Z</time>
      </trkpt>
      <trkpt lat="43.85158" lon="3.8715">
        <ele>271.7</ele>
        <time>2019-12-22T12:23:42.000Z</time>
      </trkpt>
      <trkpt lat="43.85154" lon="3.87152">
        <ele>274.1</ele>
        <time>2019-12-22T12:24:01.000Z</time>
      </trkpt>
      <trkpt lat="43.8515" lon="3.87151">
        <ele>271.7</ele>
        <time>2019-12-22T12:24:11.000Z</time>
      </trkpt>
      <trkpt lat="43.85137" lon="3.87147">
        <ele>268.8</ele>
        <time>2019-12-22T12:24:27.000Z</time>
      </trkpt>
      <trkpt lat="43.85129" lon="3.87151">
        <ele>268.4</ele>
        <time>2019-12-22T12:24:38.000Z</time>
      </trkpt>
      <trkpt lat="43.85124" lon="3.8715">
        <ele>270.8</ele>
        <time>2019-12-22T12:24:45.000Z</time>
      </trkpt>
      <trkpt lat="43.85115" lon="3.87157">
        <ele>269.8</ele>
        <time>2019-12-22T12:24:59.000Z</time>
      </trkpt>
      <trkpt lat="43.8511" lon="3.87163">
        <ele>267.9</ele>
        <time>2019-12-22T12:25:06.000Z</time>
      </trkpt>
      <trkpt lat="43.85109" lon="3.87167">
        <ele>266.9</ele>
        <time>2019-12-22T12:25:09.000Z</time>
      </trkpt>
      <trkpt lat="43.85106" lon="3.8717">
        <ele>270.3</ele>
        <time>2019-12-22T12:25:12.000Z</time>
      </trkpt>
      <trkpt lat="43.85102" lon="3.87171">
        <ele>267.9</ele>
        <time>2019-12-22T12:25:17.000Z</time>
      </trkpt>
      <trkpt lat="43.85101" lon="3.87172">
        <ele>266.4</ele>
        <time>2019-12-22T12:25:19.000Z</time>
      </trkpt>
      <trkpt lat="43.85092" lon="3.87176">
        <ele>267.9</ele>
        <time>2019-12-22T12:25:32.000Z</time>
      </trkpt>
      <trkpt lat="43.85087" lon="3.87189">
        <ele>267.4</ele>
        <time>2019-12-22T12:25:47.000Z</time>
      </trkpt>
      <trkpt lat="43.85086" lon="3.872">
        <ele>267.9</ele>
        <time>2019-12-22T12:26:00.000Z</time>
      </trkpt>
      <trkpt lat="43.85085" lon="3.87205">
        <ele>267.9</ele>
        <time>2019-12-22T12:26:05.000Z</time>
      </trkpt>
      <trkpt lat="43.85086" lon="3.8721">
        <ele>266.4</ele>
        <time>2019-12-22T12:26:08.000Z</time>
      </trkpt>
      <trkpt lat="43.85096" lon="3.87227">
        <ele>267.4</ele>
        <time>2019-12-22T12:26:22.000Z</time>
      </trkpt>
      <trkpt lat="43.85095" lon="3.87244">
        <ele>266.4</ele>
        <time>2019-12-22T12:26:34.000Z</time>
      </trkpt>
      <trkpt lat="43.85096" lon="3.87253">
        <ele>269.3</ele>
        <time>2019-12-22T12:26:43.000Z</time>
      </trkpt>
      <trkpt lat="43.85098" lon="3.87259">
        <ele>270.3</ele>
        <time>2019-12-22T12:26:49.000Z</time>
      </trkpt>
      <trkpt lat="43.851" lon="3.87263">
        <ele>271.7</ele>
        <time>2019-12-22T12:26:53.000Z</time>
      </trkpt>
      <trkpt lat="43.85104" lon="3.87279">
        <ele>270.3</ele>
        <time>2019-12-22T12:27:06.000Z</time>
      </trkpt>
      <trkpt lat="43.8511" lon="3.87296">
        <ele>269.8</ele>
        <time>2019-12-22T12:27:22.000Z</time>
      </trkpt>
      <trkpt lat="43.8511" lon="3.87299">
        <ele>267.4</ele>
        <time>2019-12-22T12:27:24.000Z</time>
      </trkpt>
      <trkpt lat="43.85109" lon="3.87307">
        <ele>267.9</ele>
        <time>2019-12-22T12:27:30.000Z</time>
      </trkpt>
      <trkpt lat="43.85107" lon="3.87314">
        <ele>270.3</ele>
        <time>2019-12-22T12:27:37.000Z</time>
      </trkpt>
      <trkpt lat="43.85103" lon="3.87327">
        <ele>271.7</ele>
        <time>2019-12-22T12:27:50.000Z</time>
      </trkpt>
      <trkpt lat="43.85102" lon="3.87332">
        <ele>267.9</ele>
        <time>2019-12-22T12:27:54.000Z</time>
      </trkpt>
      <trkpt lat="43.85102" lon="3.87333">
        <ele>267.4</ele>
        <time>2019-12-22T12:27:55.000Z</time>
      </trkpt>
      <trkpt lat="43.85102" lon="3.87338">
        <ele>272.2</ele>
        <time>2019-12-22T12:27:59.000Z</time>
      </trkpt>
      <trkpt lat="43.85096" lon="3.87359">
        <ele>270.3</ele>
        <time>2019-12-22T12:28:16.000Z</time>
      </trkpt>
      <trkpt lat="43.85095" lon="3.87371">
        <ele>270.8</ele>
        <time>2019-12-22T12:28:28.000Z</time>
      </trkpt>
      <trkpt lat="43.85093" lon="3.87381">
        <ele>272.7</ele>
        <time>2019-12-22T12:28:41.000Z</time>
      </trkpt>
      <trkpt lat="43.85093" lon="3.87379">
        <ele>271.2</ele>
        <time>2019-12-22T12:28:46.000Z</time>
      </trkpt>
      <trkpt lat="43.8509" lon="3.87381">
        <ele>270.8</ele>
        <time>2019-12-22T12:28:49.000Z</time>
      </trkpt>
      <trkpt lat="43.85082" lon="3.87403">
        <ele>271.7</ele>
        <time>2019-12-22T12:29:03.000Z</time>
      </trkpt>
      <trkpt lat="43.85079" lon="3.87406">
        <ele>271.2</ele>
        <time>2019-12-22T12:29:06.000Z</time>
      </trkpt>
      <trkpt lat="43.85071" lon="3.8742">
        <ele>272.7</ele>
        <time>2019-12-22T12:29:17.000Z</time>
      </trkpt>
      <trkpt lat="43.85062" lon="3.87433">
        <ele>272.2</ele>
        <time>2019-12-22T12:29:30.000Z</time>
      </trkpt>
      <trkpt lat="43.85055" lon="3.87447">
        <ele>272.7</ele>
        <time>2019-12-22T12:29:42.000Z</time>
      </trkpt>
      <trkpt lat="43.85051" lon="3.87466">
        <ele>271.2</ele>
        <time>2019-12-22T12:29:57.000Z</time>
      </trkpt>
      <trkpt lat="43.85047" lon="3.87483">
        <ele>269.8</ele>
        <time>2019-12-22T12:30:12.000Z</time>
      </trkpt>
      <trkpt lat="43.85043" lon="3.87486">
        <ele>268.8</ele>
        <time>2019-12-22T12:30:17.000Z</time>
      </trkpt>
      <trkpt lat="43.85038" lon="3.87494">
        <ele>269.8</ele>
        <time>2019-12-22T12:30:23.000Z</time>
      </trkpt>
      <trkpt lat="43.85036" lon="3.87506">
        <ele>269.3</ele>
        <time>2019-12-22T12:30:31.000Z</time>
      </trkpt>
      <trkpt lat="43.85026" lon="3.87523">
        <ele>269.3</ele>
        <time>2019-12-22T12:30:47.000Z</time>
      </trkpt>
      <trkpt lat="43.85017" lon="3.87531">
        <ele>270.3</ele>
        <time>2019-12-22T12:30:58.000Z</time>
      </trkpt>
      <trkpt lat="43.85015" lon="3.87534">
        <ele>268.8</ele>
        <time>2019-12-22T12:31:01.000Z</time>
      </trkpt>
      <trkpt lat="43.84998" lon="3.87546">
        <ele>268.8</ele>
        <time>2019-12-22T12:31:19.000Z</time>
      </trkpt>
      <trkpt lat="43.84985" lon="3.8755">
        <ele>270.8</ele>
        <time>2019-12-22T12:31:33.000Z</time>
      </trkpt>
      <trkpt lat="43.84975" lon="3.87559">
        <ele>271.7</ele>
        <time>2019-12-22T12:31:47.000Z</time>
      </trkpt>
      <trkpt lat="43.84961" lon="3.8756">
        <ele>271.2</ele>
        <time>2019-12-22T12:32:02.000Z</time>
      </trkpt>
      <trkpt lat="43.84959" lon="3.8756">
        <ele>270.8</ele>
        <time>2019-12-22T12:32:05.000Z</time>
      </trkpt>
      <trkpt lat="43.84941" lon="3.87555">
        <ele>270.8</ele>
        <time>2019-12-22T12:32:22.000Z</time>
      </trkpt>
      <trkpt lat="43.84926" lon="3.87554">
        <ele>270.3</ele>
        <time>2019-12-22T12:32:37.000Z</time>
      </trkpt>
      <trkpt lat="43.84916" lon="3.87549">
        <ele>269.8</ele>
        <time>2019-12-22T12:32:51.000Z</time>
      </trkpt>
      <trkpt lat="43.84916" lon="3.87544">
        <ele>270.8</ele>
        <time>2019-12-22T12:32:58.000Z</time>
      </trkpt>
      <trkpt lat="43.84915" lon="3.87535">
        <ele>271.2</ele>
        <time>2019-12-22T12:33:04.000Z</time>
      </trkpt>
      <trkpt lat="43.84916" lon="3.87532">
        <ele>269.8</ele>
        <time>2019-12-22T12:33:07.000Z</time>
      </trkpt>
      <trkpt lat="43.84911" lon="3.87512">
        <ele>268.8</ele>
        <time>2019-12-22T12:33:24.000Z</time>
      </trkpt>
      <trkpt lat="43.84908" lon="3.87491">
        <ele>269.3</ele>
        <time>2019-12-22T12:33:37.000Z</time>
      </trkpt>
      <trkpt lat="43.8491" lon="3.87484">
        <ele>269.8</ele>
        <time>2019-12-22T12:33:42.000Z</time>
      </trkpt>
      <trkpt lat="43.84913" lon="3.87475">
        <ele>269.8</ele>
        <time>2019-12-22T12:33:49.000Z</time>
      </trkpt>
      <trkpt lat="43.8491" lon="3.87466">
        <ele>269.3</ele>
        <time>2019-12-22T12:33:56.000Z</time>
      </trkpt>
      <trkpt lat="43.84909" lon="3.87463">
        <ele>269.3</ele>
        <time>2019-12-22T12:33:58.000Z</time>
      </trkpt>
      <trkpt lat="43.84906" lon="3.87455">
        <ele>269.3</ele>
        <time>2019-12-22T12:34:05.000Z</time>
      </trkpt>
      <trkpt lat="43.84907" lon="3.87432">
        <ele>269.3</ele>
        <time>2019-12-22T12:34:20.000Z</time>
      </trkpt>
      <trkpt lat="43.849" lon="3.87413">
        <ele>270.8</ele>
        <time>2019-12-22T12:34:35.000Z</time>
      </trkpt>
      <trkpt lat="43.84889" lon="3.87395">
        <ele>269.3</ele>
        <time>2019-12-22T12:34:53.000Z</time>
      </trkpt>
      <trkpt lat="43.84883" lon="3.87374">
        <ele>269.3</ele>
        <time>2019-12-22T12:35:08.000Z</time>
      </trkpt>
      <trkpt lat="43.84871" lon="3.87352">
        <ele>268.4</ele>
        <time>2019-12-22T12:35:26.000Z</time>
      </trkpt>
      <trkpt lat="43.84869" lon="3.87338">
        <ele>268.4</ele>
        <time>2019-12-22T12:35:42.000Z</time>
      </trkpt>
      <trkpt lat="43.84869" lon="3.87335">
        <ele>269.3</ele>
        <time>2019-12-22T12:35:59.000Z</time>
      </trkpt>
      <trkpt lat="43.8487" lon="3.87333">
        <ele>268.8</ele>
        <time>2019-12-22T12:36:24.000Z</time>
      </trkpt>
      <trkpt lat="43.84863" lon="3.87318">
        <ele>269.3</ele>
        <time>2019-12-22T12:36:41.000Z</time>
      </trkpt>
      <trkpt lat="43.8485" lon="3.87314">
        <ele>268.4</ele>
        <time>2019-12-22T12:36:54.000Z</time>
      </trkpt>
      <trkpt lat="43.84844" lon="3.87316">
        <ele>269.3</ele>
        <time>2019-12-22T12:37:00.000Z</time>
      </trkpt>
      <trkpt lat="43.84836" lon="3.87327">
        <ele>268.8</ele>
        <time>2019-12-22T12:37:11.000Z</time>
      </trkpt>
      <trkpt lat="43.84834" lon="3.87342">
        <ele>265.9</ele>
        <time>2019-12-22T12:37:22.000Z</time>
      </trkpt>
      <trkpt lat="43.84827" lon="3.87356">
        <ele>263.5</ele>
        <time>2019-12-22T12:37:36.000Z</time>
      </trkpt>
      <trkpt lat="43.84818" lon="3.87366">
        <ele>260.2</ele>
        <time>2019-12-22T12:37:53.000Z</time>
      </trkpt>
      <trkpt lat="43.84812" lon="3.87378">
        <ele>258.3</ele>
        <time>2019-12-22T12:38:07.000Z</time>
      </trkpt>
      <trkpt lat="43.84803" lon="3.87391">
        <ele>258.3</ele>
        <time>2019-12-22T12:38:22.000Z</time>
      </trkpt>
      <trkpt lat="43.84794" lon="3.87406">
        <ele>254.9</ele>
        <time>2019-12-22T12:38:37.000Z</time>
      </trkpt>
      <trkpt lat="43.84786" lon="3.87424">
        <ele>252.5</ele>
        <time>2019-12-22T12:38:55.000Z</time>
      </trkpt>
      <trkpt lat="43.8478" lon="3.87436">
        <ele>251</ele>
        <time>2019-12-22T12:39:09.000Z</time>
      </trkpt>
      <trkpt lat="43.8477" lon="3.87447">
        <ele>248.6</ele>
        <time>2019-12-22T12:39:25.000Z</time>
      </trkpt>
      <trkpt lat="43.84765" lon="3.8745">
        <ele>248.6</ele>
        <time>2019-12-22T12:39:31.000Z</time>
      </trkpt>
      <trkpt lat="43.84754" lon="3.87458">
        <ele>248.6</ele>
        <time>2019-12-22T12:39:44.000Z</time>
      </trkpt>
      <trkpt lat="43.84746" lon="3.87463">
        <ele>248.2</ele>
        <time>2019-12-22T12:39:54.000Z</time>
      </trkpt>
      <trkpt lat="43.8473" lon="3.87472">
        <ele>245.8</ele>
        <time>2019-12-22T12:40:11.000Z</time>
      </trkpt>
      <trkpt lat="43.8473" lon="3.87472">
        <ele>245.8</ele>
        <time>2019-12-22T12:40:12.000Z</time>
      </trkpt>
      <trkpt lat="43.84728" lon="3.87474">
        <ele>245.8</ele>
        <time>2019-12-22T12:40:15.000Z</time>
      </trkpt>
      <trkpt lat="43.84717" lon="3.87487">
        <ele>243.8</ele>
        <time>2019-12-22T12:40:31.000Z</time>
      </trkpt>
      <trkpt lat="43.84711" lon="3.87498">
        <ele>241.9</ele>
        <time>2019-12-22T12:40:45.000Z</time>
      </trkpt>
      <trkpt lat="43.84705" lon="3.87505">
        <ele>239</ele>
        <time>2019-12-22T12:40:55.000Z</time>
      </trkpt>
      <trkpt lat="43.84704" lon="3.87508">
        <ele>238.1</ele>
        <time>2019-12-22T12:40:58.000Z</time>
      </trkpt>
      <trkpt lat="43.84699" lon="3.87516">
        <ele>234.7</ele>
        <time>2019-12-22T12:41:08.000Z</time>
      </trkpt>
      <trkpt lat="43.84694" lon="3.87523">
        <ele>235.2</ele>
        <time>2019-12-22T12:41:17.000Z</time>
      </trkpt>
      <trkpt lat="43.84688" lon="3.87531">
        <ele>236.1</ele>
        <time>2019-12-22T12:41:24.000Z</time>
      </trkpt>
      <trkpt lat="43.84677" lon="3.87542">
        <ele>233.7</ele>
        <time>2019-12-22T12:41:37.000Z</time>
      </trkpt>
      <trkpt lat="43.84665" lon="3.87553">
        <ele>233.7</ele>
        <time>2019-12-22T12:41:52.000Z</time>
      </trkpt>
      <trkpt lat="43.84658" lon="3.87561">
        <ele>232.8</ele>
        <time>2019-12-22T12:42:03.000Z</time>
      </trkpt>
      <trkpt lat="43.84649" lon="3.87569">
        <ele>231.8</ele>
        <time>2019-12-22T12:42:16.000Z</time>
      </trkpt>
      <trkpt lat="43.84637" lon="3.87578">
        <ele>230.9</ele>
        <time>2019-12-22T12:42:30.000Z</time>
      </trkpt>
      <trkpt lat="43.8463" lon="3.87585">
        <ele>230.4</ele>
        <time>2019-12-22T12:42:44.000Z</time>
      </trkpt>
      <trkpt lat="43.84629" lon="3.87583">
        <ele>230.4</ele>
        <time>2019-12-22T12:42:55.000Z</time>
      </trkpt>
      <trkpt lat="43.84623" lon="3.8759">
        <ele>229.9</ele>
        <time>2019-12-22T12:43:15.000Z</time>
      </trkpt>
      <trkpt lat="43.84616" lon="3.87602">
        <ele>228.4</ele>
        <time>2019-12-22T12:43:29.000Z</time>
      </trkpt>
      <trkpt lat="43.84618" lon="3.8761">
        <ele>225.6</ele>
        <time>2019-12-22T12:43:43.000Z</time>
      </trkpt>
      <trkpt lat="43.84617" lon="3.87623">
        <ele>224.6</ele>
        <time>2019-12-22T12:43:54.000Z</time>
      </trkpt>
      <trkpt lat="43.84614" lon="3.87638">
        <ele>221.2</ele>
        <time>2019-12-22T12:44:07.000Z</time>
      </trkpt>
      <trkpt lat="43.84612" lon="3.87641">
        <ele>219.8</ele>
        <time>2019-12-22T12:44:11.000Z</time>
      </trkpt>
      <trkpt lat="43.84607" lon="3.87645">
        <ele>218.8</ele>
        <time>2019-12-22T12:44:17.000Z</time>
      </trkpt>
      <trkpt lat="43.84604" lon="3.87651">
        <ele>219.3</ele>
        <time>2019-12-22T12:44:24.000Z</time>
      </trkpt>
      <trkpt lat="43.84592" lon="3.8766">
        <ele>218.8</ele>
        <time>2019-12-22T12:44:39.000Z</time>
      </trkpt>
      <trkpt lat="43.8459" lon="3.8766">
        <ele>217.4</ele>
        <time>2019-12-22T12:44:41.000Z</time>
      </trkpt>
      <trkpt lat="43.84581" lon="3.87666">
        <ele>214.5</ele>
        <time>2019-12-22T12:44:53.000Z</time>
      </trkpt>
      <trkpt lat="43.84574" lon="3.87674">
        <ele>212.6</ele>
        <time>2019-12-22T12:45:06.000Z</time>
      </trkpt>
      <trkpt lat="43.84564" lon="3.87682">
        <ele>210.7</ele>
        <time>2019-12-22T12:45:18.000Z</time>
      </trkpt>
      <trkpt lat="43.84554" lon="3.87691">
        <ele>209.2</ele>
        <time>2019-12-22T12:45:32.000Z</time>
      </trkpt>
      <trkpt lat="43.84551" lon="3.87698">
        <ele>209.7</ele>
        <time>2019-12-22T12:45:46.000Z</time>
      </trkpt>
      <trkpt lat="43.8454" lon="3.87699">
        <ele>208.3</ele>
        <time>2019-12-22T12:46:02.000Z</time>
      </trkpt>
      <trkpt lat="43.84533" lon="3.8769">
        <ele>206.8</ele>
        <time>2019-12-22T12:46:16.000Z</time>
      </trkpt>
      <trkpt lat="43.84528" lon="3.87682">
        <ele>209.2</ele>
        <time>2019-12-22T12:46:25.000Z</time>
      </trkpt>
      <trkpt lat="43.84529" lon="3.87665">
        <ele>207.8</ele>
        <time>2019-12-22T12:46:37.000Z</time>
      </trkpt>
      <trkpt lat="43.84529" lon="3.87658">
        <ele>207.3</ele>
        <time>2019-12-22T12:46:42.000Z</time>
      </trkpt>
      <trkpt lat="43.8453" lon="3.87649">
        <ele>206.3</ele>
        <time>2019-12-22T12:46:48.000Z</time>
      </trkpt>
      <trkpt lat="43.8453" lon="3.87632">
        <ele>207.3</ele>
        <time>2019-12-22T12:47:04.000Z</time>
      </trkpt>
      <trkpt lat="43.84529" lon="3.87632">
        <ele>205.9</ele>
        <time>2019-12-22T12:47:10.000Z</time>
      </trkpt>
      <trkpt lat="43.84535" lon="3.87618">
        <ele>204.4</ele>
        <time>2019-12-22T12:47:22.000Z</time>
      </trkpt>
      <trkpt lat="43.84546" lon="3.87605">
        <ele>204.4</ele>
        <time>2019-12-22T12:47:35.000Z</time>
      </trkpt>
      <trkpt lat="43.84557" lon="3.8759">
        <ele>204.4</ele>
        <time>2019-12-22T12:47:49.000Z</time>
      </trkpt>
      <trkpt lat="43.84562" lon="3.87565">
        <ele>203.9</ele>
        <time>2019-12-22T12:48:05.000Z</time>
      </trkpt>
      <trkpt lat="43.84565" lon="3.87558">
        <ele>204.9</ele>
        <time>2019-12-22T12:48:10.000Z</time>
      </trkpt>
      <trkpt lat="43.84566" lon="3.87546">
        <ele>204.4</ele>
        <time>2019-12-22T12:48:22.000Z</time>
      </trkpt>
      <trkpt lat="43.84563" lon="3.87544">
        <ele>202</ele>
        <time>2019-12-22T12:48:27.000Z</time>
      </trkpt>
      <trkpt lat="43.84555" lon="3.87539">
        <ele>199.6</ele>
        <time>2019-12-22T12:48:35.000Z</time>
      </trkpt>
      <trkpt lat="43.84555" lon="3.87539">
        <ele>199.6</ele>
        <time>2019-12-22T12:48:36.000Z</time>
      </trkpt>
      <trkpt lat="43.8455" lon="3.87531">
        <ele>200.1</ele>
        <time>2019-12-22T12:48:45.000Z</time>
      </trkpt>
      <trkpt lat="43.84541" lon="3.8753">
        <ele>199.6</ele>
        <time>2019-12-22T12:48:58.000Z</time>
      </trkpt>
      <trkpt lat="43.8454" lon="3.8753">
        <ele>199.6</ele>
        <time>2019-12-22T12:49:01.000Z</time>
      </trkpt>
      <trkpt lat="43.84537" lon="3.87531">
        <ele>199.1</ele>
        <time>2019-12-22T12:49:04.000Z</time>
      </trkpt>
      <trkpt lat="43.84531" lon="3.87539">
        <ele>198.2</ele>
        <time>2019-12-22T12:49:10.000Z</time>
      </trkpt>
      <trkpt lat="43.84521" lon="3.87561">
        <ele>196.3</ele>
        <time>2019-12-22T12:49:27.000Z</time>
      </trkpt>
      <trkpt lat="43.84516" lon="3.87575">
        <ele>193.4</ele>
        <time>2019-12-22T12:49:39.000Z</time>
      </trkpt>
      <trkpt lat="43.84513" lon="3.87577">
        <ele>192.4</ele>
        <time>2019-12-22T12:49:43.000Z</time>
      </trkpt>
      <trkpt lat="43.84505" lon="3.8758">
        <ele>192.9</ele>
        <time>2019-12-22T12:49:55.000Z</time>
      </trkpt>
      <trkpt lat="43.84503" lon="3.87584">
        <ele>191.9</ele>
        <time>2019-12-22T12:50:00.000Z</time>
      </trkpt>
      <trkpt lat="43.84497" lon="3.87604">
        <ele>191</ele>
        <time>2019-12-22T12:50:15.000Z</time>
      </trkpt>
      <trkpt lat="43.84494" lon="3.87611">
        <ele>191</ele>
        <time>2019-12-22T12:50:21.000Z</time>
      </trkpt>
      <trkpt lat="43.84483" lon="3.87636">
        <ele>189</ele>
        <time>2019-12-22T12:50:38.000Z</time>
      </trkpt>
      <trkpt lat="43.84476" lon="3.87652">
        <ele>187.6</ele>
        <time>2019-12-22T12:50:50.000Z</time>
      </trkpt>
      <trkpt lat="43.84468" lon="3.87668">
        <ele>187.1</ele>
        <time>2019-12-22T12:51:02.000Z</time>
      </trkpt>
      <trkpt lat="43.84462" lon="3.87684">
        <ele>187.1</ele>
        <time>2019-12-22T12:51:14.000Z</time>
      </trkpt>
      <trkpt lat="43.84453" lon="3.87701">
        <ele>186.1</ele>
        <time>2019-12-22T12:51:26.000Z</time>
      </trkpt>
      <trkpt lat="43.84447" lon="3.87719">
        <ele>186.6</ele>
        <time>2019-12-22T12:51:38.000Z</time>
      </trkpt>
      <trkpt lat="43.84441" lon="3.8774">
        <ele>184.7</ele>
        <time>2019-12-22T12:51:53.000Z</time>
      </trkpt>
      <trkpt lat="43.84436" lon="3.87755">
        <ele>184.2</ele>
        <time>2019-12-22T12:52:05.000Z</time>
      </trkpt>
      <trkpt lat="43.84434" lon="3.87759">
        <ele>184.2</ele>
        <time>2019-12-22T12:52:09.000Z</time>
      </trkpt>
      <trkpt lat="43.84428" lon="3.87758">
        <ele>184.7</ele>
        <time>2019-12-22T12:52:16.000Z</time>
      </trkpt>
      <trkpt lat="43.84424" lon="3.87754">
        <ele>185.2</ele>
        <time>2019-12-22T12:52:24.000Z</time>
      </trkpt>
      <trkpt lat="43.84419" lon="3.87748">
        <ele>185.2</ele>
        <time>2019-12-22T12:52:36.000Z</time>
      </trkpt>
      <trkpt lat="43.84423" lon="3.87752">
        <ele>184.7</ele>
        <time>2019-12-22T12:52:46.000Z</time>
      </trkpt>
      <trkpt lat="43.84435" lon="3.87762">
        <ele>185.7</ele>
        <time>2019-12-22T12:53:02.000Z</time>
      </trkpt>
      <trkpt lat="43.84434" lon="3.87772">
        <ele>186.6</ele>
        <time>2019-12-22T12:53:14.000Z</time>
      </trkpt>
      <trkpt lat="43.84419" lon="3.87789">
        <ele>185.7</ele>
        <time>2019-12-22T12:53:32.000Z</time>
      </trkpt>
      <trkpt lat="43.84407" lon="3.87798">
        <ele>187.1</ele>
        <time>2019-12-22T12:53:46.000Z</time>
      </trkpt>
      <trkpt lat="43.84399" lon="3.87806">
        <ele>185.2</ele>
        <time>2019-12-22T12:53:59.000Z</time>
      </trkpt>
      <trkpt lat="43.84396" lon="3.87813">
        <ele>183.8</ele>
        <time>2019-12-22T12:54:10.000Z</time>
      </trkpt>
      <trkpt lat="43.84395" lon="3.87817">
        <ele>183.8</ele>
        <time>2019-12-22T12:54:14.000Z</time>
      </trkpt>
      <trkpt lat="43.84389" lon="3.87843">
        <ele>182.3</ele>
        <time>2019-12-22T12:54:32.000Z</time>
      </trkpt>
      <trkpt lat="43.8438" lon="3.87854">
        <ele>181.8</ele>
        <time>2019-12-22T12:54:47.000Z</time>
      </trkpt>
      <trkpt lat="43.84368" lon="3.87859">
        <ele>179.4</ele>
        <time>2019-12-22T12:55:02.000Z</time>
      </trkpt>
      <trkpt lat="43.84362" lon="3.87856">
        <ele>178</ele>
        <time>2019-12-22T12:55:14.000Z</time>
      </trkpt>
      <trkpt lat="43.84361" lon="3.87858">
        <ele>177</ele>
        <time>2019-12-22T12:55:28.000Z</time>
      </trkpt>
      <trkpt lat="43.84361" lon="3.87859">
        <ele>178.5</ele>
        <time>2019-12-22T12:55:44.000Z</time>
      </trkpt>
      <trkpt lat="43.84366" lon="3.87863">
        <ele>179.9</ele>
        <time>2019-12-22T12:56:08.000Z</time>
      </trkpt>
      <trkpt lat="43.84375" lon="3.87868">
        <ele>180.4</ele>
        <time>2019-12-22T12:56:26.000Z</time>
      </trkpt>
      <trkpt lat="43.84375" lon="3.87877">
        <ele>182.3</ele>
        <time>2019-12-22T12:56:35.000Z</time>
      </trkpt>
      <trkpt lat="43.84374" lon="3.87882">
        <ele>182.8</ele>
        <time>2019-12-22T12:56:39.000Z</time>
      </trkpt>
      <trkpt lat="43.84379" lon="3.87899">
        <ele>181.8</ele>
        <time>2019-12-22T12:56:51.000Z</time>
      </trkpt>
      <trkpt lat="43.84378" lon="3.87904">
        <ele>182.3</ele>
        <time>2019-12-22T12:56:53.000Z</time>
      </trkpt>
      <trkpt lat="43.84377" lon="3.87912">
        <ele>182.8</ele>
        <time>2019-12-22T12:56:59.000Z</time>
      </trkpt>
      <trkpt lat="43.84373" lon="3.87914">
        <ele>182.8</ele>
        <time>2019-12-22T12:57:03.000Z</time>
      </trkpt>
      <trkpt lat="43.84369" lon="3.87917">
        <ele>183.8</ele>
        <time>2019-12-22T12:57:06.000Z</time>
      </trkpt>
      <trkpt lat="43.84354" lon="3.87918">
        <ele>182.8</ele>
        <time>2019-12-22T12:57:22.000Z</time>
      </trkpt>
      <trkpt lat="43.84345" lon="3.87923">
        <ele>183.8</ele>
        <time>2019-12-22T12:57:33.000Z</time>
      </trkpt>
      <trkpt lat="43.84331" lon="3.8791">
        <ele>184.7</ele>
        <time>2019-12-22T12:57:49.000Z</time>
      </trkpt>
      <trkpt lat="43.84322" lon="3.87906">
        <ele>185.2</ele>
        <time>2019-12-22T12:58:03.000Z</time>
      </trkpt>
      <trkpt lat="43.8431" lon="3.87894">
        <ele>185.2</ele>
        <time>2019-12-22T12:58:20.000Z</time>
      </trkpt>
      <trkpt lat="43.84301" lon="3.87888">
        <ele>186.1</ele>
        <time>2019-12-22T12:58:34.000Z</time>
      </trkpt>
      <trkpt lat="43.84298" lon="3.87883">
        <ele>186.1</ele>
        <time>2019-12-22T12:58:37.000Z</time>
      </trkpt>
      <trkpt lat="43.84293" lon="3.87872">
        <ele>185.7</ele>
        <time>2019-12-22T12:58:51.000Z</time>
      </trkpt>
      <trkpt lat="43.84297" lon="3.87858">
        <ele>185.7</ele>
        <time>2019-12-22T12:59:05.000Z</time>
      </trkpt>
      <trkpt lat="43.84297" lon="3.87853">
        <ele>185.7</ele>
        <time>2019-12-22T12:59:18.000Z</time>
      </trkpt>
      <trkpt lat="43.84299" lon="3.87852">
        <ele>185.2</ele>
        <time>2019-12-22T12:59:43.000Z</time>
      </trkpt>
      <trkpt lat="43.84297" lon="3.87849">
        <ele>185.7</ele>
        <time>2019-12-22T12:59:58.000Z</time>
      </trkpt>
      <trkpt lat="43.84297" lon="3.87848">
        <ele>185.7</ele>
        <time>2019-12-22T12:59:59.000Z</time>
      </trkpt>
      <trkpt lat="43.84299" lon="3.87834">
        <ele>185.7</ele>
        <time>2019-12-22T13:00:11.000Z</time>
      </trkpt>
      <trkpt lat="43.84301" lon="3.87817">
        <ele>186.1</ele>
        <time>2019-12-22T13:00:22.000Z</time>
      </trkpt>
      <trkpt lat="43.84306" lon="3.87806">
        <ele>186.6</ele>
        <time>2019-12-22T13:00:32.000Z</time>
      </trkpt>
      <trkpt lat="43.84311" lon="3.87792">
        <ele>187.6</ele>
        <time>2019-12-22T13:00:43.000Z</time>
      </trkpt>
      <trkpt lat="43.84314" lon="3.87782">
        <ele>188.1</ele>
        <time>2019-12-22T13:00:50.000Z</time>
      </trkpt>
      <trkpt lat="43.84319" lon="3.87764">
        <ele>187.6</ele>
        <time>2019-12-22T13:01:01.000Z</time>
      </trkpt>
      <trkpt lat="43.84322" lon="3.87755">
        <ele>188.6</ele>
        <time>2019-12-22T13:01:08.000Z</time>
      </trkpt>
      <trkpt lat="43.84327" lon="3.8774">
        <ele>189.5</ele>
        <time>2019-12-22T13:01:18.000Z</time>
      </trkpt>
      <trkpt lat="43.84327" lon="3.8774">
        <ele>189</ele>
        <time>2019-12-22T13:01:19.000Z</time>
      </trkpt>
      <trkpt lat="43.8433" lon="3.87731">
        <ele>190</ele>
        <time>2019-12-22T13:01:25.000Z</time>
      </trkpt>
      <trkpt lat="43.84332" lon="3.87722">
        <ele>190</ele>
        <time>2019-12-22T13:01:32.000Z</time>
      </trkpt>
      <trkpt lat="43.84334" lon="3.87711">
        <ele>190.5</ele>
        <time>2019-12-22T13:01:39.000Z</time>
      </trkpt>
      <trkpt lat="43.84339" lon="3.87693">
        <ele>191.9</ele>
        <time>2019-12-22T13:01:50.000Z</time>
      </trkpt>
      <trkpt lat="43.84342" lon="3.8768">
        <ele>192.4</ele>
        <time>2019-12-22T13:02:00.000Z</time>
      </trkpt>
      <trkpt lat="43.84344" lon="3.87672">
        <ele>192.9</ele>
        <time>2019-12-22T13:02:06.000Z</time>
      </trkpt>
      <trkpt lat="43.84346" lon="3.87663">
        <ele>193.4</ele>
        <time>2019-12-22T13:02:12.000Z</time>
      </trkpt>
      <trkpt lat="43.84349" lon="3.87655">
        <ele>193.8</ele>
        <time>2019-12-22T13:02:18.000Z</time>
      </trkpt>
      <trkpt lat="43.84355" lon="3.8764">
        <ele>194.8</ele>
        <time>2019-12-22T13:02:28.000Z</time>
      </trkpt>
      <trkpt lat="43.84359" lon="3.87629">
        <ele>195.8</ele>
        <time>2019-12-22T13:02:37.000Z</time>
      </trkpt>
      <trkpt lat="43.84363" lon="3.87623">
        <ele>195.8</ele>
        <time>2019-12-22T13:02:43.000Z</time>
      </trkpt>
      <trkpt lat="43.84369" lon="3.87609">
        <ele>196.7</ele>
        <time>2019-12-22T13:02:53.000Z</time>
      </trkpt>
      <trkpt lat="43.84373" lon="3.87601">
        <ele>197.7</ele>
        <time>2019-12-22T13:03:01.000Z</time>
      </trkpt>
      <trkpt lat="43.84375" lon="3.87594">
        <ele>197.7</ele>
        <time>2019-12-22T13:03:06.000Z</time>
      </trkpt>
      <trkpt lat="43.84376" lon="3.8759">
        <ele>198.6</ele>
        <time>2019-12-22T13:03:10.000Z</time>
      </trkpt>
      <trkpt lat="43.84376" lon="3.87587">
        <ele>199.6</ele>
        <time>2019-12-22T13:03:15.000Z</time>
      </trkpt>
      <trkpt lat="43.84377" lon="3.87582">
        <ele>199.6</ele>
        <time>2019-12-22T13:03:19.000Z</time>
      </trkpt>
      <trkpt lat="43.84378" lon="3.87568">
        <ele>201.1</ele>
        <time>2019-12-22T13:03:32.000Z</time>
      </trkpt>
      <trkpt lat="43.84378" lon="3.87556">
        <ele>203</ele>
        <time>2019-12-22T13:03:43.000Z</time>
      </trkpt>
      <trkpt lat="43.84377" lon="3.87549">
        <ele>203.5</ele>
        <time>2019-12-22T13:03:50.000Z</time>
      </trkpt>
      <trkpt lat="43.84378" lon="3.87538">
        <ele>203.9</ele>
        <time>2019-12-22T13:03:58.000Z</time>
      </trkpt>
      <trkpt lat="43.84387" lon="3.8753">
        <ele>203.9</ele>
        <time>2019-12-22T13:04:08.000Z</time>
      </trkpt>
      <trkpt lat="43.84398" lon="3.87535">
        <ele>204.4</ele>
        <time>2019-12-22T13:04:17.000Z</time>
      </trkpt>
      <trkpt lat="43.84408" lon="3.87533">
        <ele>203.9</ele>
        <time>2019-12-22T13:04:27.000Z</time>
      </trkpt>
      <trkpt lat="43.84408" lon="3.87533">
        <ele>203.9</ele>
        <time>2019-12-22T13:04:28.000Z</time>
      </trkpt>
      <trkpt lat="43.84411" lon="3.87531">
        <ele>203.9</ele>
        <time>2019-12-22T13:04:31.000Z</time>
      </trkpt>
      <trkpt lat="43.84419" lon="3.87529">
        <ele>203.5</ele>
        <time>2019-12-22T13:04:38.000Z</time>
      </trkpt>
      <trkpt lat="43.84424" lon="3.87525">
        <ele>203.9</ele>
        <time>2019-12-22T13:04:44.000Z</time>
      </trkpt>
      <trkpt lat="43.8443" lon="3.87519">
        <ele>204.4</ele>
        <time>2019-12-22T13:04:51.000Z</time>
      </trkpt>
      <trkpt lat="43.8444" lon="3.87512">
        <ele>204.9</ele>
        <time>2019-12-22T13:05:00.000Z</time>
      </trkpt>
      <trkpt lat="43.84441" lon="3.8751">
        <ele>205.9</ele>
        <time>2019-12-22T13:05:03.000Z</time>
      </trkpt>
      <trkpt lat="43.84446" lon="3.87505">
        <ele>206.3</ele>
        <time>2019-12-22T13:05:09.000Z</time>
      </trkpt>
      <trkpt lat="43.8445" lon="3.875">
        <ele>206.8</ele>
        <time>2019-12-22T13:05:15.000Z</time>
      </trkpt>
      <trkpt lat="43.84456" lon="3.87495">
        <ele>208.3</ele>
        <time>2019-12-22T13:05:21.000Z</time>
      </trkpt>
      <trkpt lat="43.84467" lon="3.87486">
        <ele>208.3</ele>
        <time>2019-12-22T13:05:32.000Z</time>
      </trkpt>
      <trkpt lat="43.84478" lon="3.87481">
        <ele>208.3</ele>
        <time>2019-12-22T13:05:42.000Z</time>
      </trkpt>
      <trkpt lat="43.84488" lon="3.87474">
        <ele>208.3</ele>
        <time>2019-12-22T13:05:52.000Z</time>
      </trkpt>
      <trkpt lat="43.84493" lon="3.87471">
        <ele>208.7</ele>
        <time>2019-12-22T13:05:56.000Z</time>
      </trkpt>
      <trkpt lat="43.84495" lon="3.8747">
        <ele>208.3</ele>
        <time>2019-12-22T13:05:58.000Z</time>
      </trkpt>
      <trkpt lat="43.84511" lon="3.87457">
        <ele>210.2</ele>
        <time>2019-12-22T13:06:12.000Z</time>
      </trkpt>
      <trkpt lat="43.84523" lon="3.87439">
        <ele>210.7</ele>
        <time>2019-12-22T13:06:27.000Z</time>
      </trkpt>
      <trkpt lat="43.84528" lon="3.87433">
        <ele>210.7</ele>
        <time>2019-12-22T13:06:33.000Z</time>
      </trkpt>
      <trkpt lat="43.84534" lon="3.8743">
        <ele>210.7</ele>
        <time>2019-12-22T13:06:39.000Z</time>
      </trkpt>
      <trkpt lat="43.84546" lon="3.87422">
        <ele>211.6</ele>
        <time>2019-12-22T13:06:51.000Z</time>
      </trkpt>
      <trkpt lat="43.84554" lon="3.87415">
        <ele>212.1</ele>
        <time>2019-12-22T13:07:06.000Z</time>
      </trkpt>
      <trkpt lat="43.84553" lon="3.87399">
        <ele>213.1</ele>
        <time>2019-12-22T13:07:21.000Z</time>
      </trkpt>
      <trkpt lat="43.84559" lon="3.87385">
        <ele>213.6</ele>
        <time>2019-12-22T13:07:35.000Z</time>
      </trkpt>
      <trkpt lat="43.8456" lon="3.87377">
        <ele>213.6</ele>
        <time>2019-12-22T13:07:50.000Z</time>
      </trkpt>
      <trkpt lat="43.84561" lon="3.87375">
        <ele>213.6</ele>
        <time>2019-12-22T13:07:52.000Z</time>
      </trkpt>
      <trkpt lat="43.8457" lon="3.87361">
        <ele>214.5</ele>
        <time>2019-12-22T13:08:06.000Z</time>
      </trkpt>
      <trkpt lat="43.84581" lon="3.8735">
        <ele>215</ele>
        <time>2019-12-22T13:08:21.000Z</time>
      </trkpt>
      <trkpt lat="43.84594" lon="3.87345">
        <ele>215.5</ele>
        <time>2019-12-22T13:08:36.000Z</time>
      </trkpt>
      <trkpt lat="43.84598" lon="3.87346">
        <ele>215.9</ele>
        <time>2019-12-22T13:08:51.000Z</time>
      </trkpt>
      <trkpt lat="43.84601" lon="3.87346">
        <ele>215.9</ele>
        <time>2019-12-22T13:08:55.000Z</time>
      </trkpt>
      <trkpt lat="43.84611" lon="3.87344">
        <ele>216.4</ele>
        <time>2019-12-22T13:09:11.000Z</time>
      </trkpt>
      <trkpt lat="43.84615" lon="3.87338">
        <ele>216.9</ele>
        <time>2019-12-22T13:09:39.000Z</time>
      </trkpt>
      <trkpt lat="43.84623" lon="3.8734">
        <ele>216.9</ele>
        <time>2019-12-22T13:10:02.000Z</time>
      </trkpt>
      <trkpt lat="43.84617" lon="3.87338">
        <ele>217.9</ele>
        <time>2019-12-22T13:10:26.000Z</time>
      </trkpt>
      <trkpt lat="43.84621" lon="3.87341">
        <ele>218.8</ele>
        <time>2019-12-22T13:10:47.000Z</time>
      </trkpt>
      <trkpt lat="43.84631" lon="3.87329">
        <ele>219.8</ele>
        <time>2019-12-22T13:11:10.000Z</time>
      </trkpt>
      <trkpt lat="43.84644" lon="3.87321">
        <ele>220.3</ele>
        <time>2019-12-22T13:11:36.000Z</time>
      </trkpt>
      <trkpt lat="43.84638" lon="3.87333">
        <ele>220.3</ele>
        <time>2019-12-22T13:11:58.000Z</time>
      </trkpt>
      <trkpt lat="43.84635" lon="3.87337">
        <ele>220.3</ele>
        <time>2019-12-22T13:12:05.000Z</time>
      </trkpt>
      <trkpt lat="43.84647" lon="3.87336">
        <ele>221.2</ele>
        <time>2019-12-22T13:12:44.000Z</time>
      </trkpt>
      <trkpt lat="43.84637" lon="3.87329">
        <ele>221.2</ele>
        <time>2019-12-22T13:13:00.000Z</time>
      </trkpt>
      <trkpt lat="43.84633" lon="3.87333">
        <ele>221.7</ele>
        <time>2019-12-22T13:13:22.000Z</time>
      </trkpt>
      <trkpt lat="43.84631" lon="3.87334">
        <ele>221.7</ele>
        <time>2019-12-22T13:13:30.000Z</time>
      </trkpt>
      <trkpt lat="43.84619" lon="3.87338">
        <ele>219.8</ele>
        <time>2019-12-22T13:13:46.000Z</time>
      </trkpt>
      <trkpt lat="43.84604" lon="3.87343">
        <ele>219.3</ele>
        <time>2019-12-22T13:14:01.000Z</time>
      </trkpt>
      <trkpt lat="43.84595" lon="3.87344">
        <ele>219.3</ele>
        <time>2019-12-22T13:14:14.000Z</time>
      </trkpt>
      <trkpt lat="43.84583" lon="3.87344">
        <ele>219.3</ele>
        <time>2019-12-22T13:14:28.000Z</time>
      </trkpt>
      <trkpt lat="43.84569" lon="3.87363">
        <ele>217.9</ele>
        <time>2019-12-22T13:14:42.000Z</time>
      </trkpt>
      <trkpt lat="43.84558" lon="3.8738">
        <ele>216.9</ele>
        <time>2019-12-22T13:14:58.000Z</time>
      </trkpt>
      <trkpt lat="43.84551" lon="3.874">
        <ele>217.4</ele>
        <time>2019-12-22T13:15:14.000Z</time>
      </trkpt>
      <trkpt lat="43.8455" lon="3.87403">
        <ele>216.4</ele>
        <time>2019-12-22T13:15:16.000Z</time>
      </trkpt>
      <trkpt lat="43.84546" lon="3.87413">
        <ele>215.9</ele>
        <time>2019-12-22T13:15:23.000Z</time>
      </trkpt>
      <trkpt lat="43.84541" lon="3.87416">
        <ele>216.4</ele>
        <time>2019-12-22T13:15:36.000Z</time>
      </trkpt>
      <trkpt lat="43.8454" lon="3.87414">
        <ele>216.4</ele>
        <time>2019-12-22T13:15:46.000Z</time>
      </trkpt>
      <trkpt lat="43.84543" lon="3.87415">
        <ele>215.9</ele>
        <time>2019-12-22T13:15:50.000Z</time>
      </trkpt>
      <trkpt lat="43.84545" lon="3.87424">
        <ele>215</ele>
        <time>2019-12-22T13:15:58.000Z</time>
      </trkpt>
      <trkpt lat="43.84538" lon="3.87428">
        <ele>214.5</ele>
        <time>2019-12-22T13:16:04.000Z</time>
      </trkpt>
      <trkpt lat="43.84529" lon="3.87435">
        <ele>214.5</ele>
        <time>2019-12-22T13:16:19.000Z</time>
      </trkpt>
      <trkpt lat="43.84518" lon="3.87444">
        <ele>214</ele>
        <time>2019-12-22T13:16:31.000Z</time>
      </trkpt>
      <trkpt lat="43.84514" lon="3.87455">
        <ele>214</ele>
        <time>2019-12-22T13:16:39.000Z</time>
      </trkpt>
      <trkpt lat="43.84503" lon="3.87463">
        <ele>212.1</ele>
        <time>2019-12-22T13:16:52.000Z</time>
      </trkpt>
      <trkpt lat="43.84491" lon="3.87474">
        <ele>211.6</ele>
        <time>2019-12-22T13:17:05.000Z</time>
      </trkpt>
      <trkpt lat="43.84473" lon="3.87483">
        <ele>211.1</ele>
        <time>2019-12-22T13:17:21.000Z</time>
      </trkpt>
      <trkpt lat="43.84458" lon="3.87496">
        <ele>210.7</ele>
        <time>2019-12-22T13:17:36.000Z</time>
      </trkpt>
      <trkpt lat="43.84444" lon="3.87509">
        <ele>209.2</ele>
        <time>2019-12-22T13:17:51.000Z</time>
      </trkpt>
      <trkpt lat="43.8444" lon="3.87513">
        <ele>208.7</ele>
        <time>2019-12-22T13:17:56.000Z</time>
      </trkpt>
      <trkpt lat="43.84421" lon="3.87527">
        <ele>209.2</ele>
        <time>2019-12-22T13:18:14.000Z</time>
      </trkpt>
      <trkpt lat="43.84418" lon="3.87528">
        <ele>209.2</ele>
        <time>2019-12-22T13:18:16.000Z</time>
      </trkpt>
      <trkpt lat="43.84408" lon="3.87534">
        <ele>208.7</ele>
        <time>2019-12-22T13:18:29.000Z</time>
      </trkpt>
      <trkpt lat="43.84409" lon="3.87535">
        <ele>208.7</ele>
        <time>2019-12-22T13:18:42.000Z</time>
      </trkpt>
      <trkpt lat="43.84409" lon="3.87541">
        <ele>207.8</ele>
        <time>2019-12-22T13:19:05.000Z</time>
      </trkpt>
      <trkpt lat="43.84411" lon="3.8754">
        <ele>208.3</ele>
        <time>2019-12-22T13:19:31.000Z</time>
      </trkpt>
      <trkpt lat="43.84413" lon="3.87536">
        <ele>208.7</ele>
        <time>2019-12-22T13:19:55.000Z</time>
      </trkpt>
      <trkpt lat="43.84408" lon="3.87532">
        <ele>209.7</ele>
        <time>2019-12-22T13:20:23.000Z</time>
      </trkpt>
      <trkpt lat="43.84408" lon="3.87536">
        <ele>209.2</ele>
        <time>2019-12-22T13:20:46.000Z</time>
      </trkpt>
      <trkpt lat="43.84406" lon="3.87528">
        <ele>209.2</ele>
        <time>2019-12-22T13:21:12.000Z</time>
      </trkpt>
      <trkpt lat="43.8441" lon="3.87519">
        <ele>212.1</ele>
        <time>2019-12-22T13:21:23.000Z</time>
      </trkpt>
      <trkpt lat="43.84419" lon="3.87505">
        <ele>213.1</ele>
        <time>2019-12-22T13:21:38.000Z</time>
      </trkpt>
      <trkpt lat="43.84426" lon="3.87491">
        <ele>214</ele>
        <time>2019-12-22T13:21:51.000Z</time>
      </trkpt>
      <trkpt lat="43.84433" lon="3.87479">
        <ele>216.4</ele>
        <time>2019-12-22T13:22:07.000Z</time>
      </trkpt>
      <trkpt lat="43.84438" lon="3.87466">
        <ele>218.4</ele>
        <time>2019-12-22T13:22:23.000Z</time>
      </trkpt>
      <trkpt lat="43.84444" lon="3.87453">
        <ele>220.8</ele>
        <time>2019-12-22T13:22:38.000Z</time>
      </trkpt>
      <trkpt lat="43.84445" lon="3.87437">
        <ele>223.6</ele>
        <time>2019-12-22T13:22:55.000Z</time>
      </trkpt>
      <trkpt lat="43.84451" lon="3.87424">
        <ele>225.6</ele>
        <time>2019-12-22T13:23:09.000Z</time>
      </trkpt>
      <trkpt lat="43.84455" lon="3.8741">
        <ele>228</ele>
        <time>2019-12-22T13:23:27.000Z</time>
      </trkpt>
      <trkpt lat="43.84457" lon="3.87393">
        <ele>231.3</ele>
        <time>2019-12-22T13:23:44.000Z</time>
      </trkpt>
      <trkpt lat="43.84461" lon="3.8738">
        <ele>232.8</ele>
        <time>2019-12-22T13:23:59.000Z</time>
      </trkpt>
      <trkpt lat="43.84465" lon="3.87365">
        <ele>235.2</ele>
        <time>2019-12-22T13:24:17.000Z</time>
      </trkpt>
      <trkpt lat="43.84469" lon="3.87351">
        <ele>237.1</ele>
        <time>2019-12-22T13:24:33.000Z</time>
      </trkpt>
      <trkpt lat="43.8447" lon="3.87338">
        <ele>239.5</ele>
        <time>2019-12-22T13:24:49.000Z</time>
      </trkpt>
      <trkpt lat="43.84467" lon="3.87325">
        <ele>242.4</ele>
        <time>2019-12-22T13:25:05.000Z</time>
      </trkpt>
      <trkpt lat="43.84459" lon="3.87314">
        <ele>245.3</ele>
        <time>2019-12-22T13:25:21.000Z</time>
      </trkpt>
      <trkpt lat="43.8445" lon="3.87308">
        <ele>247.2</ele>
        <time>2019-12-22T13:25:36.000Z</time>
      </trkpt>
      <trkpt lat="43.84443" lon="3.87311">
        <ele>249.6</ele>
        <time>2019-12-22T13:25:50.000Z</time>
      </trkpt>
      <trkpt lat="43.84442" lon="3.87316">
        <ele>250.1</ele>
        <time>2019-12-22T13:26:07.000Z</time>
      </trkpt>
      <trkpt lat="43.84443" lon="3.87318">
        <ele>250.1</ele>
        <time>2019-12-22T13:26:23.000Z</time>
      </trkpt>
      <trkpt lat="43.84442" lon="3.87317">
        <ele>249.6</ele>
        <time>2019-12-22T13:26:45.000Z</time>
      </trkpt>
      <trkpt lat="43.84442" lon="3.8732">
        <ele>250.1</ele>
        <time>2019-12-22T13:27:03.000Z</time>
      </trkpt>
      <trkpt lat="43.84441" lon="3.87321">
        <ele>250.6</ele>
        <time>2019-12-22T13:27:31.000Z</time>
      </trkpt>
      <trkpt lat="43.84429" lon="3.87323">
        <ele>251</ele>
        <time>2019-12-22T13:27:44.000Z</time>
      </trkpt>
      <trkpt lat="43.84414" lon="3.87331">
        <ele>251</ele>
        <time>2019-12-22T13:28:00.000Z</time>
      </trkpt>
      <trkpt lat="43.844" lon="3.87339">
        <ele>251.5</ele>
        <time>2019-12-22T13:28:16.000Z</time>
      </trkpt>
      <trkpt lat="43.84387" lon="3.87347">
        <ele>251.5</ele>
        <time>2019-12-22T13:28:31.000Z</time>
      </trkpt>
      <trkpt lat="43.84375" lon="3.8735">
        <ele>252</ele>
        <time>2019-12-22T13:28:45.000Z</time>
      </trkpt>
      <trkpt lat="43.84364" lon="3.87352">
        <ele>253.9</ele>
        <time>2019-12-22T13:29:00.000Z</time>
      </trkpt>
      <trkpt lat="43.84351" lon="3.87356">
        <ele>256.3</ele>
        <time>2019-12-22T13:29:16.000Z</time>
      </trkpt>
      <trkpt lat="43.84335" lon="3.8736">
        <ele>258.7</ele>
        <time>2019-12-22T13:29:38.000Z</time>
      </trkpt>
      <trkpt lat="43.84326" lon="3.87362">
        <ele>261.1</ele>
        <time>2019-12-22T13:29:52.000Z</time>
      </trkpt>
      <trkpt lat="43.84315" lon="3.87365">
        <ele>263.1</ele>
        <time>2019-12-22T13:30:09.000Z</time>
      </trkpt>
      <trkpt lat="43.84307" lon="3.87369">
        <ele>265</ele>
        <time>2019-12-22T13:30:24.000Z</time>
      </trkpt>
      <trkpt lat="43.84297" lon="3.87373">
        <ele>266.9</ele>
        <time>2019-12-22T13:30:41.000Z</time>
      </trkpt>
      <trkpt lat="43.84291" lon="3.87377">
        <ele>268.8</ele>
        <time>2019-12-22T13:30:55.000Z</time>
      </trkpt>
      <trkpt lat="43.84281" lon="3.87382">
        <ele>270.8</ele>
        <time>2019-12-22T13:31:12.000Z</time>
      </trkpt>
      <trkpt lat="43.84273" lon="3.8739">
        <ele>272.2</ele>
        <time>2019-12-22T13:31:28.000Z</time>
      </trkpt>
      <trkpt lat="43.84264" lon="3.87397">
        <ele>273.6</ele>
        <time>2019-12-22T13:31:43.000Z</time>
      </trkpt>
      <trkpt lat="43.84256" lon="3.87404">
        <ele>275.6</ele>
        <time>2019-12-22T13:32:01.000Z</time>
      </trkpt>
      <trkpt lat="43.84247" lon="3.87409">
        <ele>278</ele>
        <time>2019-12-22T13:32:17.000Z</time>
      </trkpt>
      <trkpt lat="43.84239" lon="3.87414">
        <ele>279.9</ele>
        <time>2019-12-22T13:32:33.000Z</time>
      </trkpt>
      <trkpt lat="43.84231" lon="3.87418">
        <ele>281.8</ele>
        <time>2019-12-22T13:32:46.000Z</time>
      </trkpt>
      <trkpt lat="43.84225" lon="3.87423">
        <ele>282.8</ele>
        <time>2019-12-22T13:33:00.000Z</time>
      </trkpt>
      <trkpt lat="43.84214" lon="3.87425">
        <ele>286.1</ele>
        <time>2019-12-22T13:33:19.000Z</time>
      </trkpt>
      <trkpt lat="43.84207" lon="3.87431">
        <ele>288.5</ele>
        <time>2019-12-22T13:33:36.000Z</time>
      </trkpt>
      <trkpt lat="43.84198" lon="3.87437">
        <ele>290.9</ele>
        <time>2019-12-22T13:33:56.000Z</time>
      </trkpt>
      <trkpt lat="43.84193" lon="3.87448">
        <ele>292.9</ele>
        <time>2019-12-22T13:34:11.000Z</time>
      </trkpt>
      <trkpt lat="43.84188" lon="3.87458">
        <ele>293.8</ele>
        <time>2019-12-22T13:34:24.000Z</time>
      </trkpt>
      <trkpt lat="43.84183" lon="3.87463">
        <ele>295.7</ele>
        <time>2019-12-22T13:34:38.000Z</time>
      </trkpt>
      <trkpt lat="43.84173" lon="3.87467">
        <ele>297.2</ele>
        <time>2019-12-22T13:34:54.000Z</time>
      </trkpt>
      <trkpt lat="43.84173" lon="3.87467">
        <ele>297.2</ele>
        <time>2019-12-22T13:34:55.000Z</time>
      </trkpt>
      <trkpt lat="43.84167" lon="3.87465">
        <ele>299.1</ele>
        <time>2019-12-22T13:35:06.000Z</time>
      </trkpt>
      <trkpt lat="43.8416" lon="3.87468">
        <ele>300.5</ele>
        <time>2019-12-22T13:35:18.000Z</time>
      </trkpt>
      <trkpt lat="43.84155" lon="3.87473">
        <ele>301</ele>
        <time>2019-12-22T13:35:27.000Z</time>
      </trkpt>
      <trkpt lat="43.84147" lon="3.87479">
        <ele>302</ele>
        <time>2019-12-22T13:35:39.000Z</time>
      </trkpt>
      <trkpt lat="43.84139" lon="3.87484">
        <ele>303.4</ele>
        <time>2019-12-22T13:35:52.000Z</time>
      </trkpt>
      <trkpt lat="43.8413" lon="3.87486">
        <ele>305.8</ele>
        <time>2019-12-22T13:36:07.000Z</time>
      </trkpt>
      <trkpt lat="43.84116" lon="3.8749">
        <ele>306.8</ele>
        <time>2019-12-22T13:36:20.000Z</time>
      </trkpt>
      <trkpt lat="43.84106" lon="3.87487">
        <ele>308.2</ele>
        <time>2019-12-22T13:36:34.000Z</time>
      </trkpt>
      <trkpt lat="43.84098" lon="3.8748">
        <ele>309.7</ele>
        <time>2019-12-22T13:36:47.000Z</time>
      </trkpt>
      <trkpt lat="43.84085" lon="3.87477">
        <ele>310.2</ele>
        <time>2019-12-22T13:37:02.000Z</time>
      </trkpt>
      <trkpt lat="43.84082" lon="3.87473">
        <ele>310.6</ele>
        <time>2019-12-22T13:37:07.000Z</time>
      </trkpt>
      <trkpt lat="43.84073" lon="3.87462">
        <ele>311.6</ele>
        <time>2019-12-22T13:37:21.000Z</time>
      </trkpt>
      <trkpt lat="43.84058" lon="3.87455">
        <ele>313.5</ele>
        <time>2019-12-22T13:37:39.000Z</time>
      </trkpt>
      <trkpt lat="43.84048" lon="3.87447">
        <ele>315</ele>
        <time>2019-12-22T13:37:54.000Z</time>
      </trkpt>
      <trkpt lat="43.84046" lon="3.87434">
        <ele>317.4</ele>
        <time>2019-12-22T13:38:09.000Z</time>
      </trkpt>
      <trkpt lat="43.84037" lon="3.8742">
        <ele>318.8</ele>
        <time>2019-12-22T13:38:26.000Z</time>
      </trkpt>
      <trkpt lat="43.84025" lon="3.87404">
        <ele>319.8</ele>
        <time>2019-12-22T13:38:43.000Z</time>
      </trkpt>
      <trkpt lat="43.84017" lon="3.8739">
        <ele>320.7</ele>
        <time>2019-12-22T13:38:59.000Z</time>
      </trkpt>
      <trkpt lat="43.84008" lon="3.87374">
        <ele>320.7</ele>
        <time>2019-12-22T13:39:13.000Z</time>
      </trkpt>
      <trkpt lat="43.83994" lon="3.87358">
        <ele>320.7</ele>
        <time>2019-12-22T13:39:32.000Z</time>
      </trkpt>
      <trkpt lat="43.83989" lon="3.8734">
        <ele>322.2</ele>
        <time>2019-12-22T13:39:49.000Z</time>
      </trkpt>
      <trkpt lat="43.83989" lon="3.8734">
        <ele>322.2</ele>
        <time>2019-12-22T13:40:09.000Z</time>
      </trkpt>
      <trkpt lat="43.83987" lon="3.87343">
        <ele>322.2</ele>
        <time>2019-12-22T13:40:36.000Z</time>
      </trkpt>
      <trkpt lat="43.83988" lon="3.8734">
        <ele>322.2</ele>
        <time>2019-12-22T13:40:53.000Z</time>
      </trkpt>
      <trkpt lat="43.83982" lon="3.87332">
        <ele>322.2</ele>
        <time>2019-12-22T13:41:06.000Z</time>
      </trkpt>
      <trkpt lat="43.83972" lon="3.87317">
        <ele>320.7</ele>
        <time>2019-12-22T13:41:22.000Z</time>
      </trkpt>
      <trkpt lat="43.83964" lon="3.87293">
        <ele>319.8</ele>
        <time>2019-12-22T13:41:40.000Z</time>
      </trkpt>
      <trkpt lat="43.83957" lon="3.87273">
        <ele>319.8</ele>
        <time>2019-12-22T13:41:56.000Z</time>
      </trkpt>
      <trkpt lat="43.83951" lon="3.87258">
        <ele>320.3</ele>
        <time>2019-12-22T13:42:10.000Z</time>
      </trkpt>
      <trkpt lat="43.83946" lon="3.87236">
        <ele>319.8</ele>
        <time>2019-12-22T13:42:27.000Z</time>
      </trkpt>
      <trkpt lat="43.83939" lon="3.87217">
        <ele>320.3</ele>
        <time>2019-12-22T13:42:43.000Z</time>
      </trkpt>
      <trkpt lat="43.83935" lon="3.872">
        <ele>320.3</ele>
        <time>2019-12-22T13:42:59.000Z</time>
      </trkpt>
      <trkpt lat="43.83926" lon="3.87183">
        <ele>317.4</ele>
        <time>2019-12-22T13:43:14.000Z</time>
      </trkpt>
      <trkpt lat="43.83918" lon="3.87171">
        <ele>314</ele>
        <time>2019-12-22T13:43:27.000Z</time>
      </trkpt>
      <trkpt lat="43.83918" lon="3.87169">
        <ele>313.5</ele>
        <time>2019-12-22T13:43:28.000Z</time>
      </trkpt>
      <trkpt lat="43.8392" lon="3.87154">
        <ele>314.5</ele>
        <time>2019-12-22T13:43:41.000Z</time>
      </trkpt>
      <trkpt lat="43.83923" lon="3.87149">
        <ele>317.9</ele>
        <time>2019-12-22T13:43:52.000Z</time>
      </trkpt>
      <trkpt lat="43.83928" lon="3.87137">
        <ele>318.3</ele>
        <time>2019-12-22T13:44:06.000Z</time>
      </trkpt>
      <trkpt lat="43.83934" lon="3.87125">
        <ele>321.2</ele>
        <time>2019-12-22T13:44:23.000Z</time>
      </trkpt>
      <trkpt lat="43.83935" lon="3.87104">
        <ele>320.7</ele>
        <time>2019-12-22T13:44:39.000Z</time>
      </trkpt>
      <trkpt lat="43.83936" lon="3.87079">
        <ele>320.3</ele>
        <time>2019-12-22T13:44:58.000Z</time>
      </trkpt>
      <trkpt lat="43.83938" lon="3.87063">
        <ele>320.7</ele>
        <time>2019-12-22T13:45:13.000Z</time>
      </trkpt>
      <trkpt lat="43.83937" lon="3.87043">
        <ele>322.7</ele>
        <time>2019-12-22T13:45:29.000Z</time>
      </trkpt>
      <trkpt lat="43.83944" lon="3.87035">
        <ele>324.6</ele>
        <time>2019-12-22T13:45:45.000Z</time>
      </trkpt>
      <trkpt lat="43.83948" lon="3.87025">
        <ele>327.5</ele>
        <time>2019-12-22T13:45:59.000Z</time>
      </trkpt>
      <trkpt lat="43.83952" lon="3.87017">
        <ele>330.4</ele>
        <time>2019-12-22T13:46:14.000Z</time>
      </trkpt>
      <trkpt lat="43.83953" lon="3.87011">
        <ele>330.4</ele>
        <time>2019-12-22T13:46:31.000Z</time>
      </trkpt>
      <trkpt lat="43.83958" lon="3.87003">
        <ele>333.7</ele>
        <time>2019-12-22T13:46:45.000Z</time>
      </trkpt>
      <trkpt lat="43.83962" lon="3.86994">
        <ele>335.6</ele>
        <time>2019-12-22T13:46:58.000Z</time>
      </trkpt>
      <trkpt lat="43.83963" lon="3.8698">
        <ele>336.6</ele>
        <time>2019-12-22T13:47:12.000Z</time>
      </trkpt>
      <trkpt lat="43.83965" lon="3.86967">
        <ele>338</ele>
        <time>2019-12-22T13:47:26.000Z</time>
      </trkpt>
      <trkpt lat="43.83966" lon="3.86955">
        <ele>340.4</ele>
        <time>2019-12-22T13:47:40.000Z</time>
      </trkpt>
      <trkpt lat="43.83967" lon="3.86948">
        <ele>342.9</ele>
        <time>2019-12-22T13:47:55.000Z</time>
      </trkpt>
      <trkpt lat="43.83967" lon="3.86937">
        <ele>345.3</ele>
        <time>2019-12-22T13:48:07.000Z</time>
      </trkpt>
      <trkpt lat="43.83963" lon="3.86925">
        <ele>346.7</ele>
        <time>2019-12-22T13:48:20.000Z</time>
      </trkpt>
      <trkpt lat="43.83959" lon="3.86914">
        <ele>347.6</ele>
        <time>2019-12-22T13:48:33.000Z</time>
      </trkpt>
      <trkpt lat="43.83955" lon="3.869">
        <ele>349.1</ele>
        <time>2019-12-22T13:48:45.000Z</time>
      </trkpt>
      <trkpt lat="43.83951" lon="3.86889">
        <ele>349.1</ele>
        <time>2019-12-22T13:48:55.000Z</time>
      </trkpt>
      <trkpt lat="43.83946" lon="3.86876">
        <ele>349.1</ele>
        <time>2019-12-22T13:49:07.000Z</time>
      </trkpt>
      <trkpt lat="43.83945" lon="3.86874">
        <ele>349.6</ele>
        <time>2019-12-22T13:49:09.000Z</time>
      </trkpt>
      <trkpt lat="43.83944" lon="3.86865">
        <ele>349.1</ele>
        <time>2019-12-22T13:49:17.000Z</time>
      </trkpt>
      <trkpt lat="43.83943" lon="3.86849">
        <ele>349.6</ele>
        <time>2019-12-22T13:49:31.000Z</time>
      </trkpt>
      <trkpt lat="43.83947" lon="3.86841">
        <ele>349.1</ele>
        <time>2019-12-22T13:49:44.000Z</time>
      </trkpt>
      <trkpt lat="43.83951" lon="3.86828">
        <ele>349.6</ele>
        <time>2019-12-22T13:49:58.000Z</time>
      </trkpt>
      <trkpt lat="43.83955" lon="3.86816">
        <ele>350.1</ele>
        <time>2019-12-22T13:50:11.000Z</time>
      </trkpt>
      <trkpt lat="43.83964" lon="3.86795">
        <ele>350.1</ele>
        <time>2019-12-22T13:50:29.000Z</time>
      </trkpt>
      <trkpt lat="43.83976" lon="3.86782">
        <ele>349.6</ele>
        <time>2019-12-22T13:50:46.000Z</time>
      </trkpt>
      <trkpt lat="43.83979" lon="3.86762">
        <ele>351</ele>
        <time>2019-12-22T13:51:01.000Z</time>
      </trkpt>
      <trkpt lat="43.83985" lon="3.86744">
        <ele>350.5</ele>
        <time>2019-12-22T13:51:15.000Z</time>
      </trkpt>
      <trkpt lat="43.83992" lon="3.86723">
        <ele>352</ele>
        <time>2019-12-22T13:51:31.000Z</time>
      </trkpt>
      <trkpt lat="43.84001" lon="3.86711">
        <ele>351</ele>
        <time>2019-12-22T13:51:44.000Z</time>
      </trkpt>
      <trkpt lat="43.84009" lon="3.86694">
        <ele>351</ele>
        <time>2019-12-22T13:51:59.000Z</time>
      </trkpt>
      <trkpt lat="43.84021" lon="3.86678">
        <ele>350.1</ele>
        <time>2019-12-22T13:52:15.000Z</time>
      </trkpt>
      <trkpt lat="43.84031" lon="3.86665">
        <ele>349.6</ele>
        <time>2019-12-22T13:52:29.000Z</time>
      </trkpt>
      <trkpt lat="43.84045" lon="3.86653">
        <ele>349.6</ele>
        <time>2019-12-22T13:52:43.000Z</time>
      </trkpt>
      <trkpt lat="43.84063" lon="3.8664">
        <ele>347.6</ele>
        <time>2019-12-22T13:53:02.000Z</time>
      </trkpt>
      <trkpt lat="43.8408" lon="3.86623">
        <ele>345.7</ele>
        <time>2019-12-22T13:53:20.000Z</time>
      </trkpt>
      <trkpt lat="43.84094" lon="3.86602">
        <ele>346.2</ele>
        <time>2019-12-22T13:53:39.000Z</time>
      </trkpt>
      <trkpt lat="43.84107" lon="3.86588">
        <ele>345.7</ele>
        <time>2019-12-22T13:53:54.000Z</time>
      </trkpt>
      <trkpt lat="43.84121" lon="3.86574">
        <ele>345.7</ele>
        <time>2019-12-22T13:54:09.000Z</time>
      </trkpt>
      <trkpt lat="43.84128" lon="3.86563">
        <ele>346.2</ele>
        <time>2019-12-22T13:54:19.000Z</time>
      </trkpt>
      <trkpt lat="43.84147" lon="3.86559">
        <ele>345.7</ele>
        <time>2019-12-22T13:54:37.000Z</time>
      </trkpt>
      <trkpt lat="43.84161" lon="3.86565">
        <ele>346.2</ele>
        <time>2019-12-22T13:54:51.000Z</time>
      </trkpt>
      <trkpt lat="43.84168" lon="3.86571">
        <ele>346.2</ele>
        <time>2019-12-22T13:54:58.000Z</time>
      </trkpt>
      <trkpt lat="43.84177" lon="3.86574">
        <ele>345.3</ele>
        <time>2019-12-22T13:55:06.000Z</time>
      </trkpt>
      <trkpt lat="43.84196" lon="3.8657">
        <ele>345.3</ele>
        <time>2019-12-22T13:55:24.000Z</time>
      </trkpt>
      <trkpt lat="43.84213" lon="3.86562">
        <ele>345.3</ele>
        <time>2019-12-22T13:55:40.000Z</time>
      </trkpt>
      <trkpt lat="43.84214" lon="3.86559">
        <ele>344.3</ele>
        <time>2019-12-22T13:55:42.000Z</time>
      </trkpt>
      <trkpt lat="43.84227" lon="3.86544">
        <ele>344.3</ele>
        <time>2019-12-22T13:55:55.000Z</time>
      </trkpt>
      <trkpt lat="43.84237" lon="3.86524">
        <ele>344.8</ele>
        <time>2019-12-22T13:56:13.000Z</time>
      </trkpt>
      <trkpt lat="43.8425" lon="3.86507">
        <ele>344.3</ele>
        <time>2019-12-22T13:56:29.000Z</time>
      </trkpt>
      <trkpt lat="43.84261" lon="3.86497">
        <ele>345.3</ele>
        <time>2019-12-22T13:56:43.000Z</time>
      </trkpt>
      <trkpt lat="43.84264" lon="3.8649">
        <ele>344.3</ele>
        <time>2019-12-22T13:56:56.000Z</time>
      </trkpt>
      <trkpt lat="43.84266" lon="3.86485">
        <ele>348.1</ele>
        <time>2019-12-22T13:57:00.000Z</time>
      </trkpt>
      <trkpt lat="43.84267" lon="3.86484">
        <ele>346.2</ele>
        <time>2019-12-22T13:57:01.000Z</time>
      </trkpt>
      <trkpt lat="43.84272" lon="3.86461">
        <ele>342.9</ele>
        <time>2019-12-22T13:57:17.000Z</time>
      </trkpt>
      <trkpt lat="43.84277" lon="3.8645">
        <ele>342.4</ele>
        <time>2019-12-22T13:57:27.000Z</time>
      </trkpt>
      <trkpt lat="43.84285" lon="3.86428">
        <ele>341.4</ele>
        <time>2019-12-22T13:57:42.000Z</time>
      </trkpt>
      <trkpt lat="43.84292" lon="3.86413">
        <ele>340.4</ele>
        <time>2019-12-22T13:57:53.000Z</time>
      </trkpt>
      <trkpt lat="43.84299" lon="3.86394">
        <ele>339</ele>
        <time>2019-12-22T13:58:06.000Z</time>
      </trkpt>
      <trkpt lat="43.84303" lon="3.86377">
        <ele>338.5</ele>
        <time>2019-12-22T13:58:20.000Z</time>
      </trkpt>
      <trkpt lat="43.8431" lon="3.86356">
        <ele>338</ele>
        <time>2019-12-22T13:58:33.000Z</time>
      </trkpt>
      <trkpt lat="43.8431" lon="3.8634">
        <ele>337.1</ele>
        <time>2019-12-22T13:58:46.000Z</time>
      </trkpt>
      <trkpt lat="43.843" lon="3.86326">
        <ele>336.1</ele>
        <time>2019-12-22T13:58:59.000Z</time>
      </trkpt>
      <trkpt lat="43.84295" lon="3.86315">
        <ele>336.1</ele>
        <time>2019-12-22T13:59:12.000Z</time>
      </trkpt>
      <trkpt lat="43.8429" lon="3.86296">
        <ele>336.6</ele>
        <time>2019-12-22T13:59:23.000Z</time>
      </trkpt>
      <trkpt lat="43.84289" lon="3.86294">
        <ele>336.6</ele>
        <time>2019-12-22T13:59:24.000Z</time>
      </trkpt>
      <trkpt lat="43.84288" lon="3.86277">
        <ele>335.2</ele>
        <time>2019-12-22T13:59:37.000Z</time>
      </trkpt>
      <trkpt lat="43.84276" lon="3.86264">
        <ele>334.2</ele>
        <time>2019-12-22T13:59:51.000Z</time>
      </trkpt>
      <trkpt lat="43.84262" lon="3.86254">
        <ele>333.7</ele>
        <time>2019-12-22T14:00:07.000Z</time>
      </trkpt>
      <trkpt lat="43.84254" lon="3.86251">
        <ele>334.2</ele>
        <time>2019-12-22T14:00:14.000Z</time>
      </trkpt>
      <trkpt lat="43.84238" lon="3.86239">
        <ele>333.7</ele>
        <time>2019-12-22T14:00:34.000Z</time>
      </trkpt>
      <trkpt lat="43.84225" lon="3.86221">
        <ele>333.7</ele>
        <time>2019-12-22T14:00:52.000Z</time>
      </trkpt>
      <trkpt lat="43.8421" lon="3.86208">
        <ele>333.2</ele>
        <time>2019-12-22T14:01:10.000Z</time>
      </trkpt>
      <trkpt lat="43.84203" lon="3.86195">
        <ele>332.3</ele>
        <time>2019-12-22T14:01:24.000Z</time>
      </trkpt>
      <trkpt lat="43.84199" lon="3.86185">
        <ele>331.3</ele>
        <time>2019-12-22T14:01:38.000Z</time>
      </trkpt>
      <trkpt lat="43.84192" lon="3.86169">
        <ele>331.3</ele>
        <time>2019-12-22T14:01:54.000Z</time>
      </trkpt>
      <trkpt lat="43.84192" lon="3.86151">
        <ele>331.3</ele>
        <time>2019-12-22T14:02:09.000Z</time>
      </trkpt>
      <trkpt lat="43.84193" lon="3.86134">
        <ele>330.8</ele>
        <time>2019-12-22T14:02:27.000Z</time>
      </trkpt>
      <trkpt lat="43.84192" lon="3.86119">
        <ele>330.4</ele>
        <time>2019-12-22T14:02:42.000Z</time>
      </trkpt>
      <trkpt lat="43.84192" lon="3.86116">
        <ele>330.8</ele>
        <time>2019-12-22T14:02:59.000Z</time>
      </trkpt>
      <trkpt lat="43.84192" lon="3.86097">
        <ele>329.9</ele>
        <time>2019-12-22T14:03:17.000Z</time>
      </trkpt>
      <trkpt lat="43.84192" lon="3.86093">
        <ele>328.4</ele>
        <time>2019-12-22T14:03:20.000Z</time>
      </trkpt>
      <trkpt lat="43.84194" lon="3.86088">
        <ele>329.4</ele>
        <time>2019-12-22T14:03:25.000Z</time>
      </trkpt>
      <trkpt lat="43.84198" lon="3.86072">
        <ele>328.4</ele>
        <time>2019-12-22T14:03:38.000Z</time>
      </trkpt>
      <trkpt lat="43.84204" lon="3.86053">
        <ele>328.9</ele>
        <time>2019-12-22T14:03:54.000Z</time>
      </trkpt>
      <trkpt lat="43.84193" lon="3.86031">
        <ele>328.9</ele>
        <time>2019-12-22T14:04:13.000Z</time>
      </trkpt>
      <trkpt lat="43.84184" lon="3.86009">
        <ele>329.9</ele>
        <time>2019-12-22T14:04:33.000Z</time>
      </trkpt>
      <trkpt lat="43.84175" lon="3.85984">
        <ele>330.4</ele>
        <time>2019-12-22T14:04:53.000Z</time>
      </trkpt>
      <trkpt lat="43.84178" lon="3.85955">
        <ele>330.8</ele>
        <time>2019-12-22T14:05:12.000Z</time>
      </trkpt>
      <trkpt lat="43.84184" lon="3.85929">
        <ele>328.9</ele>
        <time>2019-12-22T14:05:30.000Z</time>
      </trkpt>
      <trkpt lat="43.84186" lon="3.85926">
        <ele>329.9</ele>
        <time>2019-12-22T14:05:33.000Z</time>
      </trkpt>
      <trkpt lat="43.84192" lon="3.85915">
        <ele>328</ele>
        <time>2019-12-22T14:05:42.000Z</time>
      </trkpt>
      <trkpt lat="43.84203" lon="3.85892">
        <ele>327</ele>
        <time>2019-12-22T14:06:00.000Z</time>
      </trkpt>
    </trkseg>
  </trk>
</gpx>